<?xml version="1.0" encoding="UTF-8" standalone="no" ?>
<gpx xmlns="http://www.topografix.com/GPX/1/1" xmlns:xsi="http://www.w3.org/2001/XMLSchema-instance" xsi:schemaLocation="http://www.topografix.com/GPX/1/1 http://www.topografix.com/GPX/1/1/gpx.xsd" version="1.1" creator="VisuGPX - https://www.visugpx.com">
  <metadata>
    <name>Transvesubienne 2012 (modification parcours sur Levens)</name>
    <desc><![CDATA[Trace GPX entre Pont du Cros et Le Plantier (lorsque le sentier rejoint la route juste au dessus de Plan d\'Ariou). Cette trace inclut 2 modifications de parcours pour 2012 :
- au dessus de la conduite d\'eau de levens, on rejoint Les Cloutes en empruntant des spéciales du Rallye d\'Hiver de Levens puis on continue sur la piste pour prendre la trace de la TV 2009
- entre Colla Bassa et le Plantier, on emprunte la trace du Xtrem Cross de Levens 2011]]></desc>
  </metadata>
  <trk>
    <name><![CDATA[Transvesubienne 2012 (modification parcours sur Levens)_1]]></name>
    <trkseg>
      <trkpt lat="43.8787" lon="7.23139">
        <ele>189.76527404785</ele>
        <time>2012-03-18T08:36:05Z</time>
      </trkpt>
      <trkpt lat="43.87864" lon="7.23142">
        <ele>188.16366577148</ele>
        <time>2012-03-18T08:36:14Z</time>
      </trkpt>
      <trkpt lat="43.87857" lon="7.23141">
        <ele>189.14880371094</ele>
        <time>2012-03-18T08:36:22Z</time>
      </trkpt>
      <trkpt lat="43.87854" lon="7.23143">
        <ele>190.68849182129</ele>
        <time>2012-03-18T08:36:29Z</time>
      </trkpt>
      <trkpt lat="43.87849" lon="7.23139">
        <ele>192.84626770019</ele>
        <time>2012-03-18T08:37:01Z</time>
      </trkpt>
      <trkpt lat="43.87846" lon="7.23139">
        <ele>193.91598510742</ele>
        <time>2012-03-18T08:37:03Z</time>
      </trkpt>
      <trkpt lat="43.87847" lon="7.23148">
        <ele>194.21636962891</ele>
        <time>2012-03-18T08:37:08Z</time>
      </trkpt>
      <trkpt lat="43.87849" lon="7.23153">
        <ele>193.39144897461</ele>
        <time>2012-03-18T08:37:10Z</time>
      </trkpt>
      <trkpt lat="43.87849" lon="7.23168">
        <ele>194.33168029785</ele>
        <time>2012-03-18T08:37:16Z</time>
      </trkpt>
      <trkpt lat="43.8785" lon="7.23169">
        <ele>193.60383605957</ele>
        <time>2012-03-18T08:37:20Z</time>
      </trkpt>
      <trkpt lat="43.87847" lon="7.23174">
        <ele>195.29641723633</ele>
        <time>2012-03-18T08:37:26Z</time>
      </trkpt>
      <trkpt lat="43.87845" lon="7.23177">
        <ele>196.36929321289</ele>
        <time>2012-03-18T08:37:32Z</time>
      </trkpt>
      <trkpt lat="43.87844" lon="7.23181">
        <ele>197.29626464844</ele>
        <time>2012-03-18T08:37:39Z</time>
      </trkpt>
      <trkpt lat="43.87843" lon="7.23186">
        <ele>198.05329895019</ele>
        <time>2012-03-18T08:37:45Z</time>
      </trkpt>
      <trkpt lat="43.87841" lon="7.23192">
        <ele>199.21029663086</ele>
        <time>2012-03-18T08:37:53Z</time>
      </trkpt>
      <trkpt lat="43.87839" lon="7.23195">
        <ele>200.3104095459</ele>
        <time>2012-03-18T08:38:00Z</time>
      </trkpt>
      <trkpt lat="43.8784" lon="7.23192">
        <ele>199.40255737305</ele>
        <time>2012-03-18T08:38:06Z</time>
      </trkpt>
      <trkpt lat="43.87842" lon="7.23184">
        <ele>198.35198974609</ele>
        <time>2012-03-18T08:38:14Z</time>
      </trkpt>
      <trkpt lat="43.87838" lon="7.23177">
        <ele>199.82484436035</ele>
        <time>2012-03-18T08:38:21Z</time>
      </trkpt>
      <trkpt lat="43.87836" lon="7.23171">
        <ele>200.95780944824</ele>
        <time>2012-03-18T08:38:28Z</time>
      </trkpt>
      <trkpt lat="43.87834" lon="7.23165">
        <ele>201.48417663574</ele>
        <time>2012-03-18T08:38:35Z</time>
      </trkpt>
      <trkpt lat="43.87833" lon="7.23158">
        <ele>201.69285583496</ele>
        <time>2012-03-18T08:38:42Z</time>
      </trkpt>
      <trkpt lat="43.8783" lon="7.23148">
        <ele>201.97364807129</ele>
        <time>2012-03-18T08:38:52Z</time>
      </trkpt>
      <trkpt lat="43.87827" lon="7.23141">
        <ele>202.65707397461</ele>
        <time>2012-03-18T08:39:00Z</time>
      </trkpt>
      <trkpt lat="43.87824" lon="7.23133">
        <ele>202.04931640625</ele>
        <time>2012-03-18T08:39:08Z</time>
      </trkpt>
      <trkpt lat="43.87823" lon="7.23124">
        <ele>200.33427429199</ele>
        <time>2012-03-18T08:39:16Z</time>
      </trkpt>
      <trkpt lat="43.87822" lon="7.23118">
        <ele>199.60133361816</ele>
        <time>2012-03-18T08:39:23Z</time>
      </trkpt>
      <trkpt lat="43.87822" lon="7.23111">
        <ele>198.17070007324</ele>
        <time>2012-03-18T08:39:31Z</time>
      </trkpt>
      <trkpt lat="43.87821" lon="7.23108">
        <ele>197.8977355957</ele>
        <time>2012-03-18T08:39:37Z</time>
      </trkpt>
      <trkpt lat="43.87821" lon="7.23101">
        <ele>196.55973815918</ele>
        <time>2012-03-18T08:39:44Z</time>
      </trkpt>
      <trkpt lat="43.87819" lon="7.23097">
        <ele>196.73944091797</ele>
        <time>2012-03-18T08:39:49Z</time>
      </trkpt>
      <trkpt lat="43.87815" lon="7.23089">
        <ele>197.7897644043</ele>
        <time>2012-03-18T08:39:56Z</time>
      </trkpt>
      <trkpt lat="43.87815" lon="7.23087">
        <ele>197.79777526856</ele>
        <time>2012-03-18T08:39:57Z</time>
      </trkpt>
      <trkpt lat="43.87807" lon="7.23083">
        <ele>201.97497558594</ele>
        <time>2012-03-18T08:40:04Z</time>
      </trkpt>
      <trkpt lat="43.878" lon="7.23078">
        <ele>204.12380981445</ele>
        <time>2012-03-18T08:40:12Z</time>
      </trkpt>
      <trkpt lat="43.87799" lon="7.23084">
        <ele>205.16899108887</ele>
        <time>2012-03-18T08:40:18Z</time>
      </trkpt>
      <trkpt lat="43.87798" lon="7.23088">
        <ele>206.21553039551</ele>
        <time>2012-03-18T08:40:23Z</time>
      </trkpt>
      <trkpt lat="43.87794" lon="7.23085">
        <ele>206.92660522461</ele>
        <time>2012-03-18T08:40:28Z</time>
      </trkpt>
      <trkpt lat="43.87791" lon="7.23079">
        <ele>207.18473815918</ele>
        <time>2012-03-18T08:40:35Z</time>
      </trkpt>
      <trkpt lat="43.87787" lon="7.23075">
        <ele>207.86056518555</ele>
        <time>2012-03-18T08:40:42Z</time>
      </trkpt>
      <trkpt lat="43.87786" lon="7.23072">
        <ele>207.82545471191</ele>
        <time>2012-03-18T08:40:47Z</time>
      </trkpt>
      <trkpt lat="43.87784" lon="7.23067">
        <ele>207.74963378906</ele>
        <time>2012-03-18T08:40:57Z</time>
      </trkpt>
      <trkpt lat="43.8778" lon="7.23063">
        <ele>208.56385803223</ele>
        <time>2012-03-18T08:41:04Z</time>
      </trkpt>
      <trkpt lat="43.87774" lon="7.23056">
        <ele>209.76931762695</ele>
        <time>2012-03-18T08:41:13Z</time>
      </trkpt>
      <trkpt lat="43.87769" lon="7.23049">
        <ele>210.59257507324</ele>
        <time>2012-03-18T08:41:21Z</time>
      </trkpt>
      <trkpt lat="43.87766" lon="7.23047">
        <ele>211.33387756348</ele>
        <time>2012-03-18T08:41:26Z</time>
      </trkpt>
      <trkpt lat="43.87763" lon="7.23046">
        <ele>212.17747497559</ele>
        <time>2012-03-18T08:41:31Z</time>
      </trkpt>
      <trkpt lat="43.87759" lon="7.23044">
        <ele>213.45530700684</ele>
        <time>2012-03-18T08:41:37Z</time>
      </trkpt>
      <trkpt lat="43.87751" lon="7.23042">
        <ele>216.11872863769</ele>
        <time>2012-03-18T08:41:45Z</time>
      </trkpt>
      <trkpt lat="43.87745" lon="7.2304">
        <ele>218.16708374023</ele>
        <time>2012-03-18T08:41:52Z</time>
      </trkpt>
      <trkpt lat="43.87741" lon="7.23039">
        <ele>219.72747802734</ele>
        <time>2012-03-18T08:41:59Z</time>
      </trkpt>
      <trkpt lat="43.87737" lon="7.23037">
        <ele>220.90679931641</ele>
        <time>2012-03-18T08:42:06Z</time>
      </trkpt>
      <trkpt lat="43.87737" lon="7.23031">
        <ele>219.521484375</ele>
        <time>2012-03-18T08:42:10Z</time>
      </trkpt>
      <trkpt lat="43.87728" lon="7.23021">
        <ele>221.18830871582</ele>
        <time>2012-03-18T08:42:15Z</time>
      </trkpt>
      <trkpt lat="43.87716" lon="7.23015">
        <ele>226.1794128418</ele>
        <time>2012-03-18T08:42:21Z</time>
      </trkpt>
      <trkpt lat="43.87714" lon="7.23015">
        <ele>226.97650146484</ele>
        <time>2012-03-18T08:42:22Z</time>
      </trkpt>
      <trkpt lat="43.87708" lon="7.23012">
        <ele>229.89566040039</ele>
        <time>2012-03-18T08:42:26Z</time>
      </trkpt>
      <trkpt lat="43.87706" lon="7.2301">
        <ele>230.99516296387</ele>
        <time>2012-03-18T08:42:29Z</time>
      </trkpt>
      <trkpt lat="43.87698" lon="7.23004">
        <ele>233.37408447266</ele>
        <time>2012-03-18T08:42:36Z</time>
      </trkpt>
      <trkpt lat="43.87693" lon="7.23003">
        <ele>235.95413208008</ele>
        <time>2012-03-18T08:42:41Z</time>
      </trkpt>
      <trkpt lat="43.87684" lon="7.23001">
        <ele>238.81407165527</ele>
        <time>2012-03-18T08:42:49Z</time>
      </trkpt>
      <trkpt lat="43.87677" lon="7.22992">
        <ele>238.4637298584</ele>
        <time>2012-03-18T08:42:57Z</time>
      </trkpt>
      <trkpt lat="43.87666" lon="7.22984">
        <ele>239.32951354981</ele>
        <time>2012-03-18T08:43:06Z</time>
      </trkpt>
      <trkpt lat="43.87661" lon="7.2298">
        <ele>240.7370300293</ele>
        <time>2012-03-18T08:43:11Z</time>
      </trkpt>
      <trkpt lat="43.87656" lon="7.22976">
        <ele>241.81085205078</ele>
        <time>2012-03-18T08:43:17Z</time>
      </trkpt>
      <trkpt lat="43.8765" lon="7.22969">
        <ele>241.78199768066</ele>
        <time>2012-03-18T08:43:23Z</time>
      </trkpt>
      <trkpt lat="43.87647" lon="7.22961">
        <ele>239.90483093262</ele>
        <time>2012-03-18T08:43:30Z</time>
      </trkpt>
      <trkpt lat="43.87648" lon="7.22958">
        <ele>238.70249938965</ele>
        <time>2012-03-18T08:43:32Z</time>
      </trkpt>
      <trkpt lat="43.87646" lon="7.22945">
        <ele>234.06567382812</ele>
        <time>2012-03-18T08:43:37Z</time>
      </trkpt>
      <trkpt lat="43.87644" lon="7.22937">
        <ele>232.33790588379</ele>
        <time>2012-03-18T08:43:41Z</time>
      </trkpt>
      <trkpt lat="43.87635" lon="7.22919">
        <ele>230.00511169434</ele>
        <time>2012-03-18T08:43:49Z</time>
      </trkpt>
      <trkpt lat="43.87625" lon="7.22901">
        <ele>227.71615600586</ele>
        <time>2012-03-18T08:43:57Z</time>
      </trkpt>
      <trkpt lat="43.87615" lon="7.22887">
        <ele>226.46525573731</ele>
        <time>2012-03-18T08:44:05Z</time>
      </trkpt>
      <trkpt lat="43.87611" lon="7.22878">
        <ele>225.18157958984</ele>
        <time>2012-03-18T08:44:10Z</time>
      </trkpt>
      <trkpt lat="43.87605" lon="7.22871">
        <ele>227.00761413574</ele>
        <time>2012-03-18T08:44:15Z</time>
      </trkpt>
      <trkpt lat="43.87595" lon="7.2286">
        <ele>232.19819641113</ele>
        <time>2012-03-18T08:44:22Z</time>
      </trkpt>
      <trkpt lat="43.87578" lon="7.22859">
        <ele>243.9919128418</ele>
        <time>2012-03-18T08:44:31Z</time>
      </trkpt>
      <trkpt lat="43.87566" lon="7.22856">
        <ele>252.84042358398</ele>
        <time>2012-03-18T08:44:38Z</time>
      </trkpt>
      <trkpt lat="43.87553" lon="7.22849">
        <ele>263.80715942383</ele>
        <time>2012-03-18T08:44:45Z</time>
      </trkpt>
      <trkpt lat="43.8755" lon="7.22837">
        <ele>269.388671875</ele>
        <time>2012-03-18T08:44:50Z</time>
      </trkpt>
      <trkpt lat="43.87551" lon="7.22831">
        <ele>269.79922485352</ele>
        <time>2012-03-18T08:44:53Z</time>
      </trkpt>
      <trkpt lat="43.87563" lon="7.22815">
        <ele>261.96206665039</ele>
        <time>2012-03-18T08:45:03Z</time>
      </trkpt>
      <trkpt lat="43.87564" lon="7.22811">
        <ele>261.63296508789</ele>
        <time>2012-03-18T08:45:05Z</time>
      </trkpt>
      <trkpt lat="43.87568" lon="7.22795">
        <ele>257.51388549805</ele>
        <time>2012-03-18T08:45:14Z</time>
      </trkpt>
      <trkpt lat="43.87572" lon="7.22786">
        <ele>252.81170654297</ele>
        <time>2012-03-18T08:45:19Z</time>
      </trkpt>
      <trkpt lat="43.87573" lon="7.2278">
        <ele>251.73141479492</ele>
        <time>2012-03-18T08:45:22Z</time>
      </trkpt>
      <trkpt lat="43.87573" lon="7.22767">
        <ele>251.80749511719</ele>
        <time>2012-03-18T08:45:30Z</time>
      </trkpt>
      <trkpt lat="43.87573" lon="7.2276">
        <ele>252.39204406738</ele>
        <time>2012-03-18T08:45:34Z</time>
      </trkpt>
      <trkpt lat="43.87569" lon="7.22751">
        <ele>257.98608398438</ele>
        <time>2012-03-18T08:45:40Z</time>
      </trkpt>
      <trkpt lat="43.87567" lon="7.22745">
        <ele>259.82153320312</ele>
        <time>2012-03-18T08:45:44Z</time>
      </trkpt>
      <trkpt lat="43.87558" lon="7.22729">
        <ele>268.36688232422</ele>
        <time>2012-03-18T08:45:54Z</time>
      </trkpt>
      <trkpt lat="43.87557" lon="7.22724">
        <ele>269.68463134766</ele>
        <time>2012-03-18T08:45:57Z</time>
      </trkpt>
      <trkpt lat="43.87548" lon="7.22712">
        <ele>277.70376586914</ele>
        <time>2012-03-18T08:46:07Z</time>
      </trkpt>
      <trkpt lat="43.87543" lon="7.22704">
        <ele>283.30236816406</ele>
        <time>2012-03-18T08:46:13Z</time>
      </trkpt>
      <trkpt lat="43.8754" lon="7.22707">
        <ele>287.06942749023</ele>
        <time>2012-03-18T08:46:20Z</time>
      </trkpt>
      <trkpt lat="43.87542" lon="7.22712">
        <ele>285.56707763672</ele>
        <time>2012-03-18T08:46:26Z</time>
      </trkpt>
      <trkpt lat="43.87543" lon="7.22717">
        <ele>283.66152954102</ele>
        <time>2012-03-18T08:46:31Z</time>
      </trkpt>
      <trkpt lat="43.87543" lon="7.2272">
        <ele>284.29281616211</ele>
        <time>2012-03-18T08:46:35Z</time>
      </trkpt>
      <trkpt lat="43.8754" lon="7.22725">
        <ele>288.19082641602</ele>
        <time>2012-03-18T08:46:40Z</time>
      </trkpt>
      <trkpt lat="43.87539" lon="7.22733">
        <ele>290.48422241211</ele>
        <time>2012-03-18T08:46:45Z</time>
      </trkpt>
      <trkpt lat="43.87537" lon="7.22741">
        <ele>293.75952148438</ele>
        <time>2012-03-18T08:46:53Z</time>
      </trkpt>
      <trkpt lat="43.87535" lon="7.22748">
        <ele>297.19274902344</ele>
        <time>2012-03-18T08:46:59Z</time>
      </trkpt>
      <trkpt lat="43.87534" lon="7.22755">
        <ele>297.93542480469</ele>
        <time>2012-03-18T08:47:06Z</time>
      </trkpt>
      <trkpt lat="43.87532" lon="7.22762">
        <ele>298.02758789062</ele>
        <time>2012-03-18T08:47:12Z</time>
      </trkpt>
      <trkpt lat="43.8753" lon="7.22763">
        <ele>300.51412963867</ele>
        <time>2012-03-18T08:47:18Z</time>
      </trkpt>
      <trkpt lat="43.8753" lon="7.22757">
        <ele>301.57315063477</ele>
        <time>2012-03-18T08:47:23Z</time>
      </trkpt>
      <trkpt lat="43.87529" lon="7.22748">
        <ele>303.00177001953</ele>
        <time>2012-03-18T08:47:30Z</time>
      </trkpt>
      <trkpt lat="43.87528" lon="7.22743">
        <ele>303.48928833008</ele>
        <time>2012-03-18T08:47:34Z</time>
      </trkpt>
      <trkpt lat="43.87527" lon="7.2274">
        <ele>303.81671142578</ele>
        <time>2012-03-18T08:47:36Z</time>
      </trkpt>
      <trkpt lat="43.87527" lon="7.2273">
        <ele>302.65811157227</ele>
        <time>2012-03-18T08:47:42Z</time>
      </trkpt>
      <trkpt lat="43.87523" lon="7.22723">
        <ele>305.19277954102</ele>
        <time>2012-03-18T08:47:48Z</time>
      </trkpt>
      <trkpt lat="43.87522" lon="7.22729">
        <ele>307.26095581055</ele>
        <time>2012-03-18T08:47:52Z</time>
      </trkpt>
      <trkpt lat="43.87519" lon="7.22738">
        <ele>310.26037597656</ele>
        <time>2012-03-18T08:47:58Z</time>
      </trkpt>
      <trkpt lat="43.87518" lon="7.22744">
        <ele>312.11929321289</ele>
        <time>2012-03-18T08:48:02Z</time>
      </trkpt>
      <trkpt lat="43.87514" lon="7.22748">
        <ele>315.90155029297</ele>
        <time>2012-03-18T08:48:10Z</time>
      </trkpt>
      <trkpt lat="43.87513" lon="7.22739">
        <ele>316.10202026367</ele>
        <time>2012-03-18T08:48:18Z</time>
      </trkpt>
      <trkpt lat="43.87511" lon="7.2273">
        <ele>316.98385620117</ele>
        <time>2012-03-18T08:48:24Z</time>
      </trkpt>
      <trkpt lat="43.87509" lon="7.22722">
        <ele>317.75701904297</ele>
        <time>2012-03-18T08:48:29Z</time>
      </trkpt>
      <trkpt lat="43.87507" lon="7.22712">
        <ele>319.30651855469</ele>
        <time>2012-03-18T08:48:36Z</time>
      </trkpt>
      <trkpt lat="43.87504" lon="7.22711">
        <ele>321.94488525391</ele>
        <time>2012-03-18T08:48:40Z</time>
      </trkpt>
      <trkpt lat="43.87503" lon="7.22719">
        <ele>323.16564941406</ele>
        <time>2012-03-18T08:48:46Z</time>
      </trkpt>
      <trkpt lat="43.875" lon="7.22729">
        <ele>326.57925415039</ele>
        <time>2012-03-18T08:48:52Z</time>
      </trkpt>
      <trkpt lat="43.87497" lon="7.22737">
        <ele>328.79040527344</ele>
        <time>2012-03-18T08:48:58Z</time>
      </trkpt>
      <trkpt lat="43.87492" lon="7.22744">
        <ele>333.4801940918</ele>
        <time>2012-03-18T08:49:06Z</time>
      </trkpt>
      <trkpt lat="43.87489" lon="7.22741">
        <ele>335.63684082031</ele>
        <time>2012-03-18T08:49:12Z</time>
      </trkpt>
      <trkpt lat="43.87489" lon="7.22737">
        <ele>335.54702758789</ele>
        <time>2012-03-18T08:49:18Z</time>
      </trkpt>
      <trkpt lat="43.87489" lon="7.22736">
        <ele>335.84780883789</ele>
        <time>2012-03-18T08:49:25Z</time>
      </trkpt>
      <trkpt lat="43.87493" lon="7.22737">
        <ele>332.32608032227</ele>
        <time>2012-03-18T08:49:58Z</time>
      </trkpt>
      <trkpt lat="43.87494" lon="7.22732">
        <ele>331.87075805664</ele>
        <time>2012-03-18T08:50:25Z</time>
      </trkpt>
      <trkpt lat="43.87492" lon="7.22724">
        <ele>332.95614624023</ele>
        <time>2012-03-18T08:50:32Z</time>
      </trkpt>
      <trkpt lat="43.8749" lon="7.22717">
        <ele>334.79141235352</ele>
        <time>2012-03-18T08:50:38Z</time>
      </trkpt>
      <trkpt lat="43.87488" lon="7.22707">
        <ele>336.24420166016</ele>
        <time>2012-03-18T08:50:45Z</time>
      </trkpt>
      <trkpt lat="43.87488" lon="7.22704">
        <ele>335.84411621094</ele>
        <time>2012-03-18T08:50:47Z</time>
      </trkpt>
      <trkpt lat="43.87489" lon="7.22693">
        <ele>335.26840209961</ele>
        <time>2012-03-18T08:50:55Z</time>
      </trkpt>
      <trkpt lat="43.87489" lon="7.22691">
        <ele>335.22500610352</ele>
        <time>2012-03-18T08:50:57Z</time>
      </trkpt>
      <trkpt lat="43.87486" lon="7.22692">
        <ele>338.00360107422</ele>
        <time>2012-03-18T08:50:59Z</time>
      </trkpt>
      <trkpt lat="43.8748" lon="7.22696">
        <ele>342.87240600586</ele>
        <time>2012-03-18T08:51:07Z</time>
      </trkpt>
      <trkpt lat="43.87475" lon="7.227">
        <ele>347.33865356445</ele>
        <time>2012-03-18T08:51:13Z</time>
      </trkpt>
      <trkpt lat="43.87473" lon="7.22706">
        <ele>349.72393798828</ele>
        <time>2012-03-18T08:51:20Z</time>
      </trkpt>
      <trkpt lat="43.87471" lon="7.22713">
        <ele>350.70071411133</ele>
        <time>2012-03-18T08:51:25Z</time>
      </trkpt>
      <trkpt lat="43.87469" lon="7.22719">
        <ele>351.64703369141</ele>
        <time>2012-03-18T08:51:32Z</time>
      </trkpt>
      <trkpt lat="43.87468" lon="7.22723">
        <ele>352.61770629883</ele>
        <time>2012-03-18T08:51:40Z</time>
      </trkpt>
      <trkpt lat="43.87465" lon="7.22725">
        <ele>354.52209472656</ele>
        <time>2012-03-18T08:51:47Z</time>
      </trkpt>
      <trkpt lat="43.87464" lon="7.22723">
        <ele>355.19482421875</ele>
        <time>2012-03-18T08:51:53Z</time>
      </trkpt>
      <trkpt lat="43.87466" lon="7.22716">
        <ele>353.85516357422</ele>
        <time>2012-03-18T08:52:00Z</time>
      </trkpt>
      <trkpt lat="43.87466" lon="7.22709">
        <ele>353.46371459961</ele>
        <time>2012-03-18T08:52:07Z</time>
      </trkpt>
      <trkpt lat="43.87464" lon="7.22708">
        <ele>354.71343994141</ele>
        <time>2012-03-18T08:52:12Z</time>
      </trkpt>
      <trkpt lat="43.87462" lon="7.22715">
        <ele>356.04885864258</ele>
        <time>2012-03-18T08:52:19Z</time>
      </trkpt>
      <trkpt lat="43.87458" lon="7.2272">
        <ele>358.34848022461</ele>
        <time>2012-03-18T08:52:26Z</time>
      </trkpt>
      <trkpt lat="43.87457" lon="7.22722">
        <ele>359.15570068359</ele>
        <time>2012-03-18T08:52:32Z</time>
      </trkpt>
      <trkpt lat="43.87458" lon="7.22718">
        <ele>358.6533203125</ele>
        <time>2012-03-18T08:52:38Z</time>
      </trkpt>
      <trkpt lat="43.87459" lon="7.22711">
        <ele>357.63006591797</ele>
        <time>2012-03-18T08:52:46Z</time>
      </trkpt>
      <trkpt lat="43.87457" lon="7.22704">
        <ele>358.4914855957</ele>
        <time>2012-03-18T08:52:53Z</time>
      </trkpt>
      <trkpt lat="43.87456" lon="7.22695">
        <ele>358.34194946289</ele>
        <time>2012-03-18T08:53:00Z</time>
      </trkpt>
      <trkpt lat="43.87457" lon="7.22688">
        <ele>357.33331298828</ele>
        <time>2012-03-18T08:53:05Z</time>
      </trkpt>
      <trkpt lat="43.87458" lon="7.22673">
        <ele>355.97589111328</ele>
        <time>2012-03-18T08:53:16Z</time>
      </trkpt>
      <trkpt lat="43.87457" lon="7.22668">
        <ele>356.14828491211</ele>
        <time>2012-03-18T08:53:22Z</time>
      </trkpt>
      <trkpt lat="43.87457" lon="7.22661">
        <ele>354.76678466797</ele>
        <time>2012-03-18T08:53:29Z</time>
      </trkpt>
      <trkpt lat="43.87457" lon="7.22655">
        <ele>353.15661621094</ele>
        <time>2012-03-18T08:53:34Z</time>
      </trkpt>
      <trkpt lat="43.87457" lon="7.22648">
        <ele>351.58935546875</ele>
        <time>2012-03-18T08:53:39Z</time>
      </trkpt>
      <trkpt lat="43.87457" lon="7.22643">
        <ele>350.20745849609</ele>
        <time>2012-03-18T08:53:43Z</time>
      </trkpt>
      <trkpt lat="43.87453" lon="7.22636">
        <ele>348.85879516602</ele>
        <time>2012-03-18T08:53:50Z</time>
      </trkpt>
      <trkpt lat="43.8745" lon="7.22632">
        <ele>348.13787841797</ele>
        <time>2012-03-18T08:53:55Z</time>
      </trkpt>
      <trkpt lat="43.87446" lon="7.22632">
        <ele>349.90475463867</ele>
        <time>2012-03-18T08:54:00Z</time>
      </trkpt>
      <trkpt lat="43.87445" lon="7.22639">
        <ele>353.63897705078</ele>
        <time>2012-03-18T08:54:07Z</time>
      </trkpt>
      <trkpt lat="43.87444" lon="7.22647">
        <ele>356.04293823242</ele>
        <time>2012-03-18T08:54:14Z</time>
      </trkpt>
      <trkpt lat="43.87442" lon="7.22643">
        <ele>355.44183349609</ele>
        <time>2012-03-18T08:54:19Z</time>
      </trkpt>
      <trkpt lat="43.87438" lon="7.22641">
        <ele>355.81463623047</ele>
        <time>2012-03-18T08:54:27Z</time>
      </trkpt>
      <trkpt lat="43.87433" lon="7.22639">
        <ele>356.35565185547</ele>
        <time>2012-03-18T08:54:34Z</time>
      </trkpt>
      <trkpt lat="43.87427" lon="7.22634">
        <ele>355.36022949219</ele>
        <time>2012-03-18T08:54:42Z</time>
      </trkpt>
      <trkpt lat="43.87424" lon="7.22631">
        <ele>354.53271484375</ele>
        <time>2012-03-18T08:54:47Z</time>
      </trkpt>
      <trkpt lat="43.87417" lon="7.22632">
        <ele>355.94815063477</ele>
        <time>2012-03-18T08:54:54Z</time>
      </trkpt>
      <trkpt lat="43.87412" lon="7.22631">
        <ele>355.71380615234</ele>
        <time>2012-03-18T08:54:59Z</time>
      </trkpt>
      <trkpt lat="43.87406" lon="7.22637">
        <ele>358.97866821289</ele>
        <time>2012-03-18T08:55:07Z</time>
      </trkpt>
      <trkpt lat="43.87404" lon="7.2264">
        <ele>360.36938476562</ele>
        <time>2012-03-18T08:55:10Z</time>
      </trkpt>
      <trkpt lat="43.87397" lon="7.22645">
        <ele>361.66217041016</ele>
        <time>2012-03-18T08:55:18Z</time>
      </trkpt>
      <trkpt lat="43.87388" lon="7.22653">
        <ele>364.04125976562</ele>
        <time>2012-03-18T08:55:26Z</time>
      </trkpt>
      <trkpt lat="43.87382" lon="7.22662">
        <ele>367.501953125</ele>
        <time>2012-03-18T08:55:32Z</time>
      </trkpt>
      <trkpt lat="43.87376" lon="7.22669">
        <ele>370.28591918945</ele>
        <time>2012-03-18T08:55:38Z</time>
      </trkpt>
      <trkpt lat="43.87368" lon="7.22674">
        <ele>373.18893432617</ele>
        <time>2012-03-18T08:55:45Z</time>
      </trkpt>
      <trkpt lat="43.87359" lon="7.22679">
        <ele>376.30383300781</ele>
        <time>2012-03-18T08:55:52Z</time>
      </trkpt>
      <trkpt lat="43.87357" lon="7.22679">
        <ele>376.732421875</ele>
        <time>2012-03-18T08:55:53Z</time>
      </trkpt>
      <trkpt lat="43.8735" lon="7.22683">
        <ele>379.64038085938</ele>
        <time>2012-03-18T08:55:58Z</time>
      </trkpt>
      <trkpt lat="43.87344" lon="7.22686">
        <ele>382.2673034668</ele>
        <time>2012-03-18T08:56:05Z</time>
      </trkpt>
      <trkpt lat="43.87342" lon="7.22687">
        <ele>382.91470336914</ele>
        <time>2012-03-18T08:56:07Z</time>
      </trkpt>
      <trkpt lat="43.87334" lon="7.22688">
        <ele>384.88009643555</ele>
        <time>2012-03-18T08:56:14Z</time>
      </trkpt>
      <trkpt lat="43.87325" lon="7.22686">
        <ele>387.92489624023</ele>
        <time>2012-03-18T08:56:21Z</time>
      </trkpt>
      <trkpt lat="43.87316" lon="7.22681">
        <ele>390.01321411133</ele>
        <time>2012-03-18T08:56:28Z</time>
      </trkpt>
      <trkpt lat="43.8731" lon="7.22675">
        <ele>390.64584350586</ele>
        <time>2012-03-18T08:56:33Z</time>
      </trkpt>
      <trkpt lat="43.87304" lon="7.22662">
        <ele>389.42785644531</ele>
        <time>2012-03-18T08:56:40Z</time>
      </trkpt>
      <trkpt lat="43.87302" lon="7.22659">
        <ele>389.89920043945</ele>
        <time>2012-03-18T08:56:43Z</time>
      </trkpt>
      <trkpt lat="43.87295" lon="7.2265">
        <ele>392.2060546875</ele>
        <time>2012-03-18T08:56:51Z</time>
      </trkpt>
      <trkpt lat="43.87288" lon="7.22638">
        <ele>394.14434814453</ele>
        <time>2012-03-18T08:56:59Z</time>
      </trkpt>
      <trkpt lat="43.8728" lon="7.22626">
        <ele>395.54510498047</ele>
        <time>2012-03-18T08:57:07Z</time>
      </trkpt>
      <trkpt lat="43.87277" lon="7.22621">
        <ele>396.27725219727</ele>
        <time>2012-03-18T08:57:11Z</time>
      </trkpt>
      <trkpt lat="43.87274" lon="7.22614">
        <ele>395.75384521484</ele>
        <time>2012-03-18T08:57:17Z</time>
      </trkpt>
      <trkpt lat="43.87272" lon="7.2261">
        <ele>395.73220825195</ele>
        <time>2012-03-18T08:57:25Z</time>
      </trkpt>
      <trkpt lat="43.87268" lon="7.22603">
        <ele>395.88851928711</ele>
        <time>2012-03-18T08:57:31Z</time>
      </trkpt>
      <trkpt lat="43.87264" lon="7.22592">
        <ele>395.35592651367</ele>
        <time>2012-03-18T08:57:37Z</time>
      </trkpt>
      <trkpt lat="43.87259" lon="7.22581">
        <ele>395.10864257812</ele>
        <time>2012-03-18T08:57:44Z</time>
      </trkpt>
      <trkpt lat="43.87257" lon="7.22575">
        <ele>394.9416809082</ele>
        <time>2012-03-18T08:57:50Z</time>
      </trkpt>
      <trkpt lat="43.87253" lon="7.22571">
        <ele>395.88888549805</ele>
        <time>2012-03-18T08:57:55Z</time>
      </trkpt>
      <trkpt lat="43.87249" lon="7.22564">
        <ele>396.89001464844</ele>
        <time>2012-03-18T08:58:03Z</time>
      </trkpt>
      <trkpt lat="43.87246" lon="7.22559">
        <ele>397.56195068359</ele>
        <time>2012-03-18T08:58:09Z</time>
      </trkpt>
      <trkpt lat="43.87241" lon="7.22555">
        <ele>399.078125</ele>
        <time>2012-03-18T08:58:14Z</time>
      </trkpt>
      <trkpt lat="43.87231" lon="7.22545">
        <ele>402.43923950195</ele>
        <time>2012-03-18T08:58:22Z</time>
      </trkpt>
      <trkpt lat="43.87225" lon="7.22538">
        <ele>404.51290893555</ele>
        <time>2012-03-18T08:58:27Z</time>
      </trkpt>
      <trkpt lat="43.87218" lon="7.22535">
        <ele>406.24374389648</ele>
        <time>2012-03-18T08:58:33Z</time>
      </trkpt>
      <trkpt lat="43.87216" lon="7.22528">
        <ele>405.04449462891</ele>
        <time>2012-03-18T08:58:37Z</time>
      </trkpt>
      <trkpt lat="43.87214" lon="7.22523">
        <ele>404.19888305664</ele>
        <time>2012-03-18T08:58:40Z</time>
      </trkpt>
      <trkpt lat="43.87209" lon="7.22516">
        <ele>403.51910400391</ele>
        <time>2012-03-18T08:58:47Z</time>
      </trkpt>
      <trkpt lat="43.87206" lon="7.22511">
        <ele>402.66424560547</ele>
        <time>2012-03-18T08:58:54Z</time>
      </trkpt>
      <trkpt lat="43.87202" lon="7.22506">
        <ele>402.29345703125</ele>
        <time>2012-03-18T08:59:00Z</time>
      </trkpt>
      <trkpt lat="43.872" lon="7.22503">
        <ele>401.83337402344</ele>
        <time>2012-03-18T08:59:04Z</time>
      </trkpt>
      <trkpt lat="43.87193" lon="7.22503">
        <ele>402.19192504883</ele>
        <time>2012-03-18T08:59:09Z</time>
      </trkpt>
      <trkpt lat="43.87189" lon="7.22514">
        <ele>403.15042114258</ele>
        <time>2012-03-18T08:59:15Z</time>
      </trkpt>
      <trkpt lat="43.87183" lon="7.22526">
        <ele>403.42568969727</ele>
        <time>2012-03-18T08:59:21Z</time>
      </trkpt>
      <trkpt lat="43.87175" lon="7.22533">
        <ele>402.76998901367</ele>
        <time>2012-03-18T08:59:27Z</time>
      </trkpt>
      <trkpt lat="43.8717" lon="7.22538">
        <ele>402.58932495117</ele>
        <time>2012-03-18T08:59:31Z</time>
      </trkpt>
      <trkpt lat="43.87161" lon="7.22546">
        <ele>403.12347412109</ele>
        <time>2012-03-18T08:59:38Z</time>
      </trkpt>
      <trkpt lat="43.87153" lon="7.22554">
        <ele>403.40841674805</ele>
        <time>2012-03-18T08:59:44Z</time>
      </trkpt>
      <trkpt lat="43.87145" lon="7.22559">
        <ele>403.28930664062</ele>
        <time>2012-03-18T08:59:50Z</time>
      </trkpt>
      <trkpt lat="43.87134" lon="7.22573">
        <ele>404.5412902832</ele>
        <time>2012-03-18T08:59:56Z</time>
      </trkpt>
      <trkpt lat="43.87124" lon="7.22583">
        <ele>404.45016479492</ele>
        <time>2012-03-18T09:00:01Z</time>
      </trkpt>
      <trkpt lat="43.87113" lon="7.22596">
        <ele>404.87915039062</ele>
        <time>2012-03-18T09:00:07Z</time>
      </trkpt>
      <trkpt lat="43.87101" lon="7.22612">
        <ele>411.1438293457</ele>
        <time>2012-03-18T09:00:14Z</time>
      </trkpt>
      <trkpt lat="43.87086" lon="7.22632">
        <ele>418.30453491211</ele>
        <time>2012-03-18T09:00:23Z</time>
      </trkpt>
      <trkpt lat="43.87081" lon="7.22646">
        <ele>423.32006835938</ele>
        <time>2012-03-18T09:00:29Z</time>
      </trkpt>
      <trkpt lat="43.8708" lon="7.22651">
        <ele>425.61947631836</ele>
        <time>2012-03-18T09:00:32Z</time>
      </trkpt>
      <trkpt lat="43.87074" lon="7.22651">
        <ele>427.75494384766</ele>
        <time>2012-03-18T09:00:39Z</time>
      </trkpt>
      <trkpt lat="43.87074" lon="7.22648">
        <ele>427.20071411133</ele>
        <time>2012-03-18T09:00:44Z</time>
      </trkpt>
      <trkpt lat="43.87074" lon="7.22639">
        <ele>424.07095336914</ele>
        <time>2012-03-18T09:01:10Z</time>
      </trkpt>
      <trkpt lat="43.87073" lon="7.22638">
        <ele>423.84585571289</ele>
        <time>2012-03-18T09:01:11Z</time>
      </trkpt>
      <trkpt lat="43.87067" lon="7.22627">
        <ele>423.95755004883</ele>
        <time>2012-03-18T09:01:19Z</time>
      </trkpt>
      <trkpt lat="43.87063" lon="7.22616">
        <ele>423.65588378906</ele>
        <time>2012-03-18T09:01:26Z</time>
      </trkpt>
      <trkpt lat="43.87065" lon="7.22615">
        <ele>422.83291625977</ele>
        <time>2012-03-18T09:01:33Z</time>
      </trkpt>
      <trkpt lat="43.87067" lon="7.22612">
        <ele>421.24322509766</ele>
        <time>2012-03-18T09:02:00Z</time>
      </trkpt>
      <trkpt lat="43.87066" lon="7.22608">
        <ele>421.06335449219</ele>
        <time>2012-03-18T09:02:02Z</time>
      </trkpt>
      <trkpt lat="43.87058" lon="7.22601">
        <ele>422.97427368164</ele>
        <time>2012-03-18T09:02:06Z</time>
      </trkpt>
      <trkpt lat="43.87046" lon="7.22592">
        <ele>423.59942626953</ele>
        <time>2012-03-18T09:02:13Z</time>
      </trkpt>
      <trkpt lat="43.87035" lon="7.22582">
        <ele>421.72082519531</ele>
        <time>2012-03-18T09:02:21Z</time>
      </trkpt>
      <trkpt lat="43.87024" lon="7.22575">
        <ele>419.30252075195</ele>
        <time>2012-03-18T09:02:29Z</time>
      </trkpt>
      <trkpt lat="43.8702" lon="7.22575">
        <ele>419.19818115234</ele>
        <time>2012-03-18T09:02:32Z</time>
      </trkpt>
      <trkpt lat="43.87008" lon="7.22579">
        <ele>422.21026611328</ele>
        <time>2012-03-18T09:02:41Z</time>
      </trkpt>
      <trkpt lat="43.86998" lon="7.22583">
        <ele>424.84902954102</ele>
        <time>2012-03-18T09:02:48Z</time>
      </trkpt>
      <trkpt lat="43.86993" lon="7.22583">
        <ele>424.33551025391</ele>
        <time>2012-03-18T09:02:52Z</time>
      </trkpt>
      <trkpt lat="43.86995" lon="7.22587">
        <ele>426.15817260742</ele>
        <time>2012-03-18T09:02:57Z</time>
      </trkpt>
      <trkpt lat="43.87001" lon="7.2259">
        <ele>427.86413574219</ele>
        <time>2012-03-18T09:03:03Z</time>
      </trkpt>
      <trkpt lat="43.87003" lon="7.22592">
        <ele>428.56201171875</ele>
        <time>2012-03-18T09:03:05Z</time>
      </trkpt>
      <trkpt lat="43.87005" lon="7.22598">
        <ele>430.54428100586</ele>
        <time>2012-03-18T09:03:12Z</time>
      </trkpt>
      <trkpt lat="43.87006" lon="7.22604">
        <ele>432.89340209961</ele>
        <time>2012-03-18T09:03:16Z</time>
      </trkpt>
      <trkpt lat="43.87012" lon="7.22613">
        <ele>435.47372436523</ele>
        <time>2012-03-18T09:03:22Z</time>
      </trkpt>
      <trkpt lat="43.87017" lon="7.22622">
        <ele>437.37573242188</ele>
        <time>2012-03-18T09:03:27Z</time>
      </trkpt>
      <trkpt lat="43.87016" lon="7.22626">
        <ele>438.8108215332</ele>
        <time>2012-03-18T09:03:32Z</time>
      </trkpt>
      <trkpt lat="43.87014" lon="7.22623">
        <ele>438.24261474609</ele>
        <time>2012-03-18T09:03:34Z</time>
      </trkpt>
      <trkpt lat="43.87011" lon="7.22618">
        <ele>437.16973876953</ele>
        <time>2012-03-18T09:03:38Z</time>
      </trkpt>
      <trkpt lat="43.87006" lon="7.22615">
        <ele>437.12683105469</ele>
        <time>2012-03-18T09:03:43Z</time>
      </trkpt>
      <trkpt lat="43.87" lon="7.22611">
        <ele>437.00979614258</ele>
        <time>2012-03-18T09:03:48Z</time>
      </trkpt>
      <trkpt lat="43.86997" lon="7.22609">
        <ele>435.93295288086</ele>
        <time>2012-03-18T09:03:54Z</time>
      </trkpt>
      <trkpt lat="43.86995" lon="7.22609">
        <ele>435.85052490234</ele>
        <time>2012-03-18T09:03:56Z</time>
      </trkpt>
      <trkpt lat="43.86987" lon="7.22611">
        <ele>437.04501342773</ele>
        <time>2012-03-18T09:04:05Z</time>
      </trkpt>
      <trkpt lat="43.86981" lon="7.22613">
        <ele>437.67059326172</ele>
        <time>2012-03-18T09:04:11Z</time>
      </trkpt>
      <trkpt lat="43.86975" lon="7.22615">
        <ele>438.36767578125</ele>
        <time>2012-03-18T09:04:17Z</time>
      </trkpt>
      <trkpt lat="43.86974" lon="7.22615">
        <ele>438.50909423828</ele>
        <time>2012-03-18T09:04:18Z</time>
      </trkpt>
      <trkpt lat="43.86968" lon="7.22618">
        <ele>439.5530090332</ele>
        <time>2012-03-18T09:04:26Z</time>
      </trkpt>
      <trkpt lat="43.86961" lon="7.22619">
        <ele>440.11190795898</ele>
        <time>2012-03-18T09:04:33Z</time>
      </trkpt>
      <trkpt lat="43.86955" lon="7.22622">
        <ele>441.60473632812</ele>
        <time>2012-03-18T09:04:42Z</time>
      </trkpt>
      <trkpt lat="43.8695" lon="7.22625">
        <ele>442.7880859375</ele>
        <time>2012-03-18T09:04:48Z</time>
      </trkpt>
      <trkpt lat="43.86948" lon="7.22625">
        <ele>442.97451782227</ele>
        <time>2012-03-18T09:04:54Z</time>
      </trkpt>
      <trkpt lat="43.86939" lon="7.22627">
        <ele>442.69494628906</ele>
        <time>2012-03-18T09:05:00Z</time>
      </trkpt>
      <trkpt lat="43.86935" lon="7.22631">
        <ele>443.49975585938</ele>
        <time>2012-03-18T09:05:05Z</time>
      </trkpt>
      <trkpt lat="43.86932" lon="7.22632">
        <ele>443.41647338867</ele>
        <time>2012-03-18T09:05:10Z</time>
      </trkpt>
      <trkpt lat="43.86929" lon="7.22635">
        <ele>444.3186340332</ele>
        <time>2012-03-18T09:05:16Z</time>
      </trkpt>
      <trkpt lat="43.86923" lon="7.22641">
        <ele>445.73004150391</ele>
        <time>2012-03-18T09:05:21Z</time>
      </trkpt>
      <trkpt lat="43.86921" lon="7.22643">
        <ele>446.49896240234</ele>
        <time>2012-03-18T09:05:23Z</time>
      </trkpt>
      <trkpt lat="43.86911" lon="7.22653">
        <ele>450.01559448242</ele>
        <time>2012-03-18T09:05:30Z</time>
      </trkpt>
      <trkpt lat="43.86905" lon="7.22659">
        <ele>451.65969848633</ele>
        <time>2012-03-18T09:05:34Z</time>
      </trkpt>
      <trkpt lat="43.86904" lon="7.22662">
        <ele>453.00137329102</ele>
        <time>2012-03-18T09:05:36Z</time>
      </trkpt>
      <trkpt lat="43.86903" lon="7.22664">
        <ele>453.44540405273</ele>
        <time>2012-03-18T09:05:38Z</time>
      </trkpt>
      <trkpt lat="43.86899" lon="7.2267">
        <ele>455.16333007812</ele>
        <time>2012-03-18T09:05:43Z</time>
      </trkpt>
      <trkpt lat="43.86896" lon="7.22672">
        <ele>455.3190612793</ele>
        <time>2012-03-18T09:05:48Z</time>
      </trkpt>
      <trkpt lat="43.86893" lon="7.22675">
        <ele>455.43981933594</ele>
        <time>2012-03-18T09:05:55Z</time>
      </trkpt>
      <trkpt lat="43.8689" lon="7.2268">
        <ele>457.66107177734</ele>
        <time>2012-03-18T09:06:01Z</time>
      </trkpt>
      <trkpt lat="43.86885" lon="7.22684">
        <ele>458.31735229492</ele>
        <time>2012-03-18T09:06:07Z</time>
      </trkpt>
      <trkpt lat="43.86881" lon="7.22688">
        <ele>458.52496337891</ele>
        <time>2012-03-18T09:06:13Z</time>
      </trkpt>
      <trkpt lat="43.86874" lon="7.22692">
        <ele>458.38415527344</ele>
        <time>2012-03-18T09:06:21Z</time>
      </trkpt>
      <trkpt lat="43.86869" lon="7.22696">
        <ele>458.59170532227</ele>
        <time>2012-03-18T09:06:28Z</time>
      </trkpt>
      <trkpt lat="43.86866" lon="7.22697">
        <ele>458.00857543945</ele>
        <time>2012-03-18T09:06:34Z</time>
      </trkpt>
      <trkpt lat="43.8686" lon="7.22705">
        <ele>459.09533691406</ele>
        <time>2012-03-18T09:06:41Z</time>
      </trkpt>
      <trkpt lat="43.86859" lon="7.22706">
        <ele>459.48931884766</ele>
        <time>2012-03-18T09:06:42Z</time>
      </trkpt>
      <trkpt lat="43.86854" lon="7.22719">
        <ele>463.47143554688</ele>
        <time>2012-03-18T09:06:49Z</time>
      </trkpt>
      <trkpt lat="43.86855" lon="7.22722">
        <ele>464.63873291016</ele>
        <time>2012-03-18T09:06:51Z</time>
      </trkpt>
      <trkpt lat="43.86855" lon="7.22736">
        <ele>469.26431274414</ele>
        <time>2012-03-18T09:06:57Z</time>
      </trkpt>
      <trkpt lat="43.86854" lon="7.2274">
        <ele>470.35214233398</ele>
        <time>2012-03-18T09:06:59Z</time>
      </trkpt>
      <trkpt lat="43.86847" lon="7.22751">
        <ele>471.74301147461</ele>
        <time>2012-03-18T09:07:05Z</time>
      </trkpt>
      <trkpt lat="43.86833" lon="7.22758">
        <ele>470.71005249023</ele>
        <time>2012-03-18T09:07:16Z</time>
      </trkpt>
      <trkpt lat="43.86829" lon="7.22769">
        <ele>474.27798461914</ele>
        <time>2012-03-18T09:07:22Z</time>
      </trkpt>
      <trkpt lat="43.86823" lon="7.2278">
        <ele>477.3176574707</ele>
        <time>2012-03-18T09:07:28Z</time>
      </trkpt>
      <trkpt lat="43.86817" lon="7.22787">
        <ele>477.80255126953</ele>
        <time>2012-03-18T09:07:33Z</time>
      </trkpt>
      <trkpt lat="43.86816" lon="7.22791">
        <ele>479.16952514648</ele>
        <time>2012-03-18T09:07:35Z</time>
      </trkpt>
      <trkpt lat="43.86816" lon="7.22796">
        <ele>481.3352355957</ele>
        <time>2012-03-18T09:07:38Z</time>
      </trkpt>
      <trkpt lat="43.86815" lon="7.22797">
        <ele>481.50894165039</ele>
        <time>2012-03-18T09:07:42Z</time>
      </trkpt>
      <trkpt lat="43.86809" lon="7.22806">
        <ele>483.71157836914</ele>
        <time>2012-03-18T09:07:48Z</time>
      </trkpt>
      <trkpt lat="43.86801" lon="7.22814">
        <ele>485.87072753906</ele>
        <time>2012-03-18T09:07:56Z</time>
      </trkpt>
      <trkpt lat="43.868" lon="7.22814">
        <ele>485.70748901367</ele>
        <time>2012-03-18T09:07:57Z</time>
      </trkpt>
      <trkpt lat="43.86792" lon="7.22821">
        <ele>487.18563842773</ele>
        <time>2012-03-18T09:08:06Z</time>
      </trkpt>
      <trkpt lat="43.86785" lon="7.22822">
        <ele>486.67956542969</ele>
        <time>2012-03-18T09:08:12Z</time>
      </trkpt>
      <trkpt lat="43.86777" lon="7.22821">
        <ele>485.50216674805</ele>
        <time>2012-03-18T09:08:18Z</time>
      </trkpt>
      <trkpt lat="43.86774" lon="7.22819">
        <ele>484.52557373047</ele>
        <time>2012-03-18T09:08:21Z</time>
      </trkpt>
      <trkpt lat="43.86764" lon="7.22823">
        <ele>485.25286865234</ele>
        <time>2012-03-18T09:08:29Z</time>
      </trkpt>
      <trkpt lat="43.86752" lon="7.22827">
        <ele>485.57388305664</ele>
        <time>2012-03-18T09:08:38Z</time>
      </trkpt>
      <trkpt lat="43.86739" lon="7.22834">
        <ele>488.62716674805</ele>
        <time>2012-03-18T09:08:46Z</time>
      </trkpt>
      <trkpt lat="43.86729" lon="7.22843">
        <ele>492.00210571289</ele>
        <time>2012-03-18T09:08:54Z</time>
      </trkpt>
      <trkpt lat="43.8672" lon="7.22846">
        <ele>493.69497680664</ele>
        <time>2012-03-18T09:09:01Z</time>
      </trkpt>
      <trkpt lat="43.86714" lon="7.22846">
        <ele>494.72494506836</ele>
        <time>2012-03-18T09:09:04Z</time>
      </trkpt>
      <trkpt lat="43.86702" lon="7.22832">
        <ele>496.1130065918</ele>
        <time>2012-03-18T09:09:12Z</time>
      </trkpt>
      <trkpt lat="43.86692" lon="7.22823">
        <ele>498.64697265625</ele>
        <time>2012-03-18T09:09:18Z</time>
      </trkpt>
      <trkpt lat="43.86683" lon="7.22819">
        <ele>500.57186889648</ele>
        <time>2012-03-18T09:09:23Z</time>
      </trkpt>
      <trkpt lat="43.86676" lon="7.22824">
        <ele>500.76574707031</ele>
        <time>2012-03-18T09:09:27Z</time>
      </trkpt>
      <trkpt lat="43.86662" lon="7.22832">
        <ele>501.31768798828</ele>
        <time>2012-03-18T09:09:34Z</time>
      </trkpt>
      <trkpt lat="43.86649" lon="7.22842">
        <ele>505.0569152832</ele>
        <time>2012-03-18T09:09:41Z</time>
      </trkpt>
      <trkpt lat="43.86636" lon="7.22851">
        <ele>506.45590209961</ele>
        <time>2012-03-18T09:09:49Z</time>
      </trkpt>
      <trkpt lat="43.86626" lon="7.22861">
        <ele>507.56149291992</ele>
        <time>2012-03-18T09:09:57Z</time>
      </trkpt>
      <trkpt lat="43.86618" lon="7.22869">
        <ele>511.00527954102</ele>
        <time>2012-03-18T09:10:05Z</time>
      </trkpt>
      <trkpt lat="43.86617" lon="7.2287">
        <ele>511.4485168457</ele>
        <time>2012-03-18T09:10:11Z</time>
      </trkpt>
      <trkpt lat="43.86616" lon="7.22873">
        <ele>511.71313476562</ele>
        <time>2012-03-18T09:10:18Z</time>
      </trkpt>
      <trkpt lat="43.86616" lon="7.22877">
        <ele>511.80239868164</ele>
        <time>2012-03-18T09:10:25Z</time>
      </trkpt>
      <trkpt lat="43.86618" lon="7.22882">
        <ele>511.12780761719</ele>
        <time>2012-03-18T09:10:31Z</time>
      </trkpt>
      <trkpt lat="43.86617" lon="7.22888">
        <ele>511.22723388672</ele>
        <time>2012-03-18T09:11:02Z</time>
      </trkpt>
      <trkpt lat="43.86616" lon="7.22889">
        <ele>511.55358886719</ele>
        <time>2012-03-18T09:11:09Z</time>
      </trkpt>
      <trkpt lat="43.86615" lon="7.22889">
        <ele>511.78344726562</ele>
        <time>2012-03-18T09:11:25Z</time>
      </trkpt>
      <trkpt lat="43.86612" lon="7.22889">
        <ele>512.87768554688</ele>
        <time>2012-03-18T09:11:39Z</time>
      </trkpt>
      <trkpt lat="43.86611" lon="7.2289">
        <ele>513.13366699219</ele>
        <time>2012-03-18T09:11:43Z</time>
      </trkpt>
      <trkpt lat="43.86612" lon="7.22896">
        <ele>513.23889160156</ele>
        <time>2012-03-18T09:12:32Z</time>
      </trkpt>
      <trkpt lat="43.86613" lon="7.22894">
        <ele>512.73498535156</ele>
        <time>2012-03-18T09:12:47Z</time>
      </trkpt>
      <trkpt lat="43.86613" lon="7.22894">
        <ele>512.86956787109</ele>
        <time>2012-03-18T09:13:03Z</time>
      </trkpt>
      <trkpt lat="43.86612" lon="7.22898">
        <ele>513.34167480469</ele>
        <time>2012-03-18T09:13:22Z</time>
      </trkpt>
      <trkpt lat="43.86612" lon="7.22896">
        <ele>513.41870117188</ele>
        <time>2012-03-18T09:13:39Z</time>
      </trkpt>
      <trkpt lat="43.86612" lon="7.229">
        <ele>513.67578125</ele>
        <time>2012-03-18T09:13:44Z</time>
      </trkpt>
      <trkpt lat="43.86615" lon="7.22902">
        <ele>513.15289306641</ele>
        <time>2012-03-18T09:13:51Z</time>
      </trkpt>
      <trkpt lat="43.86618" lon="7.22899">
        <ele>512.1533203125</ele>
        <time>2012-03-18T09:13:58Z</time>
      </trkpt>
      <trkpt lat="43.86624" lon="7.22895">
        <ele>510.32675170898</ele>
        <time>2012-03-18T09:14:06Z</time>
      </trkpt>
      <trkpt lat="43.86626" lon="7.22892">
        <ele>509.27001953125</ele>
        <time>2012-03-18T09:14:11Z</time>
      </trkpt>
      <trkpt lat="43.86632" lon="7.22892">
        <ele>507.48751831055</ele>
        <time>2012-03-18T09:14:18Z</time>
      </trkpt>
      <trkpt lat="43.86637" lon="7.2289">
        <ele>505.82727050781</ele>
        <time>2012-03-18T09:14:25Z</time>
      </trkpt>
      <trkpt lat="43.86639" lon="7.22888">
        <ele>504.88970947266</ele>
        <time>2012-03-18T09:14:30Z</time>
      </trkpt>
      <trkpt lat="43.86651" lon="7.22888">
        <ele>502.80032348633</ele>
        <time>2012-03-18T09:14:38Z</time>
      </trkpt>
      <trkpt lat="43.8666" lon="7.22891">
        <ele>502.63717651367</ele>
        <time>2012-03-18T09:14:44Z</time>
      </trkpt>
      <trkpt lat="43.86672" lon="7.22898">
        <ele>507.28118896484</ele>
        <time>2012-03-18T09:14:54Z</time>
      </trkpt>
      <trkpt lat="43.86674" lon="7.22903">
        <ele>510.96752929688</ele>
        <time>2012-03-18T09:14:58Z</time>
      </trkpt>
      <trkpt lat="43.86679" lon="7.22914">
        <ele>519.29919433594</ele>
        <time>2012-03-18T09:15:05Z</time>
      </trkpt>
      <trkpt lat="43.86679" lon="7.22915">
        <ele>520.04833984375</ele>
        <time>2012-03-18T09:15:06Z</time>
      </trkpt>
      <trkpt lat="43.86686" lon="7.22927">
        <ele>526.02728271484</ele>
        <time>2012-03-18T09:15:14Z</time>
      </trkpt>
      <trkpt lat="43.86689" lon="7.22931">
        <ele>527.90612792969</ele>
        <time>2012-03-18T09:15:17Z</time>
      </trkpt>
      <trkpt lat="43.86698" lon="7.22943">
        <ele>533.57012939453</ele>
        <time>2012-03-18T09:15:23Z</time>
      </trkpt>
      <trkpt lat="43.86704" lon="7.22944">
        <ele>533.81481933594</ele>
        <time>2012-03-18T09:15:27Z</time>
      </trkpt>
      <trkpt lat="43.86708" lon="7.22941">
        <ele>532.00891113281</ele>
        <time>2012-03-18T09:15:31Z</time>
      </trkpt>
      <trkpt lat="43.86719" lon="7.22928">
        <ele>524.03924560547</ele>
        <time>2012-03-18T09:15:41Z</time>
      </trkpt>
      <trkpt lat="43.86725" lon="7.22923">
        <ele>521.41833496094</ele>
        <time>2012-03-18T09:15:46Z</time>
      </trkpt>
      <trkpt lat="43.86732" lon="7.2292">
        <ele>520.37463378906</ele>
        <time>2012-03-18T09:15:52Z</time>
      </trkpt>
      <trkpt lat="43.86739" lon="7.2292">
        <ele>520.6201171875</ele>
        <time>2012-03-18T09:15:57Z</time>
      </trkpt>
      <trkpt lat="43.86744" lon="7.22923">
        <ele>523.43707275391</ele>
        <time>2012-03-18T09:16:01Z</time>
      </trkpt>
      <trkpt lat="43.86747" lon="7.22925">
        <ele>524.78289794922</ele>
        <time>2012-03-18T09:16:05Z</time>
      </trkpt>
      <trkpt lat="43.86753" lon="7.22922">
        <ele>523.93835449219</ele>
        <time>2012-03-18T09:16:13Z</time>
      </trkpt>
      <trkpt lat="43.86759" lon="7.2292">
        <ele>523.45770263672</ele>
        <time>2012-03-18T09:16:18Z</time>
      </trkpt>
      <trkpt lat="43.86767" lon="7.2292">
        <ele>525.19683837891</ele>
        <time>2012-03-18T09:16:24Z</time>
      </trkpt>
      <trkpt lat="43.86777" lon="7.22915">
        <ele>524.36169433594</ele>
        <time>2012-03-18T09:16:30Z</time>
      </trkpt>
      <trkpt lat="43.86787" lon="7.2292">
        <ele>527.25427246094</ele>
        <time>2012-03-18T09:16:36Z</time>
      </trkpt>
      <trkpt lat="43.86795" lon="7.22923">
        <ele>529.91674804688</ele>
        <time>2012-03-18T09:16:41Z</time>
      </trkpt>
      <trkpt lat="43.86803" lon="7.22928">
        <ele>532.76116943359</ele>
        <time>2012-03-18T09:16:47Z</time>
      </trkpt>
      <trkpt lat="43.86809" lon="7.22929">
        <ele>534.50677490234</ele>
        <time>2012-03-18T09:16:54Z</time>
      </trkpt>
      <trkpt lat="43.86813" lon="7.22926">
        <ele>533.38787841797</ele>
        <time>2012-03-18T09:17:02Z</time>
      </trkpt>
      <trkpt lat="43.86817" lon="7.22928">
        <ele>535.45733642578</ele>
        <time>2012-03-18T09:17:07Z</time>
      </trkpt>
      <trkpt lat="43.86824" lon="7.22928">
        <ele>536.68591308594</ele>
        <time>2012-03-18T09:17:12Z</time>
      </trkpt>
      <trkpt lat="43.86834" lon="7.22928">
        <ele>538.51171875</ele>
        <time>2012-03-18T09:17:20Z</time>
      </trkpt>
      <trkpt lat="43.86836" lon="7.22929">
        <ele>538.95098876953</ele>
        <time>2012-03-18T09:17:23Z</time>
      </trkpt>
      <trkpt lat="43.86842" lon="7.22925">
        <ele>537.83227539062</ele>
        <time>2012-03-18T09:17:29Z</time>
      </trkpt>
      <trkpt lat="43.86852" lon="7.2292">
        <ele>536.79815673828</ele>
        <time>2012-03-18T09:17:37Z</time>
      </trkpt>
      <trkpt lat="43.86861" lon="7.2292">
        <ele>537.56994628906</ele>
        <time>2012-03-18T09:17:42Z</time>
      </trkpt>
      <trkpt lat="43.86862" lon="7.2292">
        <ele>537.53076171875</ele>
        <time>2012-03-18T09:17:43Z</time>
      </trkpt>
      <trkpt lat="43.86869" lon="7.22919">
        <ele>538.46014404297</ele>
        <time>2012-03-18T09:17:50Z</time>
      </trkpt>
      <trkpt lat="43.86873" lon="7.22922">
        <ele>540.20751953125</ele>
        <time>2012-03-18T09:17:54Z</time>
      </trkpt>
      <trkpt lat="43.86877" lon="7.22922">
        <ele>540.92248535156</ele>
        <time>2012-03-18T09:18:00Z</time>
      </trkpt>
      <trkpt lat="43.86885" lon="7.22925">
        <ele>543.4794921875</ele>
        <time>2012-03-18T09:18:07Z</time>
      </trkpt>
      <trkpt lat="43.8689" lon="7.22929">
        <ele>546.20544433594</ele>
        <time>2012-03-18T09:18:13Z</time>
      </trkpt>
      <trkpt lat="43.86899" lon="7.22931">
        <ele>549.88641357422</ele>
        <time>2012-03-18T09:18:18Z</time>
      </trkpt>
      <trkpt lat="43.86909" lon="7.2293">
        <ele>552.53643798828</ele>
        <time>2012-03-18T09:18:24Z</time>
      </trkpt>
      <trkpt lat="43.86915" lon="7.22927">
        <ele>553.75732421875</ele>
        <time>2012-03-18T09:18:29Z</time>
      </trkpt>
      <trkpt lat="43.86922" lon="7.22927">
        <ele>555.85626220703</ele>
        <time>2012-03-18T09:18:35Z</time>
      </trkpt>
      <trkpt lat="43.86922" lon="7.22928">
        <ele>556.21905517578</ele>
        <time>2012-03-18T09:18:40Z</time>
      </trkpt>
      <trkpt lat="43.86927" lon="7.2293">
        <ele>558.52508544922</ele>
        <time>2012-03-18T09:18:46Z</time>
      </trkpt>
      <trkpt lat="43.8693" lon="7.22929">
        <ele>559.14129638672</ele>
        <time>2012-03-18T09:18:49Z</time>
      </trkpt>
      <trkpt lat="43.86941" lon="7.22919">
        <ele>559.41052246094</ele>
        <time>2012-03-18T09:18:57Z</time>
      </trkpt>
      <trkpt lat="43.86948" lon="7.22907">
        <ele>556.39111328125</ele>
        <time>2012-03-18T09:19:04Z</time>
      </trkpt>
      <trkpt lat="43.86958" lon="7.22905">
        <ele>555.22601318359</ele>
        <time>2012-03-18T09:19:11Z</time>
      </trkpt>
      <trkpt lat="43.86959" lon="7.22906">
        <ele>555.42315673828</ele>
        <time>2012-03-18T09:19:12Z</time>
      </trkpt>
      <trkpt lat="43.86958" lon="7.22917">
        <ele>559.17541503906</ele>
        <time>2012-03-18T09:19:18Z</time>
      </trkpt>
      <trkpt lat="43.86956" lon="7.2292">
        <ele>560.24658203125</ele>
        <time>2012-03-18T09:19:20Z</time>
      </trkpt>
      <trkpt lat="43.86953" lon="7.22927">
        <ele>562.37518310547</ele>
        <time>2012-03-18T09:19:24Z</time>
      </trkpt>
      <trkpt lat="43.86951" lon="7.2294">
        <ele>566.09680175781</ele>
        <time>2012-03-18T09:19:30Z</time>
      </trkpt>
      <trkpt lat="43.86946" lon="7.22953">
        <ele>569.69958496094</ele>
        <time>2012-03-18T09:19:37Z</time>
      </trkpt>
      <trkpt lat="43.86945" lon="7.22955">
        <ele>570.21472167969</ele>
        <time>2012-03-18T09:19:38Z</time>
      </trkpt>
      <trkpt lat="43.86935" lon="7.22961">
        <ele>569.71484375</ele>
        <time>2012-03-18T09:19:45Z</time>
      </trkpt>
      <trkpt lat="43.86926" lon="7.22959">
        <ele>567.44165039062</ele>
        <time>2012-03-18T09:19:48Z</time>
      </trkpt>
      <trkpt lat="43.86913" lon="7.22962">
        <ele>565.79595947266</ele>
        <time>2012-03-18T09:19:53Z</time>
      </trkpt>
      <trkpt lat="43.869" lon="7.22964">
        <ele>563.74395751953</ele>
        <time>2012-03-18T09:19:57Z</time>
      </trkpt>
      <trkpt lat="43.86889" lon="7.22963">
        <ele>560.99475097656</ele>
        <time>2012-03-18T09:20:02Z</time>
      </trkpt>
      <trkpt lat="43.86881" lon="7.22965">
        <ele>560.95355224609</ele>
        <time>2012-03-18T09:20:07Z</time>
      </trkpt>
      <trkpt lat="43.86869" lon="7.22968">
        <ele>561.22131347656</ele>
        <time>2012-03-18T09:20:14Z</time>
      </trkpt>
      <trkpt lat="43.86864" lon="7.22971">
        <ele>561.69512939453</ele>
        <time>2012-03-18T09:20:17Z</time>
      </trkpt>
      <trkpt lat="43.86852" lon="7.22977">
        <ele>562.30047607422</ele>
        <time>2012-03-18T09:20:24Z</time>
      </trkpt>
      <trkpt lat="43.86843" lon="7.22981">
        <ele>561.83270263672</ele>
        <time>2012-03-18T09:20:29Z</time>
      </trkpt>
      <trkpt lat="43.86835" lon="7.22984">
        <ele>561.48211669922</ele>
        <time>2012-03-18T09:20:34Z</time>
      </trkpt>
      <trkpt lat="43.86824" lon="7.22993">
        <ele>563.90673828125</ele>
        <time>2012-03-18T09:20:40Z</time>
      </trkpt>
      <trkpt lat="43.86813" lon="7.22995">
        <ele>563.63897705078</ele>
        <time>2012-03-18T09:20:46Z</time>
      </trkpt>
      <trkpt lat="43.86802" lon="7.22996">
        <ele>562.77349853516</ele>
        <time>2012-03-18T09:20:52Z</time>
      </trkpt>
      <trkpt lat="43.86795" lon="7.22999">
        <ele>563.36602783203</ele>
        <time>2012-03-18T09:20:57Z</time>
      </trkpt>
      <trkpt lat="43.86783" lon="7.23006">
        <ele>565.35791015625</ele>
        <time>2012-03-18T09:21:04Z</time>
      </trkpt>
      <trkpt lat="43.86777" lon="7.23011">
        <ele>567.18200683594</ele>
        <time>2012-03-18T09:21:09Z</time>
      </trkpt>
      <trkpt lat="43.86775" lon="7.23017">
        <ele>569.32550048828</ele>
        <time>2012-03-18T09:21:12Z</time>
      </trkpt>
      <trkpt lat="43.86764" lon="7.23029">
        <ele>572.08245849609</ele>
        <time>2012-03-18T09:21:20Z</time>
      </trkpt>
      <trkpt lat="43.86757" lon="7.23037">
        <ele>574.06109619141</ele>
        <time>2012-03-18T09:21:26Z</time>
      </trkpt>
      <trkpt lat="43.86749" lon="7.23047">
        <ele>577.63305664062</ele>
        <time>2012-03-18T09:21:33Z</time>
      </trkpt>
      <trkpt lat="43.86742" lon="7.23056">
        <ele>581.08905029297</ele>
        <time>2012-03-18T09:21:39Z</time>
      </trkpt>
      <trkpt lat="43.86733" lon="7.23066">
        <ele>583.44165039062</ele>
        <time>2012-03-18T09:21:47Z</time>
      </trkpt>
      <trkpt lat="43.8673" lon="7.2307">
        <ele>584.63903808594</ele>
        <time>2012-03-18T09:21:50Z</time>
      </trkpt>
      <trkpt lat="43.86722" lon="7.23077">
        <ele>585.484375</ele>
        <time>2012-03-18T09:21:56Z</time>
      </trkpt>
      <trkpt lat="43.8672" lon="7.23078">
        <ele>585.63311767578</ele>
        <time>2012-03-18T09:21:57Z</time>
      </trkpt>
      <trkpt lat="43.86709" lon="7.23084">
        <ele>585.00823974609</ele>
        <time>2012-03-18T09:22:02Z</time>
      </trkpt>
      <trkpt lat="43.86697" lon="7.2309">
        <ele>583.41754150391</ele>
        <time>2012-03-18T09:22:08Z</time>
      </trkpt>
      <trkpt lat="43.86687" lon="7.23096">
        <ele>582.90417480469</ele>
        <time>2012-03-18T09:22:14Z</time>
      </trkpt>
      <trkpt lat="43.86681" lon="7.23103">
        <ele>583.29534912109</ele>
        <time>2012-03-18T09:22:19Z</time>
      </trkpt>
      <trkpt lat="43.8668" lon="7.23106">
        <ele>583.85540771484</ele>
        <time>2012-03-18T09:22:21Z</time>
      </trkpt>
      <trkpt lat="43.86679" lon="7.23107">
        <ele>584.03088378906</ele>
        <time>2012-03-18T09:22:30Z</time>
      </trkpt>
      <trkpt lat="43.86675" lon="7.23106">
        <ele>582.72833251953</ele>
        <time>2012-03-18T09:24:02Z</time>
      </trkpt>
      <trkpt lat="43.86671" lon="7.23108">
        <ele>582.45220947266</ele>
        <time>2012-03-18T09:24:18Z</time>
      </trkpt>
      <trkpt lat="43.86663" lon="7.23132">
        <ele>583.95617675781</ele>
        <time>2012-03-18T09:24:24Z</time>
      </trkpt>
      <trkpt lat="43.86658" lon="7.23148">
        <ele>585.20642089844</ele>
        <time>2012-03-18T09:24:29Z</time>
      </trkpt>
      <trkpt lat="43.86651" lon="7.23161">
        <ele>585.0107421875</ele>
        <time>2012-03-18T09:24:34Z</time>
      </trkpt>
      <trkpt lat="43.86644" lon="7.23178">
        <ele>585.12780761719</ele>
        <time>2012-03-18T09:24:39Z</time>
      </trkpt>
      <trkpt lat="43.86637" lon="7.23189">
        <ele>584.83264160156</ele>
        <time>2012-03-18T09:24:43Z</time>
      </trkpt>
      <trkpt lat="43.86629" lon="7.232">
        <ele>585.67126464844</ele>
        <time>2012-03-18T09:24:48Z</time>
      </trkpt>
      <trkpt lat="43.86623" lon="7.23209">
        <ele>587.14349365234</ele>
        <time>2012-03-18T09:24:52Z</time>
      </trkpt>
      <trkpt lat="43.86621" lon="7.23214">
        <ele>588.34771728516</ele>
        <time>2012-03-18T09:24:54Z</time>
      </trkpt>
      <trkpt lat="43.8662" lon="7.23216">
        <ele>588.80480957031</ele>
        <time>2012-03-18T09:24:56Z</time>
      </trkpt>
      <trkpt lat="43.86617" lon="7.23217">
        <ele>588.81005859375</ele>
        <time>2012-03-18T09:25:01Z</time>
      </trkpt>
      <trkpt lat="43.86609" lon="7.23215">
        <ele>588.26373291016</ele>
        <time>2012-03-18T09:25:07Z</time>
      </trkpt>
      <trkpt lat="43.86601" lon="7.23212">
        <ele>589.23602294922</ele>
        <time>2012-03-18T09:25:11Z</time>
      </trkpt>
      <trkpt lat="43.86593" lon="7.23211">
        <ele>591.38244628906</ele>
        <time>2012-03-18T09:25:16Z</time>
      </trkpt>
      <trkpt lat="43.8659" lon="7.23212">
        <ele>592.35241699219</ele>
        <time>2012-03-18T09:25:18Z</time>
      </trkpt>
      <trkpt lat="43.86579" lon="7.23215">
        <ele>596.84234619141</ele>
        <time>2012-03-18T09:25:26Z</time>
      </trkpt>
      <trkpt lat="43.86565" lon="7.23218">
        <ele>602.126953125</ele>
        <time>2012-03-18T09:25:35Z</time>
      </trkpt>
      <trkpt lat="43.86555" lon="7.23222">
        <ele>605.90490722656</ele>
        <time>2012-03-18T09:25:42Z</time>
      </trkpt>
      <trkpt lat="43.86551" lon="7.23224">
        <ele>605.87707519531</ele>
        <time>2012-03-18T09:25:46Z</time>
      </trkpt>
      <trkpt lat="43.86547" lon="7.23226">
        <ele>605.87750244141</ele>
        <time>2012-03-18T09:25:53Z</time>
      </trkpt>
      <trkpt lat="43.86544" lon="7.23231">
        <ele>606.18139648438</ele>
        <time>2012-03-18T09:25:58Z</time>
      </trkpt>
      <trkpt lat="43.86551" lon="7.23235">
        <ele>607.41473388672</ele>
        <time>2012-03-18T09:26:06Z</time>
      </trkpt>
      <trkpt lat="43.86555" lon="7.2324">
        <ele>608.55975341797</ele>
        <time>2012-03-18T09:26:13Z</time>
      </trkpt>
      <trkpt lat="43.8656" lon="7.23244">
        <ele>608.14276123047</ele>
        <time>2012-03-18T09:26:21Z</time>
      </trkpt>
      <trkpt lat="43.86565" lon="7.23247">
        <ele>607.76837158203</ele>
        <time>2012-03-18T09:26:27Z</time>
      </trkpt>
      <trkpt lat="43.86569" lon="7.23255">
        <ele>608.90106201172</ele>
        <time>2012-03-18T09:26:36Z</time>
      </trkpt>
      <trkpt lat="43.86569" lon="7.23259">
        <ele>610.08428955078</ele>
        <time>2012-03-18T09:26:43Z</time>
      </trkpt>
      <trkpt lat="43.86572" lon="7.23265">
        <ele>611.201171875</ele>
        <time>2012-03-18T09:26:50Z</time>
      </trkpt>
      <trkpt lat="43.86576" lon="7.23271">
        <ele>612.62164306641</ele>
        <time>2012-03-18T09:26:58Z</time>
      </trkpt>
      <trkpt lat="43.8658" lon="7.23275">
        <ele>613.26696777344</ele>
        <time>2012-03-18T09:27:06Z</time>
      </trkpt>
      <trkpt lat="43.86585" lon="7.2328">
        <ele>614.34893798828</ele>
        <time>2012-03-18T09:27:14Z</time>
      </trkpt>
      <trkpt lat="43.8659" lon="7.23284">
        <ele>615.11645507812</ele>
        <time>2012-03-18T09:27:23Z</time>
      </trkpt>
      <trkpt lat="43.86594" lon="7.23287">
        <ele>615.76696777344</ele>
        <time>2012-03-18T09:27:31Z</time>
      </trkpt>
      <trkpt lat="43.866" lon="7.23292">
        <ele>617.35516357422</ele>
        <time>2012-03-18T09:27:40Z</time>
      </trkpt>
      <trkpt lat="43.86604" lon="7.23297">
        <ele>618.76745605469</ele>
        <time>2012-03-18T09:27:48Z</time>
      </trkpt>
      <trkpt lat="43.86606" lon="7.233">
        <ele>620.04974365234</ele>
        <time>2012-03-18T09:27:54Z</time>
      </trkpt>
      <trkpt lat="43.8661" lon="7.23303">
        <ele>620.81994628906</ele>
        <time>2012-03-18T09:28:01Z</time>
      </trkpt>
      <trkpt lat="43.86616" lon="7.23304">
        <ele>621.54083251953</ele>
        <time>2012-03-18T09:28:09Z</time>
      </trkpt>
      <trkpt lat="43.86612" lon="7.23306">
        <ele>622.05346679688</ele>
        <time>2012-03-18T09:28:16Z</time>
      </trkpt>
      <trkpt lat="43.8661" lon="7.23307">
        <ele>622.87744140625</ele>
        <time>2012-03-18T09:28:20Z</time>
      </trkpt>
      <trkpt lat="43.86613" lon="7.2331">
        <ele>624.29364013672</ele>
        <time>2012-03-18T09:28:25Z</time>
      </trkpt>
      <trkpt lat="43.86619" lon="7.23311">
        <ele>624.83435058594</ele>
        <time>2012-03-18T09:28:32Z</time>
      </trkpt>
      <trkpt lat="43.86623" lon="7.23313">
        <ele>625.94158935547</ele>
        <time>2012-03-18T09:28:39Z</time>
      </trkpt>
      <trkpt lat="43.8663" lon="7.23314">
        <ele>626.79132080078</ele>
        <time>2012-03-18T09:28:47Z</time>
      </trkpt>
      <trkpt lat="43.86637" lon="7.23316">
        <ele>627.56378173828</ele>
        <time>2012-03-18T09:28:53Z</time>
      </trkpt>
      <trkpt lat="43.86646" lon="7.23313">
        <ele>627.96392822266</ele>
        <time>2012-03-18T09:29:00Z</time>
      </trkpt>
      <trkpt lat="43.86654" lon="7.23311">
        <ele>629.89416503906</ele>
        <time>2012-03-18T09:29:07Z</time>
      </trkpt>
      <trkpt lat="43.86663" lon="7.23309">
        <ele>631.87042236328</ele>
        <time>2012-03-18T09:29:16Z</time>
      </trkpt>
      <trkpt lat="43.86669" lon="7.23306">
        <ele>633.22216796875</ele>
        <time>2012-03-18T09:29:25Z</time>
      </trkpt>
      <trkpt lat="43.86675" lon="7.23305">
        <ele>635.26666259766</ele>
        <time>2012-03-18T09:29:34Z</time>
      </trkpt>
      <trkpt lat="43.86681" lon="7.23303">
        <ele>637.22277832031</ele>
        <time>2012-03-18T09:29:43Z</time>
      </trkpt>
      <trkpt lat="43.86687" lon="7.23303">
        <ele>639.91668701172</ele>
        <time>2012-03-18T09:29:52Z</time>
      </trkpt>
      <trkpt lat="43.86692" lon="7.23303">
        <ele>641.98846435547</ele>
        <time>2012-03-18T09:30:00Z</time>
      </trkpt>
      <trkpt lat="43.86696" lon="7.233">
        <ele>642.80078125</ele>
        <time>2012-03-18T09:30:07Z</time>
      </trkpt>
      <trkpt lat="43.86701" lon="7.23295">
        <ele>643.35321044922</ele>
        <time>2012-03-18T09:30:14Z</time>
      </trkpt>
      <trkpt lat="43.86706" lon="7.23293">
        <ele>645.00433349609</ele>
        <time>2012-03-18T09:30:21Z</time>
      </trkpt>
      <trkpt lat="43.86712" lon="7.23292">
        <ele>647.56726074219</ele>
        <time>2012-03-18T09:30:30Z</time>
      </trkpt>
      <trkpt lat="43.86718" lon="7.2329">
        <ele>649.36663818359</ele>
        <time>2012-03-18T09:30:38Z</time>
      </trkpt>
      <trkpt lat="43.86723" lon="7.23287">
        <ele>651.03076171875</ele>
        <time>2012-03-18T09:30:47Z</time>
      </trkpt>
      <trkpt lat="43.8673" lon="7.23286">
        <ele>652.76159667969</ele>
        <time>2012-03-18T09:30:57Z</time>
      </trkpt>
      <trkpt lat="43.86733" lon="7.23285">
        <ele>653.59069824219</ele>
        <time>2012-03-18T09:31:03Z</time>
      </trkpt>
      <trkpt lat="43.86739" lon="7.23281">
        <ele>654.56109619141</ele>
        <time>2012-03-18T09:31:10Z</time>
      </trkpt>
      <trkpt lat="43.86746" lon="7.23279">
        <ele>656.77746582031</ele>
        <time>2012-03-18T09:31:21Z</time>
      </trkpt>
      <trkpt lat="43.86749" lon="7.23281">
        <ele>658.36077880859</ele>
        <time>2012-03-18T09:31:29Z</time>
      </trkpt>
      <trkpt lat="43.86749" lon="7.23281">
        <ele>658.228515625</ele>
        <time>2012-03-18T09:31:39Z</time>
      </trkpt>
      <trkpt lat="43.86748" lon="7.2328">
        <ele>657.75854492188</ele>
        <time>2012-03-18T09:31:50Z</time>
      </trkpt>
      <trkpt lat="43.86749" lon="7.23278">
        <ele>657.70989990234</ele>
        <time>2012-03-18T09:33:16Z</time>
      </trkpt>
      <trkpt lat="43.8675" lon="7.23278">
        <ele>657.88763427734</ele>
        <time>2012-03-18T09:33:34Z</time>
      </trkpt>
      <trkpt lat="43.86753" lon="7.23282">
        <ele>659.65063476562</ele>
        <time>2012-03-18T09:33:42Z</time>
      </trkpt>
      <trkpt lat="43.86755" lon="7.23289">
        <ele>661.36553955078</ele>
        <time>2012-03-18T09:33:50Z</time>
      </trkpt>
      <trkpt lat="43.86752" lon="7.23297">
        <ele>662.08306884766</ele>
        <time>2012-03-18T09:33:57Z</time>
      </trkpt>
      <trkpt lat="43.86755" lon="7.23303">
        <ele>663.63830566406</ele>
        <time>2012-03-18T09:34:03Z</time>
      </trkpt>
      <trkpt lat="43.86758" lon="7.23307">
        <ele>665.33428955078</ele>
        <time>2012-03-18T09:34:10Z</time>
      </trkpt>
      <trkpt lat="43.86756" lon="7.23316">
        <ele>666.16979980469</ele>
        <time>2012-03-18T09:34:18Z</time>
      </trkpt>
      <trkpt lat="43.86752" lon="7.23322">
        <ele>666.33782958984</ele>
        <time>2012-03-18T09:34:26Z</time>
      </trkpt>
      <trkpt lat="43.86746" lon="7.23327">
        <ele>666.005859375</ele>
        <time>2012-03-18T09:34:32Z</time>
      </trkpt>
      <trkpt lat="43.86742" lon="7.2333">
        <ele>665.73883056641</ele>
        <time>2012-03-18T09:34:35Z</time>
      </trkpt>
      <trkpt lat="43.86742" lon="7.23339">
        <ele>667.74285888672</ele>
        <time>2012-03-18T09:34:40Z</time>
      </trkpt>
      <trkpt lat="43.8674" lon="7.23347">
        <ele>669.17504882812</ele>
        <time>2012-03-18T09:34:45Z</time>
      </trkpt>
      <trkpt lat="43.8674" lon="7.23349">
        <ele>669.33038330078</ele>
        <time>2012-03-18T09:34:46Z</time>
      </trkpt>
      <trkpt lat="43.86733" lon="7.23361">
        <ele>670.89276123047</ele>
        <time>2012-03-18T09:34:53Z</time>
      </trkpt>
      <trkpt lat="43.86728" lon="7.23369">
        <ele>672.29736328125</ele>
        <time>2012-03-18T09:34:58Z</time>
      </trkpt>
      <trkpt lat="43.86721" lon="7.23376">
        <ele>673.38940429688</ele>
        <time>2012-03-18T09:35:04Z</time>
      </trkpt>
      <trkpt lat="43.86714" lon="7.23381">
        <ele>673.68292236328</ele>
        <time>2012-03-18T09:35:09Z</time>
      </trkpt>
      <trkpt lat="43.8671" lon="7.23394">
        <ele>676.1201171875</ele>
        <time>2012-03-18T09:35:15Z</time>
      </trkpt>
      <trkpt lat="43.8671" lon="7.23396">
        <ele>676.51776123047</ele>
        <time>2012-03-18T09:35:16Z</time>
      </trkpt>
      <trkpt lat="43.86705" lon="7.23407">
        <ele>678.10522460938</ele>
        <time>2012-03-18T09:35:23Z</time>
      </trkpt>
      <trkpt lat="43.86705" lon="7.23409">
        <ele>678.48602294922</ele>
        <time>2012-03-18T09:35:24Z</time>
      </trkpt>
      <trkpt lat="43.867" lon="7.23418">
        <ele>680.02862548828</ele>
        <time>2012-03-18T09:35:30Z</time>
      </trkpt>
      <trkpt lat="43.86692" lon="7.23428">
        <ele>680.02856445312</ele>
        <time>2012-03-18T09:35:37Z</time>
      </trkpt>
      <trkpt lat="43.86691" lon="7.23432">
        <ele>680.24426269531</ele>
        <time>2012-03-18T09:35:39Z</time>
      </trkpt>
      <trkpt lat="43.86686" lon="7.23442">
        <ele>680.72424316406</ele>
        <time>2012-03-18T09:35:45Z</time>
      </trkpt>
      <trkpt lat="43.86679" lon="7.23451">
        <ele>681.46881103516</ele>
        <time>2012-03-18T09:35:51Z</time>
      </trkpt>
      <trkpt lat="43.86678" lon="7.23451">
        <ele>681.52362060547</ele>
        <time>2012-03-18T09:35:52Z</time>
      </trkpt>
      <trkpt lat="43.86671" lon="7.23452">
        <ele>681.69915771484</ele>
        <time>2012-03-18T09:35:56Z</time>
      </trkpt>
      <trkpt lat="43.8667" lon="7.23454">
        <ele>681.99426269531</ele>
        <time>2012-03-18T09:35:58Z</time>
      </trkpt>
      <trkpt lat="43.8666" lon="7.23461">
        <ele>682.796875</ele>
        <time>2012-03-18T09:36:05Z</time>
      </trkpt>
      <trkpt lat="43.86655" lon="7.23469">
        <ele>683.95617675781</ele>
        <time>2012-03-18T09:36:10Z</time>
      </trkpt>
      <trkpt lat="43.86648" lon="7.23475">
        <ele>685.15295410156</ele>
        <time>2012-03-18T09:36:16Z</time>
      </trkpt>
      <trkpt lat="43.86641" lon="7.23473">
        <ele>685.068359375</ele>
        <time>2012-03-18T09:36:21Z</time>
      </trkpt>
      <trkpt lat="43.86633" lon="7.23475">
        <ele>685.77410888672</ele>
        <time>2012-03-18T09:36:26Z</time>
      </trkpt>
      <trkpt lat="43.86631" lon="7.23476">
        <ele>686.18182373047</ele>
        <time>2012-03-18T09:36:28Z</time>
      </trkpt>
      <trkpt lat="43.86628" lon="7.23478">
        <ele>686.77435302734</ele>
        <time>2012-03-18T09:36:30Z</time>
      </trkpt>
      <trkpt lat="43.86621" lon="7.23488">
        <ele>689.45849609375</ele>
        <time>2012-03-18T09:36:36Z</time>
      </trkpt>
      <trkpt lat="43.8662" lon="7.23496">
        <ele>691.35992431641</ele>
        <time>2012-03-18T09:36:43Z</time>
      </trkpt>
      <trkpt lat="43.86617" lon="7.23505">
        <ele>693.92913818359</ele>
        <time>2012-03-18T09:37:32Z</time>
      </trkpt>
      <trkpt lat="43.86613" lon="7.2352">
        <ele>698.03186035156</ele>
        <time>2012-03-18T09:37:38Z</time>
      </trkpt>
      <trkpt lat="43.86605" lon="7.23535">
        <ele>700.05737304688</ele>
        <time>2012-03-18T09:37:42Z</time>
      </trkpt>
      <trkpt lat="43.86598" lon="7.23549">
        <ele>700.36437988281</ele>
        <time>2012-03-18T09:37:47Z</time>
      </trkpt>
      <trkpt lat="43.86597" lon="7.2356">
        <ele>700.69647216797</ele>
        <time>2012-03-18T09:37:51Z</time>
      </trkpt>
      <trkpt lat="43.86593" lon="7.23569">
        <ele>701.28424072266</ele>
        <time>2012-03-18T09:37:54Z</time>
      </trkpt>
      <trkpt lat="43.86588" lon="7.23582">
        <ele>702.37933349609</ele>
        <time>2012-03-18T09:38:00Z</time>
      </trkpt>
      <trkpt lat="43.86586" lon="7.23602">
        <ele>703.31378173828</ele>
        <time>2012-03-18T09:38:05Z</time>
      </trkpt>
      <trkpt lat="43.86589" lon="7.23622">
        <ele>703.66320800781</ele>
        <time>2012-03-18T09:38:09Z</time>
      </trkpt>
      <trkpt lat="43.86594" lon="7.23641">
        <ele>703.19561767578</ele>
        <time>2012-03-18T09:38:13Z</time>
      </trkpt>
      <trkpt lat="43.86596" lon="7.23663">
        <ele>702.38549804688</ele>
        <time>2012-03-18T09:38:17Z</time>
      </trkpt>
      <trkpt lat="43.86593" lon="7.23684">
        <ele>704.16510009766</ele>
        <time>2012-03-18T09:38:21Z</time>
      </trkpt>
      <trkpt lat="43.86589" lon="7.23702">
        <ele>706.42657470703</ele>
        <time>2012-03-18T09:38:27Z</time>
      </trkpt>
      <trkpt lat="43.86591" lon="7.2372">
        <ele>706.35107421875</ele>
        <time>2012-03-18T09:38:32Z</time>
      </trkpt>
      <trkpt lat="43.86591" lon="7.23723">
        <ele>706.49383544922</ele>
        <time>2012-03-18T09:38:35Z</time>
      </trkpt>
      <trkpt lat="43.86588" lon="7.23731">
        <ele>708.60339355469</ele>
        <time>2012-03-18T09:38:44Z</time>
      </trkpt>
      <trkpt lat="43.86584" lon="7.23736">
        <ele>710.41156005859</ele>
        <time>2012-03-18T09:38:51Z</time>
      </trkpt>
      <trkpt lat="43.86587" lon="7.2374">
        <ele>709.58410644531</ele>
        <time>2012-03-18T09:38:57Z</time>
      </trkpt>
      <trkpt lat="43.86589" lon="7.23749">
        <ele>708.8359375</ele>
        <time>2012-03-18T09:39:02Z</time>
      </trkpt>
      <trkpt lat="43.86595" lon="7.23758">
        <ele>706.34185791016</ele>
        <time>2012-03-18T09:39:10Z</time>
      </trkpt>
      <trkpt lat="43.86598" lon="7.23763">
        <ele>705.16424560547</ele>
        <time>2012-03-18T09:39:17Z</time>
      </trkpt>
      <trkpt lat="43.86602" lon="7.23779">
        <ele>703.68664550781</ele>
        <time>2012-03-18T09:39:25Z</time>
      </trkpt>
      <trkpt lat="43.86605" lon="7.23786">
        <ele>702.65240478516</ele>
        <time>2012-03-18T09:39:28Z</time>
      </trkpt>
      <trkpt lat="43.86616" lon="7.23792">
        <ele>700.27563476562</ele>
        <time>2012-03-18T09:39:35Z</time>
      </trkpt>
      <trkpt lat="43.86621" lon="7.23799">
        <ele>700.84704589844</ele>
        <time>2012-03-18T09:39:40Z</time>
      </trkpt>
      <trkpt lat="43.86623" lon="7.23802">
        <ele>701.12451171875</ele>
        <time>2012-03-18T09:39:42Z</time>
      </trkpt>
      <trkpt lat="43.86624" lon="7.23809">
        <ele>702.05401611328</ele>
        <time>2012-03-18T09:39:47Z</time>
      </trkpt>
      <trkpt lat="43.86624" lon="7.23811">
        <ele>702.49871826172</ele>
        <time>2012-03-18T09:39:51Z</time>
      </trkpt>
      <trkpt lat="43.86628" lon="7.23819">
        <ele>703.50750732422</ele>
        <time>2012-03-18T09:39:58Z</time>
      </trkpt>
      <trkpt lat="43.86631" lon="7.23822">
        <ele>703.77130126953</ele>
        <time>2012-03-18T09:40:01Z</time>
      </trkpt>
      <trkpt lat="43.86635" lon="7.23826">
        <ele>704.22058105469</ele>
        <time>2012-03-18T09:40:05Z</time>
      </trkpt>
      <trkpt lat="43.86641" lon="7.23835">
        <ele>705.18756103516</ele>
        <time>2012-03-18T09:40:12Z</time>
      </trkpt>
      <trkpt lat="43.86641" lon="7.23837">
        <ele>705.4501953125</ele>
        <time>2012-03-18T09:40:14Z</time>
      </trkpt>
      <trkpt lat="43.86645" lon="7.23845">
        <ele>706.76513671875</ele>
        <time>2012-03-18T09:40:22Z</time>
      </trkpt>
      <trkpt lat="43.86648" lon="7.23853">
        <ele>707.95300292969</ele>
        <time>2012-03-18T09:40:29Z</time>
      </trkpt>
      <trkpt lat="43.86649" lon="7.23857">
        <ele>708.57440185547</ele>
        <time>2012-03-18T09:40:35Z</time>
      </trkpt>
      <trkpt lat="43.8665" lon="7.23864">
        <ele>709.60089111328</ele>
        <time>2012-03-18T09:40:41Z</time>
      </trkpt>
      <trkpt lat="43.86652" lon="7.23871">
        <ele>710.69848632812</ele>
        <time>2012-03-18T09:40:48Z</time>
      </trkpt>
      <trkpt lat="43.86652" lon="7.23878">
        <ele>711.76788330078</ele>
        <time>2012-03-18T09:40:55Z</time>
      </trkpt>
      <trkpt lat="43.86651" lon="7.2388">
        <ele>712.15539550781</ele>
        <time>2012-03-18T09:41:02Z</time>
      </trkpt>
      <trkpt lat="43.86654" lon="7.23879">
        <ele>711.79357910156</ele>
        <time>2012-03-18T09:43:17Z</time>
      </trkpt>
      <trkpt lat="43.86658" lon="7.23884">
        <ele>712.23736572266</ele>
        <time>2012-03-18T09:43:23Z</time>
      </trkpt>
      <trkpt lat="43.86665" lon="7.23882">
        <ele>711.26470947266</ele>
        <time>2012-03-18T09:43:30Z</time>
      </trkpt>
      <trkpt lat="43.86665" lon="7.23881">
        <ele>711.0498046875</ele>
        <time>2012-03-18T09:43:31Z</time>
      </trkpt>
      <trkpt lat="43.8667" lon="7.23884">
        <ele>711.03515625</ele>
        <time>2012-03-18T09:43:36Z</time>
      </trkpt>
      <trkpt lat="43.86675" lon="7.23898">
        <ele>712.40161132812</ele>
        <time>2012-03-18T09:43:44Z</time>
      </trkpt>
      <trkpt lat="43.86675" lon="7.23902">
        <ele>713.005859375</ele>
        <time>2012-03-18T09:43:46Z</time>
      </trkpt>
      <trkpt lat="43.86669" lon="7.23912">
        <ele>715.07952880859</ele>
        <time>2012-03-18T09:43:52Z</time>
      </trkpt>
      <trkpt lat="43.86667" lon="7.23915">
        <ele>715.75244140625</ele>
        <time>2012-03-18T09:43:54Z</time>
      </trkpt>
      <trkpt lat="43.86671" lon="7.23926">
        <ele>716.78564453125</ele>
        <time>2012-03-18T09:44:01Z</time>
      </trkpt>
      <trkpt lat="43.86677" lon="7.23936">
        <ele>717.49780273438</ele>
        <time>2012-03-18T09:44:08Z</time>
      </trkpt>
      <trkpt lat="43.86679" lon="7.23941">
        <ele>717.83679199219</ele>
        <time>2012-03-18T09:44:13Z</time>
      </trkpt>
      <trkpt lat="43.86688" lon="7.23943">
        <ele>716.76940917969</ele>
        <time>2012-03-18T09:44:18Z</time>
      </trkpt>
      <trkpt lat="43.86694" lon="7.23945">
        <ele>716.14099121094</ele>
        <time>2012-03-18T09:44:20Z</time>
      </trkpt>
      <trkpt lat="43.86708" lon="7.23963">
        <ele>716.94311523438</ele>
        <time>2012-03-18T09:44:26Z</time>
      </trkpt>
      <trkpt lat="43.86714" lon="7.23972">
        <ele>717.32073974609</ele>
        <time>2012-03-18T09:44:31Z</time>
      </trkpt>
      <trkpt lat="43.86723" lon="7.23986">
        <ele>717.67193603516</ele>
        <time>2012-03-18T09:44:38Z</time>
      </trkpt>
      <trkpt lat="43.86727" lon="7.23992">
        <ele>717.55517578125</ele>
        <time>2012-03-18T09:44:41Z</time>
      </trkpt>
      <trkpt lat="43.86729" lon="7.24003">
        <ele>718.51666259766</ele>
        <time>2012-03-18T09:44:46Z</time>
      </trkpt>
      <trkpt lat="43.86734" lon="7.24021">
        <ele>718.94879150391</ele>
        <time>2012-03-18T09:44:53Z</time>
      </trkpt>
      <trkpt lat="43.86735" lon="7.24037">
        <ele>720.18792724609</ele>
        <time>2012-03-18T09:44:59Z</time>
      </trkpt>
      <trkpt lat="43.86736" lon="7.24051">
        <ele>721.46844482422</ele>
        <time>2012-03-18T09:45:03Z</time>
      </trkpt>
      <trkpt lat="43.86735" lon="7.24069">
        <ele>722.89880371094</ele>
        <time>2012-03-18T09:45:10Z</time>
      </trkpt>
      <trkpt lat="43.86734" lon="7.24075">
        <ele>723.42980957031</ele>
        <time>2012-03-18T09:45:13Z</time>
      </trkpt>
      <trkpt lat="43.86731" lon="7.24083">
        <ele>724.65045166016</ele>
        <time>2012-03-18T09:45:17Z</time>
      </trkpt>
      <trkpt lat="43.86723" lon="7.24091">
        <ele>727.60949707031</ele>
        <time>2012-03-18T09:45:23Z</time>
      </trkpt>
      <trkpt lat="43.86719" lon="7.24099">
        <ele>729.70013427734</ele>
        <time>2012-03-18T09:45:27Z</time>
      </trkpt>
      <trkpt lat="43.86712" lon="7.24117">
        <ele>733.50885009766</ele>
        <time>2012-03-18T09:45:34Z</time>
      </trkpt>
      <trkpt lat="43.867" lon="7.24128">
        <ele>737.43194580078</ele>
        <time>2012-03-18T09:45:42Z</time>
      </trkpt>
      <trkpt lat="43.86699" lon="7.24131">
        <ele>737.77758789062</ele>
        <time>2012-03-18T09:45:44Z</time>
      </trkpt>
      <trkpt lat="43.86695" lon="7.24136">
        <ele>738.82995605469</ele>
        <time>2012-03-18T09:45:50Z</time>
      </trkpt>
      <trkpt lat="43.86693" lon="7.24139">
        <ele>739.04510498047</ele>
        <time>2012-03-18T09:45:52Z</time>
      </trkpt>
      <trkpt lat="43.86683" lon="7.24136">
        <ele>739.40216064453</ele>
        <time>2012-03-18T09:45:58Z</time>
      </trkpt>
      <trkpt lat="43.8667" lon="7.24136">
        <ele>739.8828125</ele>
        <time>2012-03-18T09:46:06Z</time>
      </trkpt>
      <trkpt lat="43.86662" lon="7.24136">
        <ele>740</ele>
        <time>2012-03-18T09:46:12Z</time>
      </trkpt>
      <trkpt lat="43.86654" lon="7.24139">
        <ele>740</ele>
        <time>2012-03-18T09:46:17Z</time>
      </trkpt>
      <trkpt lat="43.86651" lon="7.2415">
        <ele>739.59350585938</ele>
        <time>2012-03-18T09:46:23Z</time>
      </trkpt>
      <trkpt lat="43.86649" lon="7.24155">
        <ele>739.42352294922</ele>
        <time>2012-03-18T09:46:28Z</time>
      </trkpt>
      <trkpt lat="43.86646" lon="7.24158">
        <ele>739.30511474609</ele>
        <time>2012-03-18T09:46:33Z</time>
      </trkpt>
      <trkpt lat="43.86642" lon="7.24157">
        <ele>739.35144042969</ele>
        <time>2012-03-18T09:46:38Z</time>
      </trkpt>
      <trkpt lat="43.86635" lon="7.24155">
        <ele>739.42010498047</ele>
        <time>2012-03-18T09:46:42Z</time>
      </trkpt>
      <trkpt lat="43.86633" lon="7.24153">
        <ele>739.49737548828</ele>
        <time>2012-03-18T09:46:44Z</time>
      </trkpt>
      <trkpt lat="43.86627" lon="7.24145">
        <ele>739.78405761719</ele>
        <time>2012-03-18T09:46:49Z</time>
      </trkpt>
      <trkpt lat="43.86625" lon="7.24144">
        <ele>739.80120849609</ele>
        <time>2012-03-18T09:46:51Z</time>
      </trkpt>
      <trkpt lat="43.86621" lon="7.24147">
        <ele>739.71881103516</ele>
        <time>2012-03-18T09:46:58Z</time>
      </trkpt>
      <trkpt lat="43.86624" lon="7.24145">
        <ele>739.79602050781</ele>
        <time>2012-03-18T09:47:03Z</time>
      </trkpt>
      <trkpt lat="43.86623" lon="7.24144">
        <ele>739.81665039062</ele>
        <time>2012-03-18T09:47:08Z</time>
      </trkpt>
      <trkpt lat="43.86619" lon="7.24145">
        <ele>739.79431152344</ele>
        <time>2012-03-18T09:49:12Z</time>
      </trkpt>
      <trkpt lat="43.86616" lon="7.24146">
        <ele>739.74627685547</ele>
        <time>2012-03-18T09:49:15Z</time>
      </trkpt>
      <trkpt lat="43.86603" lon="7.24152">
        <ele>739.21081542969</ele>
        <time>2012-03-18T09:49:26Z</time>
      </trkpt>
      <trkpt lat="43.86596" lon="7.2416">
        <ele>738.96917724609</ele>
        <time>2012-03-18T09:49:34Z</time>
      </trkpt>
      <trkpt lat="43.86584" lon="7.24169">
        <ele>739.43762207031</ele>
        <time>2012-03-18T09:49:44Z</time>
      </trkpt>
      <trkpt lat="43.86573" lon="7.24177">
        <ele>740.93432617188</ele>
        <time>2012-03-18T09:49:53Z</time>
      </trkpt>
      <trkpt lat="43.86558" lon="7.2418">
        <ele>741.93975830078</ele>
        <time>2012-03-18T09:50:02Z</time>
      </trkpt>
      <trkpt lat="43.86545" lon="7.24186">
        <ele>743.25341796875</ele>
        <time>2012-03-18T09:50:10Z</time>
      </trkpt>
      <trkpt lat="43.86533" lon="7.24191">
        <ele>744.36700439453</ele>
        <time>2012-03-18T09:50:18Z</time>
      </trkpt>
      <trkpt lat="43.86511" lon="7.24196">
        <ele>745.81842041016</ele>
        <time>2012-03-18T09:50:31Z</time>
      </trkpt>
      <trkpt lat="43.86493" lon="7.242">
        <ele>746.06085205078</ele>
        <time>2012-03-18T09:50:41Z</time>
      </trkpt>
      <trkpt lat="43.86477" lon="7.2421">
        <ele>746.23187255859</ele>
        <time>2012-03-18T09:50:51Z</time>
      </trkpt>
      <trkpt lat="43.86468" lon="7.24226">
        <ele>747.75219726562</ele>
        <time>2012-03-18T09:50:59Z</time>
      </trkpt>
      <trkpt lat="43.86454" lon="7.24247">
        <ele>748.94342041016</ele>
        <time>2012-03-18T09:51:10Z</time>
      </trkpt>
      <trkpt lat="43.86441" lon="7.24269">
        <ele>749.7705078125</ele>
        <time>2012-03-18T09:51:21Z</time>
      </trkpt>
      <trkpt lat="43.86433" lon="7.24295">
        <ele>751.95593261719</ele>
        <time>2012-03-18T09:51:32Z</time>
      </trkpt>
      <trkpt lat="43.8643" lon="7.24314">
        <ele>754.58929443359</ele>
        <time>2012-03-18T09:51:40Z</time>
      </trkpt>
      <trkpt lat="43.86425" lon="7.2433">
        <ele>756.16009521484</ele>
        <time>2012-03-18T09:51:48Z</time>
      </trkpt>
      <trkpt lat="43.86415" lon="7.24346">
        <ele>756.04180908203</ele>
        <time>2012-03-18T09:51:57Z</time>
      </trkpt>
      <trkpt lat="43.86403" lon="7.24362">
        <ele>755.83520507812</ele>
        <time>2012-03-18T09:52:06Z</time>
      </trkpt>
      <trkpt lat="43.86395" lon="7.24377">
        <ele>756.38970947266</ele>
        <time>2012-03-18T09:52:13Z</time>
      </trkpt>
      <trkpt lat="43.86386" lon="7.24397">
        <ele>757.02075195312</ele>
        <time>2012-03-18T09:52:22Z</time>
      </trkpt>
      <trkpt lat="43.8638" lon="7.24425">
        <ele>758.37768554688</ele>
        <time>2012-03-18T09:52:33Z</time>
      </trkpt>
      <trkpt lat="43.86384" lon="7.24443">
        <ele>762.33068847656</ele>
        <time>2012-03-18T09:52:41Z</time>
      </trkpt>
      <trkpt lat="43.8639" lon="7.24462">
        <ele>766.75769042969</ele>
        <time>2012-03-18T09:52:49Z</time>
      </trkpt>
      <trkpt lat="43.86396" lon="7.24483">
        <ele>771.52532958984</ele>
        <time>2012-03-18T09:52:58Z</time>
      </trkpt>
      <trkpt lat="43.86406" lon="7.24508">
        <ele>775.69848632812</ele>
        <time>2012-03-18T09:53:09Z</time>
      </trkpt>
      <trkpt lat="43.86416" lon="7.2453">
        <ele>779.66674804688</ele>
        <time>2012-03-18T09:53:19Z</time>
      </trkpt>
      <trkpt lat="43.86431" lon="7.24551">
        <ele>784.60620117188</ele>
        <time>2012-03-18T09:53:30Z</time>
      </trkpt>
      <trkpt lat="43.86438" lon="7.24566">
        <ele>786.61810302734</ele>
        <time>2012-03-18T09:53:37Z</time>
      </trkpt>
      <trkpt lat="43.86442" lon="7.24589">
        <ele>786.80438232422</ele>
        <time>2012-03-18T09:53:46Z</time>
      </trkpt>
      <trkpt lat="43.8644" lon="7.24608">
        <ele>785.19067382812</ele>
        <time>2012-03-18T09:53:53Z</time>
      </trkpt>
      <trkpt lat="43.86436" lon="7.24633">
        <ele>783.16156005859</ele>
        <time>2012-03-18T09:54:02Z</time>
      </trkpt>
      <trkpt lat="43.86431" lon="7.24658">
        <ele>780.65637207031</ele>
        <time>2012-03-18T09:54:12Z</time>
      </trkpt>
      <trkpt lat="43.86422" lon="7.24684">
        <ele>778.97796630859</ele>
        <time>2012-03-18T09:54:23Z</time>
      </trkpt>
      <trkpt lat="43.86414" lon="7.24707">
        <ele>778.94683837891</ele>
        <time>2012-03-18T09:54:33Z</time>
      </trkpt>
      <trkpt lat="43.86402" lon="7.24739">
        <ele>780.49981689453</ele>
        <time>2012-03-18T09:54:46Z</time>
      </trkpt>
      <trkpt lat="43.86396" lon="7.24757">
        <ele>781.86828613281</ele>
        <time>2012-03-18T09:54:54Z</time>
      </trkpt>
      <trkpt lat="43.86389" lon="7.24779">
        <ele>784.62609863281</ele>
        <time>2012-03-18T09:55:03Z</time>
      </trkpt>
      <trkpt lat="43.86381" lon="7.24812">
        <ele>789.61010742188</ele>
        <time>2012-03-18T09:55:16Z</time>
      </trkpt>
      <trkpt lat="43.86375" lon="7.24839">
        <ele>792.8095703125</ele>
        <time>2012-03-18T09:55:27Z</time>
      </trkpt>
      <trkpt lat="43.86368" lon="7.24866">
        <ele>794.18438720703</ele>
        <time>2012-03-18T09:55:38Z</time>
      </trkpt>
      <trkpt lat="43.86365" lon="7.24894">
        <ele>799.72686767578</ele>
        <time>2012-03-18T09:55:49Z</time>
      </trkpt>
      <trkpt lat="43.86361" lon="7.24917">
        <ele>800.70697021484</ele>
        <time>2012-03-18T09:55:58Z</time>
      </trkpt>
      <trkpt lat="43.86359" lon="7.24939">
        <ele>801.76171875</ele>
        <time>2012-03-18T09:56:07Z</time>
      </trkpt>
      <trkpt lat="43.86359" lon="7.24961">
        <ele>803.77160644531</ele>
        <time>2012-03-18T09:56:16Z</time>
      </trkpt>
      <trkpt lat="43.8636" lon="7.24994">
        <ele>807.94946289062</ele>
        <time>2012-03-18T09:56:29Z</time>
      </trkpt>
      <trkpt lat="43.86362" lon="7.25016">
        <ele>808.55841064453</ele>
        <time>2012-03-18T09:56:38Z</time>
      </trkpt>
      <trkpt lat="43.86367" lon="7.2504">
        <ele>809.97875976562</ele>
        <time>2012-03-18T09:56:48Z</time>
      </trkpt>
      <trkpt lat="43.86373" lon="7.25067">
        <ele>812.28778076172</ele>
        <time>2012-03-18T09:56:59Z</time>
      </trkpt>
      <trkpt lat="43.86381" lon="7.25093">
        <ele>815.9296875</ele>
        <time>2012-03-18T09:57:10Z</time>
      </trkpt>
      <trkpt lat="43.86389" lon="7.25115">
        <ele>819.65502929688</ele>
        <time>2012-03-18T09:57:20Z</time>
      </trkpt>
      <trkpt lat="43.86396" lon="7.25137">
        <ele>821.02416992188</ele>
        <time>2012-03-18T09:57:30Z</time>
      </trkpt>
      <trkpt lat="43.86402" lon="7.2516">
        <ele>822.02661132812</ele>
        <time>2012-03-18T09:57:40Z</time>
      </trkpt>
      <trkpt lat="43.86408" lon="7.25184">
        <ele>823.31512451172</ele>
        <time>2012-03-18T09:57:50Z</time>
      </trkpt>
      <trkpt lat="43.86415" lon="7.25204">
        <ele>824.68200683594</ele>
        <time>2012-03-18T09:57:59Z</time>
      </trkpt>
      <trkpt lat="43.8642" lon="7.25224">
        <ele>826.57147216797</ele>
        <time>2012-03-18T09:58:07Z</time>
      </trkpt>
      <trkpt lat="43.86425" lon="7.25246">
        <ele>827.94744873047</ele>
        <time>2012-03-18T09:58:16Z</time>
      </trkpt>
      <trkpt lat="43.86431" lon="7.25273">
        <ele>830.41345214844</ele>
        <time>2012-03-18T09:58:26Z</time>
      </trkpt>
      <trkpt lat="43.86434" lon="7.25296">
        <ele>832.60498046875</ele>
        <time>2012-03-18T09:58:35Z</time>
      </trkpt>
      <trkpt lat="43.8644" lon="7.25321">
        <ele>835.46771240234</ele>
        <time>2012-03-18T09:58:45Z</time>
      </trkpt>
      <trkpt lat="43.86444" lon="7.25345">
        <ele>837.14703369141</ele>
        <time>2012-03-18T09:58:55Z</time>
      </trkpt>
      <trkpt lat="43.86449" lon="7.25366">
        <ele>839.36462402344</ele>
        <time>2012-03-18T09:59:04Z</time>
      </trkpt>
      <trkpt lat="43.86453" lon="7.25389">
        <ele>840.99670410156</ele>
        <time>2012-03-18T09:59:13Z</time>
      </trkpt>
      <trkpt lat="43.86453" lon="7.25415">
        <ele>839.45959472656</ele>
        <time>2012-03-18T09:59:23Z</time>
      </trkpt>
      <trkpt lat="43.86459" lon="7.25438">
        <ele>842.30523681641</ele>
        <time>2012-03-18T09:59:32Z</time>
      </trkpt>
      <trkpt lat="43.86467" lon="7.25462">
        <ele>846.68310546875</ele>
        <time>2012-03-18T09:59:42Z</time>
      </trkpt>
      <trkpt lat="43.86471" lon="7.25482">
        <ele>848.26220703125</ele>
        <time>2012-03-18T09:59:50Z</time>
      </trkpt>
      <trkpt lat="43.86476" lon="7.25515">
        <ele>848.94195556641</ele>
        <time>2012-03-18T10:00:02Z</time>
      </trkpt>
      <trkpt lat="43.8648" lon="7.25536">
        <ele>849.09875488281</ele>
        <time>2012-03-18T10:00:10Z</time>
      </trkpt>
      <trkpt lat="43.86484" lon="7.25554">
        <ele>848.86761474609</ele>
        <time>2012-03-18T10:00:17Z</time>
      </trkpt>
      <trkpt lat="43.8649" lon="7.25577">
        <ele>848.64923095703</ele>
        <time>2012-03-18T10:00:26Z</time>
      </trkpt>
      <trkpt lat="43.86498" lon="7.25595">
        <ele>849.55828857422</ele>
        <time>2012-03-18T10:00:34Z</time>
      </trkpt>
      <trkpt lat="43.8651" lon="7.25613">
        <ele>855.30914306641</ele>
        <time>2012-03-18T10:00:43Z</time>
      </trkpt>
      <trkpt lat="43.86523" lon="7.2563">
        <ele>862.17468261719</ele>
        <time>2012-03-18T10:00:51Z</time>
      </trkpt>
      <trkpt lat="43.86535" lon="7.25644">
        <ele>868.32574462891</ele>
        <time>2012-03-18T10:00:59Z</time>
      </trkpt>
      <trkpt lat="43.86548" lon="7.25662">
        <ele>872.29888916016</ele>
        <time>2012-03-18T10:01:08Z</time>
      </trkpt>
      <trkpt lat="43.86555" lon="7.25683">
        <ele>871.73767089844</ele>
        <time>2012-03-18T10:01:16Z</time>
      </trkpt>
      <trkpt lat="43.86561" lon="7.25713">
        <ele>869.93670654297</ele>
        <time>2012-03-18T10:01:28Z</time>
      </trkpt>
      <trkpt lat="43.86562" lon="7.25715">
        <ele>870.03924560547</ele>
        <time>2012-03-18T10:01:29Z</time>
      </trkpt>
      <trkpt lat="43.8657" lon="7.25713">
        <ele>874.19842529297</ele>
        <time>2012-03-18T10:01:35Z</time>
      </trkpt>
      <trkpt lat="43.86569" lon="7.25697">
        <ele>876.10638427734</ele>
        <time>2012-03-18T10:01:42Z</time>
      </trkpt>
      <trkpt lat="43.86568" lon="7.25677">
        <ele>878.80700683594</ele>
        <time>2012-03-18T10:01:50Z</time>
      </trkpt>
      <trkpt lat="43.86563" lon="7.25652">
        <ele>880.39337158203</ele>
        <time>2012-03-18T10:02:00Z</time>
      </trkpt>
      <trkpt lat="43.86554" lon="7.25634">
        <ele>878.52453613281</ele>
        <time>2012-03-18T10:02:08Z</time>
      </trkpt>
      <trkpt lat="43.86548" lon="7.25618">
        <ele>876.63970947266</ele>
        <time>2012-03-18T10:02:15Z</time>
      </trkpt>
      <trkpt lat="43.86543" lon="7.256">
        <ele>875.97357177734</ele>
        <time>2012-03-18T10:02:22Z</time>
      </trkpt>
      <trkpt lat="43.86543" lon="7.25581">
        <ele>878.11163330078</ele>
        <time>2012-03-18T10:02:30Z</time>
      </trkpt>
      <trkpt lat="43.86544" lon="7.25561">
        <ele>880.74932861328</ele>
        <time>2012-03-18T10:02:38Z</time>
      </trkpt>
      <trkpt lat="43.86544" lon="7.25548">
        <ele>882.01123046875</ele>
        <time>2012-03-18T10:02:45Z</time>
      </trkpt>
      <trkpt lat="43.86545" lon="7.25544">
        <ele>882.77935791016</ele>
        <time>2012-03-18T10:02:47Z</time>
      </trkpt>
      <trkpt lat="43.86551" lon="7.25548">
        <ele>885.90759277344</ele>
        <time>2012-03-18T10:02:52Z</time>
      </trkpt>
      <trkpt lat="43.86553" lon="7.25563">
        <ele>885.55944824219</ele>
        <time>2012-03-18T10:02:59Z</time>
      </trkpt>
      <trkpt lat="43.86558" lon="7.25578">
        <ele>885.78436279297</ele>
        <time>2012-03-18T10:03:07Z</time>
      </trkpt>
      <trkpt lat="43.86559" lon="7.25592">
        <ele>884.97033691406</ele>
        <time>2012-03-18T10:03:12Z</time>
      </trkpt>
      <trkpt lat="43.86564" lon="7.25602">
        <ele>886.41400146484</ele>
        <time>2012-03-18T10:03:17Z</time>
      </trkpt>
      <trkpt lat="43.86571" lon="7.25612">
        <ele>888.74829101562</ele>
        <time>2012-03-18T10:03:24Z</time>
      </trkpt>
      <trkpt lat="43.86578" lon="7.25621">
        <ele>891.23449707031</ele>
        <time>2012-03-18T10:03:31Z</time>
      </trkpt>
      <trkpt lat="43.86585" lon="7.25632">
        <ele>892.99450683594</ele>
        <time>2012-03-18T10:03:38Z</time>
      </trkpt>
      <trkpt lat="43.86596" lon="7.25645">
        <ele>896.52905273438</ele>
        <time>2012-03-18T10:03:48Z</time>
      </trkpt>
      <trkpt lat="43.86605" lon="7.25653">
        <ele>900.41375732422</ele>
        <time>2012-03-18T10:03:56Z</time>
      </trkpt>
      <trkpt lat="43.86613" lon="7.25661">
        <ele>903.13391113281</ele>
        <time>2012-03-18T10:04:04Z</time>
      </trkpt>
      <trkpt lat="43.86622" lon="7.2567">
        <ele>905.27459716797</ele>
        <time>2012-03-18T10:04:12Z</time>
      </trkpt>
      <trkpt lat="43.86628" lon="7.25681">
        <ele>905.72692871094</ele>
        <time>2012-03-18T10:04:19Z</time>
      </trkpt>
      <trkpt lat="43.86637" lon="7.25691">
        <ele>907.71752929688</ele>
        <time>2012-03-18T10:04:28Z</time>
      </trkpt>
      <trkpt lat="43.86645" lon="7.25699">
        <ele>910.55578613281</ele>
        <time>2012-03-18T10:04:36Z</time>
      </trkpt>
      <trkpt lat="43.86654" lon="7.25709">
        <ele>913.85876464844</ele>
        <time>2012-03-18T10:04:44Z</time>
      </trkpt>
      <trkpt lat="43.8666" lon="7.25719">
        <ele>916.63903808594</ele>
        <time>2012-03-18T10:04:52Z</time>
      </trkpt>
      <trkpt lat="43.86667" lon="7.2573">
        <ele>919.03796386719</ele>
        <time>2012-03-18T10:04:59Z</time>
      </trkpt>
      <trkpt lat="43.86674" lon="7.25739">
        <ele>920.84387207031</ele>
        <time>2012-03-18T10:05:06Z</time>
      </trkpt>
      <trkpt lat="43.86679" lon="7.25752">
        <ele>920.91741943359</ele>
        <time>2012-03-18T10:05:14Z</time>
      </trkpt>
      <trkpt lat="43.86683" lon="7.25761">
        <ele>921.70196533203</ele>
        <time>2012-03-18T10:05:20Z</time>
      </trkpt>
      <trkpt lat="43.86682" lon="7.25763">
        <ele>920.89495849609</ele>
        <time>2012-03-18T10:05:26Z</time>
      </trkpt>
      <trkpt lat="43.86679" lon="7.25765">
        <ele>919.51318359375</ele>
        <time>2012-03-18T10:06:08Z</time>
      </trkpt>
      <trkpt lat="43.8668" lon="7.25764">
        <ele>919.89361572266</ele>
        <time>2012-03-18T10:06:21Z</time>
      </trkpt>
      <trkpt lat="43.86678" lon="7.25769">
        <ele>918.67004394531</ele>
        <time>2012-03-18T10:06:55Z</time>
      </trkpt>
      <trkpt lat="43.86679" lon="7.25778">
        <ele>918.08453369141</ele>
        <time>2012-03-18T10:06:58Z</time>
      </trkpt>
      <trkpt lat="43.86676" lon="7.25795">
        <ele>914.29718017578</ele>
        <time>2012-03-18T10:07:03Z</time>
      </trkpt>
      <trkpt lat="43.86667" lon="7.25801">
        <ele>909.90264892578</ele>
        <time>2012-03-18T10:07:06Z</time>
      </trkpt>
      <trkpt lat="43.86662" lon="7.25813">
        <ele>904.52886962891</ele>
        <time>2012-03-18T10:07:09Z</time>
      </trkpt>
      <trkpt lat="43.86662" lon="7.25818">
        <ele>903.67370605469</ele>
        <time>2012-03-18T10:07:10Z</time>
      </trkpt>
      <trkpt lat="43.86665" lon="7.25843">
        <ele>902.63671875</ele>
        <time>2012-03-18T10:07:14Z</time>
      </trkpt>
      <trkpt lat="43.86669" lon="7.25854">
        <ele>902.96844482422</ele>
        <time>2012-03-18T10:07:16Z</time>
      </trkpt>
      <trkpt lat="43.86678" lon="7.25866">
        <ele>904.25244140625</ele>
        <time>2012-03-18T10:07:21Z</time>
      </trkpt>
      <trkpt lat="43.86684" lon="7.25878">
        <ele>903.75384521484</ele>
        <time>2012-03-18T10:07:25Z</time>
      </trkpt>
      <trkpt lat="43.86694" lon="7.25903">
        <ele>904.17053222656</ele>
        <time>2012-03-18T10:07:31Z</time>
      </trkpt>
      <trkpt lat="43.86706" lon="7.25917">
        <ele>905.82977294922</ele>
        <time>2012-03-18T10:07:35Z</time>
      </trkpt>
      <trkpt lat="43.86713" lon="7.2593">
        <ele>904.48187255859</ele>
        <time>2012-03-18T10:07:38Z</time>
      </trkpt>
      <trkpt lat="43.86711" lon="7.25942">
        <ele>899.13116455078</ele>
        <time>2012-03-18T10:07:42Z</time>
      </trkpt>
      <trkpt lat="43.86693" lon="7.25948">
        <ele>888.53344726562</ele>
        <time>2012-03-18T10:07:47Z</time>
      </trkpt>
      <trkpt lat="43.8669" lon="7.25949">
        <ele>886.47338867188</ele>
        <time>2012-03-18T10:07:48Z</time>
      </trkpt>
      <trkpt lat="43.86683" lon="7.25965">
        <ele>878.36810302734</ele>
        <time>2012-03-18T10:07:52Z</time>
      </trkpt>
      <trkpt lat="43.86674" lon="7.25987">
        <ele>874.21258544922</ele>
        <time>2012-03-18T10:07:56Z</time>
      </trkpt>
      <trkpt lat="43.86666" lon="7.26001">
        <ele>871.65991210938</ele>
        <time>2012-03-18T10:08:00Z</time>
      </trkpt>
      <trkpt lat="43.86662" lon="7.26014">
        <ele>869.14129638672</ele>
        <time>2012-03-18T10:08:04Z</time>
      </trkpt>
      <trkpt lat="43.86654" lon="7.26024">
        <ele>865.19287109375</ele>
        <time>2012-03-18T10:08:08Z</time>
      </trkpt>
      <trkpt lat="43.86644" lon="7.2602">
        <ele>859.7158203125</ele>
        <time>2012-03-18T10:08:13Z</time>
      </trkpt>
      <trkpt lat="43.86643" lon="7.26021">
        <ele>859.56481933594</ele>
        <time>2012-03-18T10:08:20Z</time>
      </trkpt>
      <trkpt lat="43.86637" lon="7.26018">
        <ele>856.18432617188</ele>
        <time>2012-03-18T10:08:53Z</time>
      </trkpt>
      <trkpt lat="43.86641" lon="7.26022">
        <ele>858.47979736328</ele>
        <time>2012-03-18T10:10:52Z</time>
      </trkpt>
      <trkpt lat="43.86641" lon="7.26024">
        <ele>858.88702392578</ele>
        <time>2012-03-18T10:11:03Z</time>
      </trkpt>
      <trkpt lat="43.86635" lon="7.26033">
        <ele>855.98657226562</ele>
        <time>2012-03-18T10:11:08Z</time>
      </trkpt>
      <trkpt lat="43.86633" lon="7.26036">
        <ele>854.79693603516</ele>
        <time>2012-03-18T10:11:09Z</time>
      </trkpt>
      <trkpt lat="43.86622" lon="7.26039">
        <ele>850.02478027344</ele>
        <time>2012-03-18T10:11:14Z</time>
      </trkpt>
      <trkpt lat="43.8662" lon="7.26038">
        <ele>849.38787841797</ele>
        <time>2012-03-18T10:11:15Z</time>
      </trkpt>
      <trkpt lat="43.86616" lon="7.26042">
        <ele>847.46527099609</ele>
        <time>2012-03-18T10:11:19Z</time>
      </trkpt>
      <trkpt lat="43.86616" lon="7.26047">
        <ele>846.78894042969</ele>
        <time>2012-03-18T10:11:21Z</time>
      </trkpt>
      <trkpt lat="43.86615" lon="7.26068">
        <ele>844.63525390625</ele>
        <time>2012-03-18T10:11:27Z</time>
      </trkpt>
      <trkpt lat="43.86605" lon="7.26073">
        <ele>841.19329833984</ele>
        <time>2012-03-18T10:11:31Z</time>
      </trkpt>
      <trkpt lat="43.86594" lon="7.26076">
        <ele>838.25280761719</ele>
        <time>2012-03-18T10:11:35Z</time>
      </trkpt>
      <trkpt lat="43.86585" lon="7.26076">
        <ele>836.21020507812</ele>
        <time>2012-03-18T10:11:42Z</time>
      </trkpt>
      <trkpt lat="43.86579" lon="7.26073">
        <ele>834.40606689453</ele>
        <time>2012-03-18T10:11:48Z</time>
      </trkpt>
      <trkpt lat="43.86573" lon="7.2607">
        <ele>832.58831787109</ele>
        <time>2012-03-18T10:11:53Z</time>
      </trkpt>
      <trkpt lat="43.86571" lon="7.26069">
        <ele>831.83551025391</ele>
        <time>2012-03-18T10:11:56Z</time>
      </trkpt>
      <trkpt lat="43.86566" lon="7.26073">
        <ele>831.08923339844</ele>
        <time>2012-03-18T10:12:03Z</time>
      </trkpt>
      <trkpt lat="43.8656" lon="7.26072">
        <ele>829.38793945312</ele>
        <time>2012-03-18T10:12:13Z</time>
      </trkpt>
      <trkpt lat="43.86555" lon="7.26073">
        <ele>828.40411376953</ele>
        <time>2012-03-18T10:12:19Z</time>
      </trkpt>
      <trkpt lat="43.86552" lon="7.26074">
        <ele>828.64367675781</ele>
        <time>2012-03-18T10:12:25Z</time>
      </trkpt>
      <trkpt lat="43.86552" lon="7.26071">
        <ele>827.98754882812</ele>
        <time>2012-03-18T10:13:00Z</time>
      </trkpt>
      <trkpt lat="43.86547" lon="7.26074">
        <ele>828.89373779297</ele>
        <time>2012-03-18T10:13:23Z</time>
      </trkpt>
      <trkpt lat="43.86541" lon="7.26075">
        <ele>829.41137695312</ele>
        <time>2012-03-18T10:13:26Z</time>
      </trkpt>
      <trkpt lat="43.8653" lon="7.26068">
        <ele>826.91497802734</ele>
        <time>2012-03-18T10:13:33Z</time>
      </trkpt>
      <trkpt lat="43.8652" lon="7.26059">
        <ele>825.59600830078</ele>
        <time>2012-03-18T10:13:39Z</time>
      </trkpt>
      <trkpt lat="43.86508" lon="7.26056">
        <ele>827.65295410156</ele>
        <time>2012-03-18T10:13:45Z</time>
      </trkpt>
      <trkpt lat="43.86502" lon="7.26057">
        <ele>830.29467773438</ele>
        <time>2012-03-18T10:13:48Z</time>
      </trkpt>
      <trkpt lat="43.8649" lon="7.26054">
        <ele>831.80169677734</ele>
        <time>2012-03-18T10:13:54Z</time>
      </trkpt>
      <trkpt lat="43.86482" lon="7.26049">
        <ele>830.86700439453</ele>
        <time>2012-03-18T10:13:59Z</time>
      </trkpt>
      <trkpt lat="43.8647" lon="7.26048">
        <ele>833.98950195312</ele>
        <time>2012-03-18T10:14:05Z</time>
      </trkpt>
      <trkpt lat="43.86464" lon="7.2605">
        <ele>837.3369140625</ele>
        <time>2012-03-18T10:14:09Z</time>
      </trkpt>
      <trkpt lat="43.86462" lon="7.26053">
        <ele>839.71441650391</ele>
        <time>2012-03-18T10:14:12Z</time>
      </trkpt>
      <trkpt lat="43.86456" lon="7.26054">
        <ele>842.79742431641</ele>
        <time>2012-03-18T10:14:16Z</time>
      </trkpt>
      <trkpt lat="43.86454" lon="7.26045">
        <ele>838.40289306641</ele>
        <time>2012-03-18T10:14:21Z</time>
      </trkpt>
      <trkpt lat="43.8645" lon="7.2604">
        <ele>837.36437988281</ele>
        <time>2012-03-18T10:14:24Z</time>
      </trkpt>
      <trkpt lat="43.86436" lon="7.26024">
        <ele>834.40551757812</ele>
        <time>2012-03-18T10:14:29Z</time>
      </trkpt>
      <trkpt lat="43.86427" lon="7.26015">
        <ele>832.6298828125</ele>
        <time>2012-03-18T10:14:33Z</time>
      </trkpt>
      <trkpt lat="43.86413" lon="7.26004">
        <ele>831.99670410156</ele>
        <time>2012-03-18T10:14:38Z</time>
      </trkpt>
      <trkpt lat="43.86401" lon="7.25993">
        <ele>830.31634521484</ele>
        <time>2012-03-18T10:14:42Z</time>
      </trkpt>
      <trkpt lat="43.8639" lon="7.25988">
        <ele>830.71618652344</ele>
        <time>2012-03-18T10:14:46Z</time>
      </trkpt>
      <trkpt lat="43.86379" lon="7.25978">
        <ele>828.23718261719</ele>
        <time>2012-03-18T10:14:50Z</time>
      </trkpt>
      <trkpt lat="43.86366" lon="7.25972">
        <ele>829.82580566406</ele>
        <time>2012-03-18T10:14:54Z</time>
      </trkpt>
      <trkpt lat="43.86349" lon="7.25966">
        <ele>833.78607177734</ele>
        <time>2012-03-18T10:14:59Z</time>
      </trkpt>
      <trkpt lat="43.86332" lon="7.25959">
        <ele>838.28198242188</ele>
        <time>2012-03-18T10:15:04Z</time>
      </trkpt>
      <trkpt lat="43.86325" lon="7.25957">
        <ele>840.35076904297</ele>
        <time>2012-03-18T10:15:06Z</time>
      </trkpt>
      <trkpt lat="43.86316" lon="7.25956">
        <ele>843.80853271484</ele>
        <time>2012-03-18T10:15:10Z</time>
      </trkpt>
      <trkpt lat="43.86311" lon="7.25949">
        <ele>843.18927001953</ele>
        <time>2012-03-18T10:15:12Z</time>
      </trkpt>
      <trkpt lat="43.86296" lon="7.25935">
        <ele>843.17407226562</ele>
        <time>2012-03-18T10:15:18Z</time>
      </trkpt>
      <trkpt lat="43.86287" lon="7.2592">
        <ele>839.92584228516</ele>
        <time>2012-03-18T10:15:23Z</time>
      </trkpt>
      <trkpt lat="43.86271" lon="7.25907">
        <ele>841.4794921875</ele>
        <time>2012-03-18T10:15:28Z</time>
      </trkpt>
      <trkpt lat="43.86258" lon="7.25891">
        <ele>841.45202636719</ele>
        <time>2012-03-18T10:15:32Z</time>
      </trkpt>
      <trkpt lat="43.86253" lon="7.25886">
        <ele>841.69830322266</ele>
        <time>2012-03-18T10:15:33Z</time>
      </trkpt>
      <trkpt lat="43.86244" lon="7.25882">
        <ele>842.92047119141</ele>
        <time>2012-03-18T10:15:35Z</time>
      </trkpt>
      <trkpt lat="43.86241" lon="7.25873">
        <ele>840.74340820312</ele>
        <time>2012-03-18T10:15:37Z</time>
      </trkpt>
      <trkpt lat="43.86238" lon="7.25853">
        <ele>834.48944091797</ele>
        <time>2012-03-18T10:15:41Z</time>
      </trkpt>
      <trkpt lat="43.86229" lon="7.25836">
        <ele>831.33605957031</ele>
        <time>2012-03-18T10:15:44Z</time>
      </trkpt>
      <trkpt lat="43.86213" lon="7.25807">
        <ele>823.32977294922</ele>
        <time>2012-03-18T10:15:49Z</time>
      </trkpt>
      <trkpt lat="43.8621" lon="7.25802">
        <ele>822.27038574219</ele>
        <time>2012-03-18T10:15:50Z</time>
      </trkpt>
      <trkpt lat="43.86203" lon="7.25789">
        <ele>819.49877929688</ele>
        <time>2012-03-18T10:15:53Z</time>
      </trkpt>
      <trkpt lat="43.86199" lon="7.25784">
        <ele>818.92749023438</ele>
        <time>2012-03-18T10:15:55Z</time>
      </trkpt>
      <trkpt lat="43.86181" lon="7.25762">
        <ele>816.85003662109</ele>
        <time>2012-03-18T10:16:00Z</time>
      </trkpt>
      <trkpt lat="43.86165" lon="7.25732">
        <ele>810.89611816406</ele>
        <time>2012-03-18T10:16:05Z</time>
      </trkpt>
      <trkpt lat="43.86156" lon="7.25718">
        <ele>808.46539306641</ele>
        <time>2012-03-18T10:16:09Z</time>
      </trkpt>
      <trkpt lat="43.8614" lon="7.25705">
        <ele>807.00970458984</ele>
        <time>2012-03-18T10:16:13Z</time>
      </trkpt>
      <trkpt lat="43.86122" lon="7.25699">
        <ele>807.05187988281</ele>
        <time>2012-03-18T10:16:17Z</time>
      </trkpt>
      <trkpt lat="43.86105" lon="7.25697">
        <ele>807.96893310547</ele>
        <time>2012-03-18T10:16:21Z</time>
      </trkpt>
      <trkpt lat="43.86095" lon="7.25682">
        <ele>802.79241943359</ele>
        <time>2012-03-18T10:16:24Z</time>
      </trkpt>
      <trkpt lat="43.86088" lon="7.25674">
        <ele>799.93591308594</ele>
        <time>2012-03-18T10:16:26Z</time>
      </trkpt>
      <trkpt lat="43.86071" lon="7.25649">
        <ele>790.46112060547</ele>
        <time>2012-03-18T10:16:31Z</time>
      </trkpt>
      <trkpt lat="43.86052" lon="7.2564">
        <ele>788.28375244141</ele>
        <time>2012-03-18T10:16:35Z</time>
      </trkpt>
      <trkpt lat="43.86041" lon="7.25637">
        <ele>787.40826416016</ele>
        <time>2012-03-18T10:16:37Z</time>
      </trkpt>
      <trkpt lat="43.86014" lon="7.2563">
        <ele>786.04852294922</ele>
        <time>2012-03-18T10:16:42Z</time>
      </trkpt>
      <trkpt lat="43.85996" lon="7.25618">
        <ele>783.59600830078</ele>
        <time>2012-03-18T10:16:46Z</time>
      </trkpt>
      <trkpt lat="43.85977" lon="7.25609">
        <ele>783.697265625</ele>
        <time>2012-03-18T10:16:50Z</time>
      </trkpt>
      <trkpt lat="43.85973" lon="7.25595">
        <ele>780.35443115234</ele>
        <time>2012-03-18T10:16:54Z</time>
      </trkpt>
      <trkpt lat="43.85975" lon="7.2559">
        <ele>778.60687255859</ele>
        <time>2012-03-18T10:16:57Z</time>
      </trkpt>
      <trkpt lat="43.85984" lon="7.25581">
        <ele>775.03179931641</ele>
        <time>2012-03-18T10:17:57Z</time>
      </trkpt>
      <trkpt lat="43.85983" lon="7.25585">
        <ele>776.32879638672</ele>
        <time>2012-03-18T10:18:11Z</time>
      </trkpt>
      <trkpt lat="43.85979" lon="7.25593">
        <ele>779.13525390625</ele>
        <time>2012-03-18T10:18:45Z</time>
      </trkpt>
      <trkpt lat="43.85977" lon="7.2559">
        <ele>778.38439941406</ele>
        <time>2012-03-18T10:18:49Z</time>
      </trkpt>
      <trkpt lat="43.85962" lon="7.25579">
        <ele>780.09539794922</ele>
        <time>2012-03-18T10:18:55Z</time>
      </trkpt>
      <trkpt lat="43.85943" lon="7.25569">
        <ele>786.30688476562</ele>
        <time>2012-03-18T10:18:59Z</time>
      </trkpt>
      <trkpt lat="43.85939" lon="7.25563">
        <ele>785.93951416016</ele>
        <time>2012-03-18T10:19:00Z</time>
      </trkpt>
      <trkpt lat="43.8594" lon="7.25533">
        <ele>778.63916015625</ele>
        <time>2012-03-18T10:19:04Z</time>
      </trkpt>
      <trkpt lat="43.85931" lon="7.25514">
        <ele>775.79443359375</ele>
        <time>2012-03-18T10:19:08Z</time>
      </trkpt>
      <trkpt lat="43.85926" lon="7.25512">
        <ele>776.89727783203</ele>
        <time>2012-03-18T10:19:09Z</time>
      </trkpt>
      <trkpt lat="43.85918" lon="7.25506">
        <ele>778.93231201172</ele>
        <time>2012-03-18T10:19:11Z</time>
      </trkpt>
      <trkpt lat="43.85905" lon="7.25494">
        <ele>779.58081054688</ele>
        <time>2012-03-18T10:19:14Z</time>
      </trkpt>
      <trkpt lat="43.85892" lon="7.25476">
        <ele>779.65155029297</ele>
        <time>2012-03-18T10:19:17Z</time>
      </trkpt>
      <trkpt lat="43.85883" lon="7.25461">
        <ele>779.19226074219</ele>
        <time>2012-03-18T10:19:19Z</time>
      </trkpt>
      <trkpt lat="43.85867" lon="7.25443">
        <ele>778.67364501953</ele>
        <time>2012-03-18T10:19:22Z</time>
      </trkpt>
      <trkpt lat="43.85857" lon="7.25435">
        <ele>779.51403808594</ele>
        <time>2012-03-18T10:19:24Z</time>
      </trkpt>
      <trkpt lat="43.85843" lon="7.2542">
        <ele>779.82263183594</ele>
        <time>2012-03-18T10:19:28Z</time>
      </trkpt>
      <trkpt lat="43.85835" lon="7.25407">
        <ele>779.00103759766</ele>
        <time>2012-03-18T10:19:32Z</time>
      </trkpt>
      <trkpt lat="43.85817" lon="7.25392">
        <ele>780.69055175781</ele>
        <time>2012-03-18T10:19:37Z</time>
      </trkpt>
      <trkpt lat="43.85793" lon="7.25392">
        <ele>785.1943359375</ele>
        <time>2012-03-18T10:19:44Z</time>
      </trkpt>
      <trkpt lat="43.85789" lon="7.25392">
        <ele>785.63891601562</ele>
        <time>2012-03-18T10:19:46Z</time>
      </trkpt>
      <trkpt lat="43.85782" lon="7.25401">
        <ele>787.732421875</ele>
        <time>2012-03-18T10:19:52Z</time>
      </trkpt>
      <trkpt lat="43.85773" lon="7.25411">
        <ele>789.41223144531</ele>
        <time>2012-03-18T10:19:58Z</time>
      </trkpt>
      <trkpt lat="43.85763" lon="7.25418">
        <ele>790.17443847656</ele>
        <time>2012-03-18T10:20:03Z</time>
      </trkpt>
      <trkpt lat="43.85762" lon="7.2542">
        <ele>790.34948730469</ele>
        <time>2012-03-18T10:20:04Z</time>
      </trkpt>
      <trkpt lat="43.85749" lon="7.25424">
        <ele>790.85815429688</ele>
        <time>2012-03-18T10:20:10Z</time>
      </trkpt>
      <trkpt lat="43.8574" lon="7.25421">
        <ele>790.76782226562</ele>
        <time>2012-03-18T10:20:14Z</time>
      </trkpt>
      <trkpt lat="43.85734" lon="7.25414">
        <ele>790.27026367188</ele>
        <time>2012-03-18T10:20:18Z</time>
      </trkpt>
      <trkpt lat="43.8572" lon="7.25409">
        <ele>789.36468505859</ele>
        <time>2012-03-18T10:20:22Z</time>
      </trkpt>
      <trkpt lat="43.85697" lon="7.254">
        <ele>780.53460693359</ele>
        <time>2012-03-18T10:20:28Z</time>
      </trkpt>
      <trkpt lat="43.85692" lon="7.25397">
        <ele>778.48474121094</ele>
        <time>2012-03-18T10:20:29Z</time>
      </trkpt>
      <trkpt lat="43.85666" lon="7.25395">
        <ele>766.19989013672</ele>
        <time>2012-03-18T10:20:33Z</time>
      </trkpt>
      <trkpt lat="43.85647" lon="7.25394">
        <ele>762.83526611328</ele>
        <time>2012-03-18T10:20:39Z</time>
      </trkpt>
      <trkpt lat="43.85639" lon="7.2539">
        <ele>760.44317626953</ele>
        <time>2012-03-18T10:20:41Z</time>
      </trkpt>
      <trkpt lat="43.85619" lon="7.25388">
        <ele>759.15631103516</ele>
        <time>2012-03-18T10:20:44Z</time>
      </trkpt>
      <trkpt lat="43.856" lon="7.25383">
        <ele>758.79724121094</ele>
        <time>2012-03-18T10:20:47Z</time>
      </trkpt>
      <trkpt lat="43.85576" lon="7.25375">
        <ele>758.56091308594</ele>
        <time>2012-03-18T10:20:51Z</time>
      </trkpt>
      <trkpt lat="43.8556" lon="7.25371">
        <ele>759.82135009766</ele>
        <time>2012-03-18T10:20:54Z</time>
      </trkpt>
      <trkpt lat="43.8555" lon="7.25364">
        <ele>758.28295898438</ele>
        <time>2012-03-18T10:20:56Z</time>
      </trkpt>
      <trkpt lat="43.85538" lon="7.2536">
        <ele>757.18133544922</ele>
        <time>2012-03-18T10:20:58Z</time>
      </trkpt>
      <trkpt lat="43.85517" lon="7.25357">
        <ele>757.61181640625</ele>
        <time>2012-03-18T10:21:02Z</time>
      </trkpt>
      <trkpt lat="43.85514" lon="7.2535">
        <ele>754.82360839844</ele>
        <time>2012-03-18T10:21:03Z</time>
      </trkpt>
      <trkpt lat="43.85484" lon="7.25335">
        <ele>750.41479492188</ele>
        <time>2012-03-18T10:21:08Z</time>
      </trkpt>
      <trkpt lat="43.85468" lon="7.25345">
        <ele>756.59820556641</ele>
        <time>2012-03-18T10:21:12Z</time>
      </trkpt>
      <trkpt lat="43.85461" lon="7.2534">
        <ele>754.51678466797</ele>
        <time>2012-03-18T10:21:14Z</time>
      </trkpt>
      <trkpt lat="43.85452" lon="7.25331">
        <ele>750.84448242188</ele>
        <time>2012-03-18T10:21:17Z</time>
      </trkpt>
      <trkpt lat="43.85437" lon="7.25332">
        <ele>751.56213378906</ele>
        <time>2012-03-18T10:21:20Z</time>
      </trkpt>
      <trkpt lat="43.85413" lon="7.25326">
        <ele>749.32781982422</ele>
        <time>2012-03-18T10:21:25Z</time>
      </trkpt>
      <trkpt lat="43.85407" lon="7.25323">
        <ele>747.59912109375</ele>
        <time>2012-03-18T10:21:26Z</time>
      </trkpt>
      <trkpt lat="43.8537" lon="7.25308">
        <ele>741.94299316406</ele>
        <time>2012-03-18T10:21:31Z</time>
      </trkpt>
      <trkpt lat="43.85362" lon="7.25306">
        <ele>741.20141601562</ele>
        <time>2012-03-18T10:21:32Z</time>
      </trkpt>
      <trkpt lat="43.85328" lon="7.25304">
        <ele>738.88000488281</ele>
        <time>2012-03-18T10:21:36Z</time>
      </trkpt>
      <trkpt lat="43.85272" lon="7.25319">
        <ele>738.05499267578</ele>
        <time>2012-03-18T10:21:42Z</time>
      </trkpt>
      <trkpt lat="43.85222" lon="7.25331">
        <ele>736.68139648438</ele>
        <time>2012-03-18T10:21:47Z</time>
      </trkpt>
      <trkpt lat="43.85192" lon="7.2534">
        <ele>737.84729003906</ele>
        <time>2012-03-18T10:21:51Z</time>
      </trkpt>
      <trkpt lat="43.8518" lon="7.25328">
        <ele>737.23559570312</ele>
        <time>2012-03-18T10:21:54Z</time>
      </trkpt>
      <trkpt lat="43.85178" lon="7.25319">
        <ele>735.74798583984</ele>
        <time>2012-03-18T10:21:57Z</time>
      </trkpt>
      <trkpt lat="43.8518" lon="7.25317">
        <ele>735.29064941406</ele>
        <time>2012-03-18T10:22:07Z</time>
      </trkpt>
      <trkpt lat="43.85179" lon="7.2531">
        <ele>734.30126953125</ele>
        <time>2012-03-18T10:22:30Z</time>
      </trkpt>
      <trkpt lat="43.8517" lon="7.253">
        <ele>732.908203125</ele>
        <time>2012-03-18T10:22:34Z</time>
      </trkpt>
      <trkpt lat="43.85149" lon="7.25286">
        <ele>728.80908203125</ele>
        <time>2012-03-18T10:22:39Z</time>
      </trkpt>
      <trkpt lat="43.85144" lon="7.2528">
        <ele>727.13702392578</ele>
        <time>2012-03-18T10:22:40Z</time>
      </trkpt>
      <trkpt lat="43.85126" lon="7.25256">
        <ele>720.51702880859</ele>
        <time>2012-03-18T10:22:45Z</time>
      </trkpt>
      <trkpt lat="43.85119" lon="7.2525">
        <ele>718.52154541016</ele>
        <time>2012-03-18T10:22:47Z</time>
      </trkpt>
      <trkpt lat="43.85105" lon="7.25243">
        <ele>715.60858154297</ele>
        <time>2012-03-18T10:22:50Z</time>
      </trkpt>
      <trkpt lat="43.85088" lon="7.25232">
        <ele>710.74609375</ele>
        <time>2012-03-18T10:22:54Z</time>
      </trkpt>
      <trkpt lat="43.85062" lon="7.25214">
        <ele>701.6474609375</ele>
        <time>2012-03-18T10:23:00Z</time>
      </trkpt>
      <trkpt lat="43.85044" lon="7.25212">
        <ele>697.85681152344</ele>
        <time>2012-03-18T10:23:05Z</time>
      </trkpt>
      <trkpt lat="43.85032" lon="7.2521">
        <ele>695.15142822266</ele>
        <time>2012-03-18T10:23:08Z</time>
      </trkpt>
      <trkpt lat="43.8502" lon="7.25203">
        <ele>692.33740234375</ele>
        <time>2012-03-18T10:23:11Z</time>
      </trkpt>
      <trkpt lat="43.85014" lon="7.252">
        <ele>691.73315429688</ele>
        <time>2012-03-18T10:23:12Z</time>
      </trkpt>
      <trkpt lat="43.84989" lon="7.25192">
        <ele>690.84344482422</ele>
        <time>2012-03-18T10:23:16Z</time>
      </trkpt>
      <trkpt lat="43.84963" lon="7.25188">
        <ele>692.24261474609</ele>
        <time>2012-03-18T10:23:20Z</time>
      </trkpt>
      <trkpt lat="43.84949" lon="7.2518">
        <ele>691.07458496094</ele>
        <time>2012-03-18T10:23:24Z</time>
      </trkpt>
      <trkpt lat="43.84924" lon="7.25176">
        <ele>690.9013671875</ele>
        <time>2012-03-18T10:23:29Z</time>
      </trkpt>
      <trkpt lat="43.84915" lon="7.25172">
        <ele>690.31091308594</ele>
        <time>2012-03-18T10:23:31Z</time>
      </trkpt>
      <trkpt lat="43.84902" lon="7.25168">
        <ele>688.73846435547</ele>
        <time>2012-03-18T10:23:35Z</time>
      </trkpt>
      <trkpt lat="43.84885" lon="7.25146">
        <ele>682.86596679688</ele>
        <time>2012-03-18T10:23:42Z</time>
      </trkpt>
      <trkpt lat="43.84883" lon="7.25141">
        <ele>681.49615478516</ele>
        <time>2012-03-18T10:23:45Z</time>
      </trkpt>
      <trkpt lat="43.84886" lon="7.25138">
        <ele>680.79046630859</ele>
        <time>2012-03-18T10:23:59Z</time>
      </trkpt>
      <trkpt lat="43.84887" lon="7.2514">
        <ele>681.19573974609</ele>
        <time>2012-03-18T10:24:13Z</time>
      </trkpt>
      <trkpt lat="43.84888" lon="7.25135">
        <ele>679.74365234375</ele>
        <time>2012-03-18T10:24:22Z</time>
      </trkpt>
      <trkpt lat="43.84883" lon="7.25124">
        <ele>676.13684082031</ele>
        <time>2012-03-18T10:24:25Z</time>
      </trkpt>
      <trkpt lat="43.84881" lon="7.25118">
        <ele>674.44525146484</ele>
        <time>2012-03-18T10:24:26Z</time>
      </trkpt>
      <trkpt lat="43.84867" lon="7.25107">
        <ele>671.67120361328</ele>
        <time>2012-03-18T10:24:30Z</time>
      </trkpt>
      <trkpt lat="43.84866" lon="7.25104">
        <ele>670.88507080078</ele>
        <time>2012-03-18T10:24:31Z</time>
      </trkpt>
      <trkpt lat="43.84856" lon="7.25082">
        <ele>665.94256591797</ele>
        <time>2012-03-18T10:24:36Z</time>
      </trkpt>
      <trkpt lat="43.84841" lon="7.25079">
        <ele>665.96923828125</ele>
        <time>2012-03-18T10:24:39Z</time>
      </trkpt>
      <trkpt lat="43.84831" lon="7.25081">
        <ele>666.58282470703</ele>
        <time>2012-03-18T10:24:41Z</time>
      </trkpt>
      <trkpt lat="43.84816" lon="7.25077">
        <ele>665.52886962891</ele>
        <time>2012-03-18T10:24:44Z</time>
      </trkpt>
      <trkpt lat="43.84801" lon="7.25067">
        <ele>663.79144287109</ele>
        <time>2012-03-18T10:24:47Z</time>
      </trkpt>
      <trkpt lat="43.84788" lon="7.25055">
        <ele>661.63562011719</ele>
        <time>2012-03-18T10:24:51Z</time>
      </trkpt>
      <trkpt lat="43.84775" lon="7.25044">
        <ele>659.73455810547</ele>
        <time>2012-03-18T10:24:55Z</time>
      </trkpt>
      <trkpt lat="43.84772" lon="7.25048">
        <ele>660.13385009766</ele>
        <time>2012-03-18T10:24:58Z</time>
      </trkpt>
      <trkpt lat="43.84774" lon="7.2505">
        <ele>660.31591796875</ele>
        <time>2012-03-18T10:25:02Z</time>
      </trkpt>
      <trkpt lat="43.84777" lon="7.25051">
        <ele>660.51995849609</ele>
        <time>2012-03-18T10:25:09Z</time>
      </trkpt>
      <trkpt lat="43.84777" lon="7.25053">
        <ele>660.7080078125</ele>
        <time>2012-03-18T10:25:28Z</time>
      </trkpt>
      <trkpt lat="43.84776" lon="7.25054">
        <ele>660.74664306641</ele>
        <time>2012-03-18T10:25:41Z</time>
      </trkpt>
      <trkpt lat="43.84776" lon="7.25053">
        <ele>660.69183349609</ele>
        <time>2012-03-18T10:25:59Z</time>
      </trkpt>
      <trkpt lat="43.84775" lon="7.25054">
        <ele>660.75146484375</ele>
        <time>2012-03-18T10:26:01Z</time>
      </trkpt>
      <trkpt lat="43.84771" lon="7.25068">
        <ele>661.41534423828</ele>
        <time>2012-03-18T10:26:07Z</time>
      </trkpt>
      <trkpt lat="43.84766" lon="7.25075">
        <ele>661.43444824219</ele>
        <time>2012-03-18T10:26:13Z</time>
      </trkpt>
      <trkpt lat="43.84765" lon="7.25076">
        <ele>661.31555175781</ele>
        <time>2012-03-18T10:26:19Z</time>
      </trkpt>
      <trkpt lat="43.84761" lon="7.25076">
        <ele>661.02575683594</ele>
        <time>2012-03-18T10:26:34Z</time>
      </trkpt>
      <trkpt lat="43.84757" lon="7.25081">
        <ele>660.69708251953</ele>
        <time>2012-03-18T10:28:14Z</time>
      </trkpt>
      <trkpt lat="43.84766" lon="7.25076">
        <ele>661.40240478516</ele>
        <time>2012-03-18T10:31:26Z</time>
      </trkpt>
      <trkpt lat="43.84766" lon="7.25079">
        <ele>661.59851074219</ele>
        <time>2012-03-18T10:31:52Z</time>
      </trkpt>
      <trkpt lat="43.84759" lon="7.25089">
        <ele>661.01434326172</ele>
        <time>2012-03-18T10:31:58Z</time>
      </trkpt>
      <trkpt lat="43.84745" lon="7.25099">
        <ele>659.50396728516</ele>
        <time>2012-03-18T10:32:04Z</time>
      </trkpt>
      <trkpt lat="43.84741" lon="7.25102">
        <ele>659.00958251953</ele>
        <time>2012-03-18T10:32:06Z</time>
      </trkpt>
      <trkpt lat="43.84725" lon="7.25112">
        <ele>657.39349365234</ele>
        <time>2012-03-18T10:32:13Z</time>
      </trkpt>
      <trkpt lat="43.84716" lon="7.25124">
        <ele>656.51226806641</ele>
        <time>2012-03-18T10:32:19Z</time>
      </trkpt>
      <trkpt lat="43.84708" lon="7.25132">
        <ele>655.95751953125</ele>
        <time>2012-03-18T10:32:24Z</time>
      </trkpt>
      <trkpt lat="43.8469" lon="7.25129">
        <ele>652.35815429688</ele>
        <time>2012-03-18T10:32:32Z</time>
      </trkpt>
      <trkpt lat="43.8468" lon="7.25131">
        <ele>651.63995361328</ele>
        <time>2012-03-18T10:32:36Z</time>
      </trkpt>
      <trkpt lat="43.84669" lon="7.25132">
        <ele>650.61389160156</ele>
        <time>2012-03-18T10:32:41Z</time>
      </trkpt>
      <trkpt lat="43.84653" lon="7.25135">
        <ele>651.07452392578</ele>
        <time>2012-03-18T10:32:48Z</time>
      </trkpt>
      <trkpt lat="43.84649" lon="7.25137">
        <ele>651.78643798828</ele>
        <time>2012-03-18T10:32:50Z</time>
      </trkpt>
      <trkpt lat="43.84636" lon="7.25139">
        <ele>651.73272705078</ele>
        <time>2012-03-18T10:32:57Z</time>
      </trkpt>
      <trkpt lat="43.84621" lon="7.25144">
        <ele>652.15893554688</ele>
        <time>2012-03-18T10:33:04Z</time>
      </trkpt>
      <trkpt lat="43.84612" lon="7.25148">
        <ele>652.40814208984</ele>
        <time>2012-03-18T10:33:09Z</time>
      </trkpt>
      <trkpt lat="43.8461" lon="7.2515">
        <ele>652.62506103516</ele>
        <time>2012-03-18T10:33:10Z</time>
      </trkpt>
      <trkpt lat="43.84598" lon="7.25154">
        <ele>652.79602050781</ele>
        <time>2012-03-18T10:33:16Z</time>
      </trkpt>
      <trkpt lat="43.84591" lon="7.25157">
        <ele>652.98223876953</ele>
        <time>2012-03-18T10:33:19Z</time>
      </trkpt>
      <trkpt lat="43.84587" lon="7.25172">
        <ele>656.65740966797</ele>
        <time>2012-03-18T10:33:24Z</time>
      </trkpt>
      <trkpt lat="43.84581" lon="7.25186">
        <ele>659.54028320312</ele>
        <time>2012-03-18T10:33:28Z</time>
      </trkpt>
      <trkpt lat="43.84572" lon="7.25199">
        <ele>662.02777099609</ele>
        <time>2012-03-18T10:33:34Z</time>
      </trkpt>
      <trkpt lat="43.84558" lon="7.25207">
        <ele>662.55291748047</ele>
        <time>2012-03-18T10:33:40Z</time>
      </trkpt>
      <trkpt lat="43.84546" lon="7.25215">
        <ele>662.36987304688</ele>
        <time>2012-03-18T10:33:46Z</time>
      </trkpt>
      <trkpt lat="43.84534" lon="7.2522">
        <ele>661.56140136719</ele>
        <time>2012-03-18T10:33:51Z</time>
      </trkpt>
      <trkpt lat="43.84518" lon="7.25227">
        <ele>661.16766357422</ele>
        <time>2012-03-18T10:33:59Z</time>
      </trkpt>
      <trkpt lat="43.84509" lon="7.2523">
        <ele>661.27233886719</ele>
        <time>2012-03-18T10:34:03Z</time>
      </trkpt>
      <trkpt lat="43.84512" lon="7.25238">
        <ele>661.58135986328</ele>
        <time>2012-03-18T10:34:08Z</time>
      </trkpt>
      <trkpt lat="43.84523" lon="7.25242">
        <ele>661.71868896484</ele>
        <time>2012-03-18T10:34:14Z</time>
      </trkpt>
      <trkpt lat="43.84531" lon="7.25244">
        <ele>662.61022949219</ele>
        <time>2012-03-18T10:34:19Z</time>
      </trkpt>
      <trkpt lat="43.84544" lon="7.25252">
        <ele>667.455078125</ele>
        <time>2012-03-18T10:34:28Z</time>
      </trkpt>
      <trkpt lat="43.84551" lon="7.25256">
        <ele>670.52850341797</ele>
        <time>2012-03-18T10:34:34Z</time>
      </trkpt>
      <trkpt lat="43.84563" lon="7.2526">
        <ele>674.00360107422</ele>
        <time>2012-03-18T10:34:42Z</time>
      </trkpt>
      <trkpt lat="43.84573" lon="7.25261">
        <ele>675.60467529297</ele>
        <time>2012-03-18T10:34:49Z</time>
      </trkpt>
      <trkpt lat="43.84583" lon="7.2526">
        <ele>677.18878173828</ele>
        <time>2012-03-18T10:34:56Z</time>
      </trkpt>
      <trkpt lat="43.84594" lon="7.2526">
        <ele>678.03253173828</ele>
        <time>2012-03-18T10:35:04Z</time>
      </trkpt>
      <trkpt lat="43.84605" lon="7.25261">
        <ele>678.89428710938</ele>
        <time>2012-03-18T10:35:12Z</time>
      </trkpt>
      <trkpt lat="43.84616" lon="7.25263">
        <ele>680.15484619141</ele>
        <time>2012-03-18T10:35:20Z</time>
      </trkpt>
      <trkpt lat="43.84627" lon="7.25264">
        <ele>680.85925292969</ele>
        <time>2012-03-18T10:35:28Z</time>
      </trkpt>
      <trkpt lat="43.84641" lon="7.25264">
        <ele>681.55706787109</ele>
        <time>2012-03-18T10:35:37Z</time>
      </trkpt>
      <trkpt lat="43.84652" lon="7.25266">
        <ele>681.91680908203</ele>
        <time>2012-03-18T10:35:44Z</time>
      </trkpt>
      <trkpt lat="43.84668" lon="7.25268">
        <ele>682.37353515625</ele>
        <time>2012-03-18T10:35:53Z</time>
      </trkpt>
      <trkpt lat="43.84683" lon="7.25271">
        <ele>683.99163818359</ele>
        <time>2012-03-18T10:36:02Z</time>
      </trkpt>
      <trkpt lat="43.84694" lon="7.25276">
        <ele>685.72027587891</ele>
        <time>2012-03-18T10:36:09Z</time>
      </trkpt>
      <trkpt lat="43.84696" lon="7.25276">
        <ele>686.11059570312</ele>
        <time>2012-03-18T10:36:14Z</time>
      </trkpt>
      <trkpt lat="43.84698" lon="7.25277">
        <ele>686.92669677734</ele>
        <time>2012-03-18T10:36:21Z</time>
      </trkpt>
      <trkpt lat="43.84699" lon="7.25277">
        <ele>687.33587646484</ele>
        <time>2012-03-18T10:36:29Z</time>
      </trkpt>
      <trkpt lat="43.84701" lon="7.25277">
        <ele>687.79901123047</ele>
        <time>2012-03-18T10:36:41Z</time>
      </trkpt>
      <trkpt lat="43.84705" lon="7.25276">
        <ele>688.59362792969</ele>
        <time>2012-03-18T10:36:47Z</time>
      </trkpt>
      <trkpt lat="43.8471" lon="7.25279">
        <ele>690.87445068359</ele>
        <time>2012-03-18T10:36:54Z</time>
      </trkpt>
      <trkpt lat="43.84727" lon="7.2529">
        <ele>697.35223388672</ele>
        <time>2012-03-18T10:37:03Z</time>
      </trkpt>
      <trkpt lat="43.84747" lon="7.25303">
        <ele>701.3896484375</ele>
        <time>2012-03-18T10:37:09Z</time>
      </trkpt>
      <trkpt lat="43.8477" lon="7.25317">
        <ele>701.5810546875</ele>
        <time>2012-03-18T10:37:15Z</time>
      </trkpt>
      <trkpt lat="43.84795" lon="7.25337">
        <ele>704.50531005859</ele>
        <time>2012-03-18T10:37:20Z</time>
      </trkpt>
      <trkpt lat="43.8483" lon="7.25366">
        <ele>708.52587890625</ele>
        <time>2012-03-18T10:37:26Z</time>
      </trkpt>
      <trkpt lat="43.84871" lon="7.25403">
        <ele>705.54138183594</ele>
        <time>2012-03-18T10:37:32Z</time>
      </trkpt>
      <trkpt lat="43.84906" lon="7.25431">
        <ele>702.63781738281</ele>
        <time>2012-03-18T10:37:37Z</time>
      </trkpt>
      <trkpt lat="43.84913" lon="7.25436">
        <ele>702.98175048828</ele>
        <time>2012-03-18T10:37:38Z</time>
      </trkpt>
      <trkpt lat="43.84936" lon="7.25447">
        <ele>702.73559570312</ele>
        <time>2012-03-18T10:37:41Z</time>
      </trkpt>
      <trkpt lat="43.84966" lon="7.25462">
        <ele>701.23260498047</ele>
        <time>2012-03-18T10:37:45Z</time>
      </trkpt>
      <trkpt lat="43.85007" lon="7.25494">
        <ele>695.76580810547</ele>
        <time>2012-03-18T10:37:51Z</time>
      </trkpt>
      <trkpt lat="43.85041" lon="7.25529">
        <ele>689.56591796875</ele>
        <time>2012-03-18T10:37:56Z</time>
      </trkpt>
      <trkpt lat="43.85059" lon="7.25546">
        <ele>687.90240478516</ele>
        <time>2012-03-18T10:37:59Z</time>
      </trkpt>
      <trkpt lat="43.85073" lon="7.25561">
        <ele>684.92974853516</ele>
        <time>2012-03-18T10:38:03Z</time>
      </trkpt>
      <trkpt lat="43.85074" lon="7.25563">
        <ele>684.53149414062</ele>
        <time>2012-03-18T10:38:04Z</time>
      </trkpt>
      <trkpt lat="43.85076" lon="7.25571">
        <ele>682.47155761719</ele>
        <time>2012-03-18T10:38:08Z</time>
      </trkpt>
      <trkpt lat="43.85068" lon="7.25582">
        <ele>678.29675292969</ele>
        <time>2012-03-18T10:38:14Z</time>
      </trkpt>
      <trkpt lat="43.85061" lon="7.25594">
        <ele>675.07623291016</ele>
        <time>2012-03-18T10:38:19Z</time>
      </trkpt>
      <trkpt lat="43.85053" lon="7.25612">
        <ele>669.86328125</ele>
        <time>2012-03-18T10:38:24Z</time>
      </trkpt>
      <trkpt lat="43.85052" lon="7.25636">
        <ele>665.77117919922</ele>
        <time>2012-03-18T10:38:29Z</time>
      </trkpt>
      <trkpt lat="43.85055" lon="7.25673">
        <ele>665.44659423828</ele>
        <time>2012-03-18T10:38:35Z</time>
      </trkpt>
      <trkpt lat="43.85054" lon="7.25682">
        <ele>664.91522216797</ele>
        <time>2012-03-18T10:38:36Z</time>
      </trkpt>
      <trkpt lat="43.8506" lon="7.25729">
        <ele>665.70935058594</ele>
        <time>2012-03-18T10:38:41Z</time>
      </trkpt>
      <trkpt lat="43.85065" lon="7.25745">
        <ele>666.80047607422</ele>
        <time>2012-03-18T10:38:43Z</time>
      </trkpt>
      <trkpt lat="43.85067" lon="7.25769">
        <ele>666.49102783203</ele>
        <time>2012-03-18T10:38:47Z</time>
      </trkpt>
      <trkpt lat="43.85066" lon="7.25781">
        <ele>664.99652099609</ele>
        <time>2012-03-18T10:38:50Z</time>
      </trkpt>
      <trkpt lat="43.8507" lon="7.25803">
        <ele>665.54467773438</ele>
        <time>2012-03-18T10:38:54Z</time>
      </trkpt>
      <trkpt lat="43.85083" lon="7.25826">
        <ele>667.55590820312</ele>
        <time>2012-03-18T10:38:59Z</time>
      </trkpt>
      <trkpt lat="43.85086" lon="7.25837">
        <ele>668.86804199219</ele>
        <time>2012-03-18T10:39:01Z</time>
      </trkpt>
      <trkpt lat="43.85084" lon="7.25854">
        <ele>670.07409667969</ele>
        <time>2012-03-18T10:39:05Z</time>
      </trkpt>
      <trkpt lat="43.85075" lon="7.25855">
        <ele>668.14526367188</ele>
        <time>2012-03-18T10:39:09Z</time>
      </trkpt>
      <trkpt lat="43.85059" lon="7.25863">
        <ele>665.35693359375</ele>
        <time>2012-03-18T10:39:18Z</time>
      </trkpt>
      <trkpt lat="43.85049" lon="7.25864">
        <ele>666.11743164062</ele>
        <time>2012-03-18T10:39:24Z</time>
      </trkpt>
      <trkpt lat="43.8504" lon="7.25858">
        <ele>666.740234375</ele>
        <time>2012-03-18T10:39:32Z</time>
      </trkpt>
      <trkpt lat="43.85035" lon="7.25857">
        <ele>667.63775634766</ele>
        <time>2012-03-18T10:39:35Z</time>
      </trkpt>
      <trkpt lat="43.85025" lon="7.25845">
        <ele>666.89312744141</ele>
        <time>2012-03-18T10:39:43Z</time>
      </trkpt>
      <trkpt lat="43.85018" lon="7.25842">
        <ele>667.29821777344</ele>
        <time>2012-03-18T10:39:49Z</time>
      </trkpt>
      <trkpt lat="43.85013" lon="7.25845">
        <ele>668.72644042969</ele>
        <time>2012-03-18T10:39:53Z</time>
      </trkpt>
      <trkpt lat="43.85011" lon="7.25854">
        <ele>670.93060302734</ele>
        <time>2012-03-18T10:39:58Z</time>
      </trkpt>
      <trkpt lat="43.85007" lon="7.25861">
        <ele>672.84631347656</ele>
        <time>2012-03-18T10:40:04Z</time>
      </trkpt>
      <trkpt lat="43.85002" lon="7.25868">
        <ele>675.06695556641</ele>
        <time>2012-03-18T10:40:11Z</time>
      </trkpt>
      <trkpt lat="43.84999" lon="7.25871">
        <ele>676.47680664062</ele>
        <time>2012-03-18T10:40:14Z</time>
      </trkpt>
      <trkpt lat="43.84995" lon="7.25881">
        <ele>680.46862792969</ele>
        <time>2012-03-18T10:40:21Z</time>
      </trkpt>
      <trkpt lat="43.84989" lon="7.25877">
        <ele>681.95629882812</ele>
        <time>2012-03-18T10:40:26Z</time>
      </trkpt>
      <trkpt lat="43.84987" lon="7.25879">
        <ele>683.12066650391</ele>
        <time>2012-03-18T10:40:30Z</time>
      </trkpt>
      <trkpt lat="43.84989" lon="7.25886">
        <ele>683.76538085938</ele>
        <time>2012-03-18T10:40:35Z</time>
      </trkpt>
      <trkpt lat="43.8499" lon="7.25891">
        <ele>684.51959228516</ele>
        <time>2012-03-18T10:40:39Z</time>
      </trkpt>
      <trkpt lat="43.84988" lon="7.25895">
        <ele>685.94470214844</ele>
        <time>2012-03-18T10:40:43Z</time>
      </trkpt>
      <trkpt lat="43.84983" lon="7.25891">
        <ele>687.02880859375</ele>
        <time>2012-03-18T10:40:50Z</time>
      </trkpt>
      <trkpt lat="43.84979" lon="7.25885">
        <ele>687.529296875</ele>
        <time>2012-03-18T10:40:57Z</time>
      </trkpt>
      <trkpt lat="43.84974" lon="7.25882">
        <ele>689.14813232422</ele>
        <time>2012-03-18T10:41:04Z</time>
      </trkpt>
      <trkpt lat="43.84969" lon="7.25878">
        <ele>690.49768066406</ele>
        <time>2012-03-18T10:41:11Z</time>
      </trkpt>
      <trkpt lat="43.84966" lon="7.25873">
        <ele>691.17889404297</ele>
        <time>2012-03-18T10:41:17Z</time>
      </trkpt>
      <trkpt lat="43.84963" lon="7.25869">
        <ele>691.93029785156</ele>
        <time>2012-03-18T10:41:24Z</time>
      </trkpt>
      <trkpt lat="43.8496" lon="7.25866">
        <ele>692.94915771484</ele>
        <time>2012-03-18T10:41:30Z</time>
      </trkpt>
      <trkpt lat="43.84958" lon="7.25874">
        <ele>695.27923583984</ele>
        <time>2012-03-18T10:41:37Z</time>
      </trkpt>
      <trkpt lat="43.84954" lon="7.25878">
        <ele>697.36193847656</ele>
        <time>2012-03-18T10:41:43Z</time>
      </trkpt>
      <trkpt lat="43.84949" lon="7.25873">
        <ele>699.07464599609</ele>
        <time>2012-03-18T10:41:50Z</time>
      </trkpt>
      <trkpt lat="43.84945" lon="7.25879">
        <ele>701.73211669922</ele>
        <time>2012-03-18T10:41:56Z</time>
      </trkpt>
      <trkpt lat="43.84941" lon="7.25886">
        <ele>702.28424072266</ele>
        <time>2012-03-18T10:42:03Z</time>
      </trkpt>
      <trkpt lat="43.84935" lon="7.25888">
        <ele>701.88531494141</ele>
        <time>2012-03-18T10:42:10Z</time>
      </trkpt>
      <trkpt lat="43.84929" lon="7.25887">
        <ele>701.09167480469</ele>
        <time>2012-03-18T10:42:19Z</time>
      </trkpt>
      <trkpt lat="43.84925" lon="7.25886">
        <ele>700.29895019531</ele>
        <time>2012-03-18T10:42:26Z</time>
      </trkpt>
      <trkpt lat="43.84918" lon="7.25886">
        <ele>699.56958007812</ele>
        <time>2012-03-18T10:42:35Z</time>
      </trkpt>
      <trkpt lat="43.8491" lon="7.2589">
        <ele>697.45727539062</ele>
        <time>2012-03-18T10:42:44Z</time>
      </trkpt>
      <trkpt lat="43.84905" lon="7.25893">
        <ele>695.96099853516</ele>
        <time>2012-03-18T10:42:51Z</time>
      </trkpt>
      <trkpt lat="43.84899" lon="7.25899">
        <ele>694.62408447266</ele>
        <time>2012-03-18T10:42:57Z</time>
      </trkpt>
      <trkpt lat="43.84892" lon="7.25911">
        <ele>694.75463867188</ele>
        <time>2012-03-18T10:43:04Z</time>
      </trkpt>
      <trkpt lat="43.84887" lon="7.25923">
        <ele>695.17663574219</ele>
        <time>2012-03-18T10:43:11Z</time>
      </trkpt>
      <trkpt lat="43.84881" lon="7.25936">
        <ele>694.7841796875</ele>
        <time>2012-03-18T10:43:18Z</time>
      </trkpt>
      <trkpt lat="43.84876" lon="7.2595">
        <ele>695.44329833984</ele>
        <time>2012-03-18T10:43:25Z</time>
      </trkpt>
      <trkpt lat="43.84872" lon="7.25968">
        <ele>697.77520751953</ele>
        <time>2012-03-18T10:43:33Z</time>
      </trkpt>
      <trkpt lat="43.84866" lon="7.25987">
        <ele>700.74841308594</ele>
        <time>2012-03-18T10:43:42Z</time>
      </trkpt>
      <trkpt lat="43.8486" lon="7.26001">
        <ele>703.31622314453</ele>
        <time>2012-03-18T10:43:50Z</time>
      </trkpt>
      <trkpt lat="43.84853" lon="7.26014">
        <ele>706.68597412109</ele>
        <time>2012-03-18T10:43:57Z</time>
      </trkpt>
      <trkpt lat="43.84851" lon="7.26019">
        <ele>707.90020751953</ele>
        <time>2012-03-18T10:43:59Z</time>
      </trkpt>
      <trkpt lat="43.84845" lon="7.26022">
        <ele>708.78460693359</ele>
        <time>2012-03-18T10:44:03Z</time>
      </trkpt>
      <trkpt lat="43.84832" lon="7.26022">
        <ele>708.20690917969</ele>
        <time>2012-03-18T10:44:10Z</time>
      </trkpt>
      <trkpt lat="43.84826" lon="7.26023">
        <ele>708.37683105469</ele>
        <time>2012-03-18T10:44:14Z</time>
      </trkpt>
      <trkpt lat="43.84821" lon="7.26025">
        <ele>709.11840820312</ele>
        <time>2012-03-18T10:44:20Z</time>
      </trkpt>
      <trkpt lat="43.84819" lon="7.26025">
        <ele>709.16479492188</ele>
        <time>2012-03-18T10:44:21Z</time>
      </trkpt>
      <trkpt lat="43.84814" lon="7.26023">
        <ele>708.34594726562</ele>
        <time>2012-03-18T10:44:25Z</time>
      </trkpt>
      <trkpt lat="43.8481" lon="7.26023">
        <ele>708.43865966797</ele>
        <time>2012-03-18T10:44:29Z</time>
      </trkpt>
      <trkpt lat="43.84806" lon="7.26024">
        <ele>708.71673583984</ele>
        <time>2012-03-18T10:44:33Z</time>
      </trkpt>
      <trkpt lat="43.84797" lon="7.26028">
        <ele>709.73461914062</ele>
        <time>2012-03-18T10:44:43Z</time>
      </trkpt>
      <trkpt lat="43.84795" lon="7.26031">
        <ele>710.80895996094</ele>
        <time>2012-03-18T10:44:48Z</time>
      </trkpt>
      <trkpt lat="43.84786" lon="7.26039">
        <ele>713.13623046875</ele>
        <time>2012-03-18T10:44:55Z</time>
      </trkpt>
      <trkpt lat="43.84773" lon="7.26051">
        <ele>716.21771240234</ele>
        <time>2012-03-18T10:45:05Z</time>
      </trkpt>
      <trkpt lat="43.84767" lon="7.26057">
        <ele>717.65783691406</ele>
        <time>2012-03-18T10:45:11Z</time>
      </trkpt>
      <trkpt lat="43.84763" lon="7.26059">
        <ele>718.16528320312</ele>
        <time>2012-03-18T10:45:14Z</time>
      </trkpt>
      <trkpt lat="43.84757" lon="7.26065">
        <ele>719.60223388672</ele>
        <time>2012-03-18T10:45:20Z</time>
      </trkpt>
      <trkpt lat="43.84754" lon="7.26066">
        <ele>719.62683105469</ele>
        <time>2012-03-18T10:45:22Z</time>
      </trkpt>
      <trkpt lat="43.84741" lon="7.26071">
        <ele>720.14459228516</ele>
        <time>2012-03-18T10:45:31Z</time>
      </trkpt>
      <trkpt lat="43.84733" lon="7.26077">
        <ele>721.14447021484</ele>
        <time>2012-03-18T10:45:37Z</time>
      </trkpt>
      <trkpt lat="43.84726" lon="7.26082">
        <ele>721.24505615234</ele>
        <time>2012-03-18T10:45:43Z</time>
      </trkpt>
      <trkpt lat="43.84718" lon="7.26086">
        <ele>722.51696777344</ele>
        <time>2012-03-18T10:45:50Z</time>
      </trkpt>
      <trkpt lat="43.84708" lon="7.26097">
        <ele>727.01440429688</ele>
        <time>2012-03-18T10:45:58Z</time>
      </trkpt>
      <trkpt lat="43.84699" lon="7.26101">
        <ele>729.11071777344</ele>
        <time>2012-03-18T10:46:05Z</time>
      </trkpt>
      <trkpt lat="43.84697" lon="7.26103">
        <ele>729.56781005859</ele>
        <time>2012-03-18T10:46:07Z</time>
      </trkpt>
      <trkpt lat="43.84686" lon="7.26108">
        <ele>732.89526367188</ele>
        <time>2012-03-18T10:46:16Z</time>
      </trkpt>
      <trkpt lat="43.84679" lon="7.26122">
        <ele>736.96270751953</ele>
        <time>2012-03-18T10:46:25Z</time>
      </trkpt>
      <trkpt lat="43.84674" lon="7.26131">
        <ele>739.28765869141</ele>
        <time>2012-03-18T10:46:31Z</time>
      </trkpt>
      <trkpt lat="43.84665" lon="7.26134">
        <ele>740.68212890625</ele>
        <time>2012-03-18T10:46:38Z</time>
      </trkpt>
      <trkpt lat="43.8466" lon="7.26142">
        <ele>743.88360595703</ele>
        <time>2012-03-18T10:46:43Z</time>
      </trkpt>
      <trkpt lat="43.84659" lon="7.26143">
        <ele>744.67932128906</ele>
        <time>2012-03-18T10:46:44Z</time>
      </trkpt>
      <trkpt lat="43.8465" lon="7.26148">
        <ele>748.33666992188</ele>
        <time>2012-03-18T10:46:51Z</time>
      </trkpt>
      <trkpt lat="43.84649" lon="7.26148">
        <ele>748.72735595703</ele>
        <time>2012-03-18T10:46:52Z</time>
      </trkpt>
      <trkpt lat="43.84637" lon="7.26148">
        <ele>751.72991943359</ele>
        <time>2012-03-18T10:47:00Z</time>
      </trkpt>
      <trkpt lat="43.84627" lon="7.26148">
        <ele>754.94274902344</ele>
        <time>2012-03-18T10:47:08Z</time>
      </trkpt>
      <trkpt lat="43.84612" lon="7.26149">
        <ele>759.41363525391</ele>
        <time>2012-03-18T10:47:18Z</time>
      </trkpt>
      <trkpt lat="43.8461" lon="7.26149">
        <ele>759.76977539062</ele>
        <time>2012-03-18T10:47:20Z</time>
      </trkpt>
      <trkpt lat="43.84603" lon="7.26145">
        <ele>760.77502441406</ele>
        <time>2012-03-18T10:47:26Z</time>
      </trkpt>
      <trkpt lat="43.84602" lon="7.26152">
        <ele>760.36309814453</ele>
        <time>2012-03-18T10:47:31Z</time>
      </trkpt>
      <trkpt lat="43.84602" lon="7.26157">
        <ele>760.08337402344</ele>
        <time>2012-03-18T10:47:36Z</time>
      </trkpt>
      <trkpt lat="43.84602" lon="7.26158">
        <ele>759.95452880859</ele>
        <time>2012-03-18T10:47:51Z</time>
      </trkpt>
      <trkpt lat="43.84604" lon="7.26163">
        <ele>759.45788574219</ele>
        <time>2012-03-18T10:55:36Z</time>
      </trkpt>
      <trkpt lat="43.84604" lon="7.26162">
        <ele>759.57440185547</ele>
        <time>2012-03-18T10:55:49Z</time>
      </trkpt>
      <trkpt lat="43.84604" lon="7.26163">
        <ele>759.48272705078</ele>
        <time>2012-03-18T10:56:27Z</time>
      </trkpt>
      <trkpt lat="43.84603" lon="7.26164">
        <ele>759.49359130859</ele>
        <time>2012-03-18T10:57:02Z</time>
      </trkpt>
      <trkpt lat="43.84601" lon="7.26163">
        <ele>759.65545654297</ele>
        <time>2012-03-18T10:57:20Z</time>
      </trkpt>
      <trkpt lat="43.846" lon="7.26166">
        <ele>759.4794921875</ele>
        <time>2012-03-18T10:57:28Z</time>
      </trkpt>
      <trkpt lat="43.84598" lon="7.26172">
        <ele>759.21984863281</ele>
        <time>2012-03-18T10:57:32Z</time>
      </trkpt>
      <trkpt lat="43.84591" lon="7.26182">
        <ele>758.56170654297</ele>
        <time>2012-03-18T10:57:38Z</time>
      </trkpt>
      <trkpt lat="43.84589" lon="7.26193">
        <ele>757.56195068359</ele>
        <time>2012-03-18T10:57:42Z</time>
      </trkpt>
      <trkpt lat="43.84586" lon="7.26205">
        <ele>756.28845214844</ele>
        <time>2012-03-18T10:57:47Z</time>
      </trkpt>
      <trkpt lat="43.84586" lon="7.26207">
        <ele>755.94989013672</ele>
        <time>2012-03-18T10:57:48Z</time>
      </trkpt>
      <trkpt lat="43.84579" lon="7.26226">
        <ele>753.17340087891</ele>
        <time>2012-03-18T10:57:56Z</time>
      </trkpt>
      <trkpt lat="43.84575" lon="7.26241">
        <ele>753.39245605469</ele>
        <time>2012-03-18T10:58:03Z</time>
      </trkpt>
      <trkpt lat="43.84569" lon="7.26255">
        <ele>753.53869628906</ele>
        <time>2012-03-18T10:58:10Z</time>
      </trkpt>
      <trkpt lat="43.84565" lon="7.2627">
        <ele>755.57330322266</ele>
        <time>2012-03-18T10:58:17Z</time>
      </trkpt>
      <trkpt lat="43.84565" lon="7.26272">
        <ele>755.96105957031</ele>
        <time>2012-03-18T10:58:18Z</time>
      </trkpt>
      <trkpt lat="43.84563" lon="7.26287">
        <ele>758.51092529297</ele>
        <time>2012-03-18T10:58:24Z</time>
      </trkpt>
      <trkpt lat="43.84554" lon="7.26298">
        <ele>756.61529541016</ele>
        <time>2012-03-18T10:58:31Z</time>
      </trkpt>
      <trkpt lat="43.84545" lon="7.26309">
        <ele>754.43072509766</ele>
        <time>2012-03-18T10:58:38Z</time>
      </trkpt>
      <trkpt lat="43.8454" lon="7.26313">
        <ele>753.24224853516</ele>
        <time>2012-03-18T10:58:43Z</time>
      </trkpt>
      <trkpt lat="43.84537" lon="7.26317">
        <ele>753.03961181641</ele>
        <time>2012-03-18T10:58:47Z</time>
      </trkpt>
      <trkpt lat="43.84531" lon="7.26325">
        <ele>752.84246826172</ele>
        <time>2012-03-18T10:58:55Z</time>
      </trkpt>
      <trkpt lat="43.84525" lon="7.2633">
        <ele>751.29724121094</ele>
        <time>2012-03-18T10:59:03Z</time>
      </trkpt>
      <trkpt lat="43.84522" lon="7.2633">
        <ele>750.19805908203</ele>
        <time>2012-03-18T10:59:08Z</time>
      </trkpt>
      <trkpt lat="43.84516" lon="7.26338">
        <ele>749.86090087891</ele>
        <time>2012-03-18T10:59:13Z</time>
      </trkpt>
      <trkpt lat="43.84509" lon="7.26352">
        <ele>752.50543212891</ele>
        <time>2012-03-18T10:59:20Z</time>
      </trkpt>
      <trkpt lat="43.84501" lon="7.26364">
        <ele>753.90509033203</ele>
        <time>2012-03-18T10:59:26Z</time>
      </trkpt>
      <trkpt lat="43.84481" lon="7.26373">
        <ele>747.91290283203</ele>
        <time>2012-03-18T10:59:32Z</time>
      </trkpt>
      <trkpt lat="43.8447" lon="7.26388">
        <ele>750.92517089844</ele>
        <time>2012-03-18T10:59:37Z</time>
      </trkpt>
      <trkpt lat="43.84462" lon="7.26403">
        <ele>754.37359619141</ele>
        <time>2012-03-18T10:59:44Z</time>
      </trkpt>
      <trkpt lat="43.84457" lon="7.26409">
        <ele>754.81030273438</ele>
        <time>2012-03-18T10:59:50Z</time>
      </trkpt>
      <trkpt lat="43.84453" lon="7.26412">
        <ele>754.61541748047</ele>
        <time>2012-03-18T10:59:55Z</time>
      </trkpt>
      <trkpt lat="43.84446" lon="7.26418">
        <ele>754.64318847656</ele>
        <time>2012-03-18T11:00:03Z</time>
      </trkpt>
      <trkpt lat="43.84443" lon="7.26425">
        <ele>755.80895996094</ele>
        <time>2012-03-18T11:00:09Z</time>
      </trkpt>
      <trkpt lat="43.84439" lon="7.26429">
        <ele>756.51593017578</ele>
        <time>2012-03-18T11:00:17Z</time>
      </trkpt>
      <trkpt lat="43.84436" lon="7.26433">
        <ele>757.12103271484</ele>
        <time>2012-03-18T11:00:24Z</time>
      </trkpt>
      <trkpt lat="43.84433" lon="7.26438">
        <ele>757.65283203125</ele>
        <time>2012-03-18T11:00:32Z</time>
      </trkpt>
      <trkpt lat="43.84427" lon="7.26439">
        <ele>755.95404052734</ele>
        <time>2012-03-18T11:01:22Z</time>
      </trkpt>
      <trkpt lat="43.84424" lon="7.2644">
        <ele>754.82659912109</ele>
        <time>2012-03-18T11:01:28Z</time>
      </trkpt>
      <trkpt lat="43.8442" lon="7.2644">
        <ele>753.22528076172</ele>
        <time>2012-03-18T11:01:35Z</time>
      </trkpt>
      <trkpt lat="43.84418" lon="7.26444">
        <ele>754.37768554688</ele>
        <time>2012-03-18T11:02:04Z</time>
      </trkpt>
      <trkpt lat="43.84411" lon="7.26448">
        <ele>752.64910888672</ele>
        <time>2012-03-18T11:02:11Z</time>
      </trkpt>
      <trkpt lat="43.84401" lon="7.26457">
        <ele>751.77465820312</ele>
        <time>2012-03-18T11:02:19Z</time>
      </trkpt>
      <trkpt lat="43.84395" lon="7.2647">
        <ele>754.18981933594</ele>
        <time>2012-03-18T11:02:25Z</time>
      </trkpt>
      <trkpt lat="43.84393" lon="7.26476">
        <ele>755.85607910156</ele>
        <time>2012-03-18T11:02:29Z</time>
      </trkpt>
      <trkpt lat="43.84389" lon="7.2648">
        <ele>755.89904785156</ele>
        <time>2012-03-18T11:02:33Z</time>
      </trkpt>
      <trkpt lat="43.84387" lon="7.26484">
        <ele>756.75616455078</ele>
        <time>2012-03-18T11:02:36Z</time>
      </trkpt>
      <trkpt lat="43.84385" lon="7.26485">
        <ele>756.55639648438</ele>
        <time>2012-03-18T11:02:41Z</time>
      </trkpt>
      <trkpt lat="43.84382" lon="7.26488">
        <ele>756.61975097656</ele>
        <time>2012-03-18T11:02:45Z</time>
      </trkpt>
      <trkpt lat="43.84376" lon="7.26494">
        <ele>756.67498779297</ele>
        <time>2012-03-18T11:02:52Z</time>
      </trkpt>
      <trkpt lat="43.84373" lon="7.26496">
        <ele>756.70227050781</ele>
        <time>2012-03-18T11:02:54Z</time>
      </trkpt>
      <trkpt lat="43.84368" lon="7.26504">
        <ele>757.74920654297</ele>
        <time>2012-03-18T11:03:00Z</time>
      </trkpt>
      <trkpt lat="43.84364" lon="7.26508">
        <ele>757.48553466797</ele>
        <time>2012-03-18T11:03:04Z</time>
      </trkpt>
      <trkpt lat="43.84357" lon="7.26519">
        <ele>758.92742919922</ele>
        <time>2012-03-18T11:03:11Z</time>
      </trkpt>
      <trkpt lat="43.84355" lon="7.26528">
        <ele>761.58337402344</ele>
        <time>2012-03-18T11:03:16Z</time>
      </trkpt>
      <trkpt lat="43.84357" lon="7.2654">
        <ele>764.22540283203</ele>
        <time>2012-03-18T11:03:22Z</time>
      </trkpt>
      <trkpt lat="43.84358" lon="7.26547">
        <ele>765.64599609375</ele>
        <time>2012-03-18T11:03:29Z</time>
      </trkpt>
      <trkpt lat="43.84361" lon="7.26551">
        <ele>767.1142578125</ele>
        <time>2012-03-18T11:03:33Z</time>
      </trkpt>
      <trkpt lat="43.84362" lon="7.26555">
        <ele>768.61248779297</ele>
        <time>2012-03-18T11:03:36Z</time>
      </trkpt>
      <trkpt lat="43.84366" lon="7.26565">
        <ele>772.83471679688</ele>
        <time>2012-03-18T11:03:42Z</time>
      </trkpt>
      <trkpt lat="43.84367" lon="7.26571">
        <ele>774.57733154297</ele>
        <time>2012-03-18T11:03:45Z</time>
      </trkpt>
      <trkpt lat="43.84373" lon="7.26586">
        <ele>781.55426025391</ele>
        <time>2012-03-18T11:03:52Z</time>
      </trkpt>
      <trkpt lat="43.84381" lon="7.26597">
        <ele>787.18243408203</ele>
        <time>2012-03-18T11:03:58Z</time>
      </trkpt>
      <trkpt lat="43.84388" lon="7.26609">
        <ele>792.47314453125</ele>
        <time>2012-03-18T11:04:04Z</time>
      </trkpt>
      <trkpt lat="43.84394" lon="7.26619">
        <ele>795.978515625</ele>
        <time>2012-03-18T11:04:10Z</time>
      </trkpt>
      <trkpt lat="43.84396" lon="7.26626">
        <ele>797.224609375</ele>
        <time>2012-03-18T11:04:14Z</time>
      </trkpt>
      <trkpt lat="43.84396" lon="7.26637">
        <ele>797.81018066406</ele>
        <time>2012-03-18T11:04:20Z</time>
      </trkpt>
      <trkpt lat="43.84395" lon="7.2664">
        <ele>797.76397705078</ele>
        <time>2012-03-18T11:04:23Z</time>
      </trkpt>
      <trkpt lat="43.84387" lon="7.26646">
        <ele>795.61926269531</ele>
        <time>2012-03-18T11:04:30Z</time>
      </trkpt>
      <trkpt lat="43.84375" lon="7.26652">
        <ele>789.65228271484</ele>
        <time>2012-03-18T11:04:38Z</time>
      </trkpt>
      <trkpt lat="43.84373" lon="7.26653">
        <ele>788.84814453125</ele>
        <time>2012-03-18T11:04:42Z</time>
      </trkpt>
      <trkpt lat="43.8437" lon="7.26657">
        <ele>787.97576904297</ele>
        <time>2012-03-18T11:04:45Z</time>
      </trkpt>
      <trkpt lat="43.84366" lon="7.26658">
        <ele>785.83966064453</ele>
        <time>2012-03-18T11:04:50Z</time>
      </trkpt>
      <trkpt lat="43.84363" lon="7.26659">
        <ele>784.591796875</ele>
        <time>2012-03-18T11:04:53Z</time>
      </trkpt>
      <trkpt lat="43.84357" lon="7.26666">
        <ele>783.93121337891</ele>
        <time>2012-03-18T11:05:02Z</time>
      </trkpt>
      <trkpt lat="43.84351" lon="7.26665">
        <ele>782.5439453125</ele>
        <time>2012-03-18T11:05:07Z</time>
      </trkpt>
      <trkpt lat="43.84339" lon="7.26666">
        <ele>780.18572998047</ele>
        <time>2012-03-18T11:05:15Z</time>
      </trkpt>
      <trkpt lat="43.8433" lon="7.2667">
        <ele>780.19281005859</ele>
        <time>2012-03-18T11:05:21Z</time>
      </trkpt>
      <trkpt lat="43.84319" lon="7.26675">
        <ele>779.74890136719</ele>
        <time>2012-03-18T11:05:28Z</time>
      </trkpt>
      <trkpt lat="43.84312" lon="7.26678">
        <ele>779.55114746094</ele>
        <time>2012-03-18T11:05:33Z</time>
      </trkpt>
      <trkpt lat="43.84305" lon="7.26679">
        <ele>778.22766113281</ele>
        <time>2012-03-18T11:05:38Z</time>
      </trkpt>
      <trkpt lat="43.84294" lon="7.26684">
        <ele>778.02258300781</ele>
        <time>2012-03-18T11:05:46Z</time>
      </trkpt>
      <trkpt lat="43.84286" lon="7.26691">
        <ele>778.53399658203</ele>
        <time>2012-03-18T11:05:52Z</time>
      </trkpt>
      <trkpt lat="43.84281" lon="7.26695">
        <ele>779.13500976562</ele>
        <time>2012-03-18T11:05:56Z</time>
      </trkpt>
      <trkpt lat="43.84273" lon="7.267">
        <ele>779.68902587891</ele>
        <time>2012-03-18T11:06:03Z</time>
      </trkpt>
      <trkpt lat="43.8427" lon="7.26703">
        <ele>780.28125</ele>
        <time>2012-03-18T11:06:09Z</time>
      </trkpt>
      <trkpt lat="43.84262" lon="7.26706">
        <ele>780.30712890625</ele>
        <time>2012-03-18T11:06:15Z</time>
      </trkpt>
      <trkpt lat="43.84253" lon="7.26712">
        <ele>781.84838867188</ele>
        <time>2012-03-18T11:06:23Z</time>
      </trkpt>
      <trkpt lat="43.84246" lon="7.26717">
        <ele>782.49383544922</ele>
        <time>2012-03-18T11:06:29Z</time>
      </trkpt>
      <trkpt lat="43.84246" lon="7.26719">
        <ele>783.08636474609</ele>
        <time>2012-03-18T11:06:30Z</time>
      </trkpt>
      <trkpt lat="43.84241" lon="7.26722">
        <ele>783.15655517578</ele>
        <time>2012-03-18T11:06:36Z</time>
      </trkpt>
      <trkpt lat="43.84238" lon="7.26724">
        <ele>783.51257324219</ele>
        <time>2012-03-18T11:06:42Z</time>
      </trkpt>
      <trkpt lat="43.84235" lon="7.26727">
        <ele>784.78057861328</ele>
        <time>2012-03-18T11:06:48Z</time>
      </trkpt>
      <trkpt lat="43.8423" lon="7.2673">
        <ele>785.24169921875</ele>
        <time>2012-03-18T11:06:56Z</time>
      </trkpt>
      <trkpt lat="43.84227" lon="7.26732">
        <ele>785.96685791016</ele>
        <time>2012-03-18T11:07:01Z</time>
      </trkpt>
      <trkpt lat="43.84224" lon="7.26738">
        <ele>788.70666503906</ele>
        <time>2012-03-18T11:07:09Z</time>
      </trkpt>
      <trkpt lat="43.84222" lon="7.26739">
        <ele>788.65533447266</ele>
        <time>2012-03-18T11:07:14Z</time>
      </trkpt>
      <trkpt lat="43.84215" lon="7.26746">
        <ele>791.22546386719</ele>
        <time>2012-03-18T11:07:21Z</time>
      </trkpt>
      <trkpt lat="43.84209" lon="7.26756">
        <ele>795.15466308594</ele>
        <time>2012-03-18T11:07:27Z</time>
      </trkpt>
      <trkpt lat="43.84208" lon="7.26758">
        <ele>795.78063964844</ele>
        <time>2012-03-18T11:07:31Z</time>
      </trkpt>
      <trkpt lat="43.84203" lon="7.26762">
        <ele>796.04895019531</ele>
        <time>2012-03-18T11:07:37Z</time>
      </trkpt>
      <trkpt lat="43.84196" lon="7.2677">
        <ele>798.71130371094</ele>
        <time>2012-03-18T11:07:45Z</time>
      </trkpt>
      <trkpt lat="43.84192" lon="7.26776">
        <ele>800.431640625</ele>
        <time>2012-03-18T11:07:52Z</time>
      </trkpt>
      <trkpt lat="43.84187" lon="7.26783">
        <ele>802.11724853516</ele>
        <time>2012-03-18T11:07:59Z</time>
      </trkpt>
      <trkpt lat="43.84183" lon="7.26788">
        <ele>803.02648925781</ele>
        <time>2012-03-18T11:08:07Z</time>
      </trkpt>
      <trkpt lat="43.84179" lon="7.26791">
        <ele>803.07623291016</ele>
        <time>2012-03-18T11:08:14Z</time>
      </trkpt>
      <trkpt lat="43.84171" lon="7.26801">
        <ele>805.06915283203</ele>
        <time>2012-03-18T11:08:21Z</time>
      </trkpt>
      <trkpt lat="43.84163" lon="7.2681">
        <ele>806.52520751953</ele>
        <time>2012-03-18T11:08:29Z</time>
      </trkpt>
      <trkpt lat="43.84161" lon="7.26812">
        <ele>807.07452392578</ele>
        <time>2012-03-18T11:08:31Z</time>
      </trkpt>
      <trkpt lat="43.84156" lon="7.26819">
        <ele>808.62976074219</ele>
        <time>2012-03-18T11:08:36Z</time>
      </trkpt>
      <trkpt lat="43.8415" lon="7.26829">
        <ele>811.04675292969</ele>
        <time>2012-03-18T11:08:43Z</time>
      </trkpt>
      <trkpt lat="43.84146" lon="7.26836">
        <ele>812.72711181641</ele>
        <time>2012-03-18T11:08:47Z</time>
      </trkpt>
      <trkpt lat="43.84142" lon="7.26842">
        <ele>814.38409423828</ele>
        <time>2012-03-18T11:08:52Z</time>
      </trkpt>
      <trkpt lat="43.84138" lon="7.26843">
        <ele>814.03649902344</ele>
        <time>2012-03-18T11:08:56Z</time>
      </trkpt>
      <trkpt lat="43.84134" lon="7.26846">
        <ele>813.88543701172</ele>
        <time>2012-03-18T11:09:00Z</time>
      </trkpt>
      <trkpt lat="43.84129" lon="7.26854">
        <ele>815.74621582031</ele>
        <time>2012-03-18T11:09:09Z</time>
      </trkpt>
      <trkpt lat="43.84124" lon="7.2686">
        <ele>817.38049316406</ele>
        <time>2012-03-18T11:09:17Z</time>
      </trkpt>
      <trkpt lat="43.84118" lon="7.26864">
        <ele>817.08947753906</ele>
        <time>2012-03-18T11:09:23Z</time>
      </trkpt>
      <trkpt lat="43.84118" lon="7.26865">
        <ele>817.33099365234</ele>
        <time>2012-03-18T11:09:24Z</time>
      </trkpt>
      <trkpt lat="43.84113" lon="7.26868">
        <ele>817.57733154297</ele>
        <time>2012-03-18T11:09:29Z</time>
      </trkpt>
      <trkpt lat="43.84106" lon="7.26874">
        <ele>818.10455322266</ele>
        <time>2012-03-18T11:09:38Z</time>
      </trkpt>
      <trkpt lat="43.84101" lon="7.26876">
        <ele>817.66577148438</ele>
        <time>2012-03-18T11:09:45Z</time>
      </trkpt>
      <trkpt lat="43.84096" lon="7.26881">
        <ele>818.78948974609</ele>
        <time>2012-03-18T11:09:53Z</time>
      </trkpt>
      <trkpt lat="43.84092" lon="7.26887">
        <ele>820.87121582031</ele>
        <time>2012-03-18T11:10:00Z</time>
      </trkpt>
      <trkpt lat="43.84089" lon="7.26891">
        <ele>822.00421142578</ele>
        <time>2012-03-18T11:10:06Z</time>
      </trkpt>
      <trkpt lat="43.84082" lon="7.26895">
        <ele>822.25012207031</ele>
        <time>2012-03-18T11:10:14Z</time>
      </trkpt>
      <trkpt lat="43.84077" lon="7.26897">
        <ele>820.62200927734</ele>
        <time>2012-03-18T11:10:22Z</time>
      </trkpt>
      <trkpt lat="43.84073" lon="7.26899">
        <ele>820.04913330078</ele>
        <time>2012-03-18T11:10:29Z</time>
      </trkpt>
      <trkpt lat="43.84068" lon="7.26907">
        <ele>821.30438232422</ele>
        <time>2012-03-18T11:10:35Z</time>
      </trkpt>
      <trkpt lat="43.84067" lon="7.26913">
        <ele>823.04150390625</ele>
        <time>2012-03-18T11:10:38Z</time>
      </trkpt>
      <trkpt lat="43.8406" lon="7.26922">
        <ele>823.36706542969</ele>
        <time>2012-03-18T11:10:44Z</time>
      </trkpt>
      <trkpt lat="43.84058" lon="7.26923">
        <ele>823.36022949219</ele>
        <time>2012-03-18T11:10:45Z</time>
      </trkpt>
      <trkpt lat="43.84053" lon="7.26935">
        <ele>825.68353271484</ele>
        <time>2012-03-18T11:10:51Z</time>
      </trkpt>
      <trkpt lat="43.84048" lon="7.26943">
        <ele>826.99407958984</ele>
        <time>2012-03-18T11:10:57Z</time>
      </trkpt>
      <trkpt lat="43.84043" lon="7.2695">
        <ele>827.90679931641</ele>
        <time>2012-03-18T11:11:04Z</time>
      </trkpt>
      <trkpt lat="43.84037" lon="7.26955">
        <ele>828.11108398438</ele>
        <time>2012-03-18T11:11:12Z</time>
      </trkpt>
      <trkpt lat="43.84032" lon="7.26962">
        <ele>829.44140625</ele>
        <time>2012-03-18T11:11:18Z</time>
      </trkpt>
      <trkpt lat="43.84029" lon="7.26968">
        <ele>830.89709472656</ele>
        <time>2012-03-18T11:11:22Z</time>
      </trkpt>
      <trkpt lat="43.84029" lon="7.26976">
        <ele>833.36016845703</ele>
        <time>2012-03-18T11:11:25Z</time>
      </trkpt>
      <trkpt lat="43.84025" lon="7.26982">
        <ele>834.55084228516</ele>
        <time>2012-03-18T11:11:31Z</time>
      </trkpt>
      <trkpt lat="43.84019" lon="7.26989">
        <ele>835.19110107422</ele>
        <time>2012-03-18T11:11:40Z</time>
      </trkpt>
      <trkpt lat="43.84016" lon="7.26993">
        <ele>835.80395507812</ele>
        <time>2012-03-18T11:11:45Z</time>
      </trkpt>
      <trkpt lat="43.84014" lon="7.26994">
        <ele>835.69067382812</ele>
        <time>2012-03-18T11:11:47Z</time>
      </trkpt>
      <trkpt lat="43.8401" lon="7.27">
        <ele>836.49060058594</ele>
        <time>2012-03-18T11:11:51Z</time>
      </trkpt>
      <trkpt lat="43.84008" lon="7.27003">
        <ele>836.96405029297</ele>
        <time>2012-03-18T11:11:53Z</time>
      </trkpt>
      <trkpt lat="43.84007" lon="7.2701">
        <ele>838.70721435547</ele>
        <time>2012-03-18T11:11:56Z</time>
      </trkpt>
      <trkpt lat="43.83998" lon="7.27018">
        <ele>839.53588867188</ele>
        <time>2012-03-18T11:12:01Z</time>
      </trkpt>
      <trkpt lat="43.83993" lon="7.27029">
        <ele>841.55712890625</ele>
        <time>2012-03-18T11:12:06Z</time>
      </trkpt>
      <trkpt lat="43.83987" lon="7.27042">
        <ele>843.79901123047</ele>
        <time>2012-03-18T11:12:13Z</time>
      </trkpt>
      <trkpt lat="43.83986" lon="7.27045">
        <ele>844.37847900391</ele>
        <time>2012-03-18T11:12:14Z</time>
      </trkpt>
      <trkpt lat="43.83979" lon="7.27055">
        <ele>846.22027587891</ele>
        <time>2012-03-18T11:12:20Z</time>
      </trkpt>
      <trkpt lat="43.83973" lon="7.27059">
        <ele>846.20690917969</ele>
        <time>2012-03-18T11:12:25Z</time>
      </trkpt>
      <trkpt lat="43.83967" lon="7.27061">
        <ele>846.22406005859</ele>
        <time>2012-03-18T11:12:32Z</time>
      </trkpt>
      <trkpt lat="43.83965" lon="7.27063">
        <ele>846.32702636719</ele>
        <time>2012-03-18T11:12:34Z</time>
      </trkpt>
      <trkpt lat="43.83961" lon="7.27065">
        <ele>846.36138916016</ele>
        <time>2012-03-18T11:12:40Z</time>
      </trkpt>
      <trkpt lat="43.83955" lon="7.27068">
        <ele>846.43005371094</ele>
        <time>2012-03-18T11:12:44Z</time>
      </trkpt>
      <trkpt lat="43.83946" lon="7.27077">
        <ele>848.07800292969</ele>
        <time>2012-03-18T11:12:51Z</time>
      </trkpt>
      <trkpt lat="43.83943" lon="7.27077">
        <ele>847.46789550781</ele>
        <time>2012-03-18T11:12:57Z</time>
      </trkpt>
      <trkpt lat="43.83939" lon="7.27076">
        <ele>846.71606445312</ele>
        <time>2012-03-18T11:13:09Z</time>
      </trkpt>
      <trkpt lat="43.83938" lon="7.27078">
        <ele>846.994140625</ele>
        <time>2012-03-18T11:13:15Z</time>
      </trkpt>
      <trkpt lat="43.83945" lon="7.27089">
        <ele>851.68518066406</ele>
        <time>2012-03-18T11:16:22Z</time>
      </trkpt>
      <trkpt lat="43.83943" lon="7.27088">
        <ele>851.02355957031</ele>
        <time>2012-03-18T11:16:50Z</time>
      </trkpt>
      <trkpt lat="43.83938" lon="7.27092">
        <ele>851.44366455078</ele>
        <time>2012-03-18T11:17:29Z</time>
      </trkpt>
      <trkpt lat="43.83937" lon="7.27092">
        <ele>851.24713134766</ele>
        <time>2012-03-18T11:17:30Z</time>
      </trkpt>
      <trkpt lat="43.83926" lon="7.27094">
        <ele>849.99731445312</ele>
        <time>2012-03-18T11:17:36Z</time>
      </trkpt>
      <trkpt lat="43.83916" lon="7.27096">
        <ele>849.09545898438</ele>
        <time>2012-03-18T11:17:41Z</time>
      </trkpt>
      <trkpt lat="43.839" lon="7.27101">
        <ele>849.31518554688</ele>
        <time>2012-03-18T11:17:49Z</time>
      </trkpt>
      <trkpt lat="43.83885" lon="7.27109">
        <ele>850.07818603516</ele>
        <time>2012-03-18T11:17:57Z</time>
      </trkpt>
      <trkpt lat="43.83871" lon="7.27113">
        <ele>850.27648925781</ele>
        <time>2012-03-18T11:18:02Z</time>
      </trkpt>
      <trkpt lat="43.83852" lon="7.27124">
        <ele>854.24658203125</ele>
        <time>2012-03-18T11:18:07Z</time>
      </trkpt>
      <trkpt lat="43.83833" lon="7.27122">
        <ele>857.79681396484</ele>
        <time>2012-03-18T11:18:14Z</time>
      </trkpt>
      <trkpt lat="43.83826" lon="7.27121">
        <ele>859.15551757812</ele>
        <time>2012-03-18T11:18:17Z</time>
      </trkpt>
      <trkpt lat="43.83819" lon="7.27111">
        <ele>858.74468994141</ele>
        <time>2012-03-18T11:18:23Z</time>
      </trkpt>
      <trkpt lat="43.83815" lon="7.27102">
        <ele>857.41790771484</ele>
        <time>2012-03-18T11:18:29Z</time>
      </trkpt>
      <trkpt lat="43.83807" lon="7.27097">
        <ele>858.04272460938</ele>
        <time>2012-03-18T11:18:34Z</time>
      </trkpt>
      <trkpt lat="43.83799" lon="7.27091">
        <ele>858.24438476562</ele>
        <time>2012-03-18T11:18:40Z</time>
      </trkpt>
      <trkpt lat="43.83791" lon="7.27088">
        <ele>859.29028320312</ele>
        <time>2012-03-18T11:18:44Z</time>
      </trkpt>
      <trkpt lat="43.83783" lon="7.27082">
        <ele>859.3916015625</ele>
        <time>2012-03-18T11:18:50Z</time>
      </trkpt>
      <trkpt lat="43.83779" lon="7.27081">
        <ele>860.05078125</ele>
        <time>2012-03-18T11:18:52Z</time>
      </trkpt>
      <trkpt lat="43.83762" lon="7.2708">
        <ele>862.45635986328</ele>
        <time>2012-03-18T11:19:01Z</time>
      </trkpt>
      <trkpt lat="43.8376" lon="7.2708">
        <ele>862.62097167969</ele>
        <time>2012-03-18T11:19:02Z</time>
      </trkpt>
      <trkpt lat="43.83752" lon="7.27084">
        <ele>864.71246337891</ele>
        <time>2012-03-18T11:19:08Z</time>
      </trkpt>
      <trkpt lat="43.8375" lon="7.27083">
        <ele>864.95794677734</ele>
        <time>2012-03-18T11:19:10Z</time>
      </trkpt>
      <trkpt lat="43.83741" lon="7.27083">
        <ele>865.48504638672</ele>
        <time>2012-03-18T11:19:17Z</time>
      </trkpt>
      <trkpt lat="43.83728" lon="7.27086">
        <ele>867.08959960938</ele>
        <time>2012-03-18T11:19:25Z</time>
      </trkpt>
      <trkpt lat="43.8372" lon="7.27084">
        <ele>867.3828125</ele>
        <time>2012-03-18T11:19:32Z</time>
      </trkpt>
      <trkpt lat="43.83714" lon="7.27085">
        <ele>867.96636962891</ele>
        <time>2012-03-18T11:19:37Z</time>
      </trkpt>
      <trkpt lat="43.83708" lon="7.27089">
        <ele>868.95416259766</ele>
        <time>2012-03-18T11:19:42Z</time>
      </trkpt>
      <trkpt lat="43.83698" lon="7.271">
        <ele>871.17730712891</ele>
        <time>2012-03-18T11:19:51Z</time>
      </trkpt>
      <trkpt lat="43.83691" lon="7.271">
        <ele>871.54467773438</ele>
        <time>2012-03-18T11:19:57Z</time>
      </trkpt>
      <trkpt lat="43.83679" lon="7.27101">
        <ele>871.95532226562</ele>
        <time>2012-03-18T11:20:06Z</time>
      </trkpt>
      <trkpt lat="43.83664" lon="7.27103">
        <ele>872.41204833984</ele>
        <time>2012-03-18T11:20:16Z</time>
      </trkpt>
      <trkpt lat="43.83659" lon="7.27106">
        <ele>872.69622802734</ele>
        <time>2012-03-18T11:20:19Z</time>
      </trkpt>
      <trkpt lat="43.83652" lon="7.2711">
        <ele>873.27978515625</ele>
        <time>2012-03-18T11:20:26Z</time>
      </trkpt>
      <trkpt lat="43.83644" lon="7.27114">
        <ele>873.73870849609</ele>
        <time>2012-03-18T11:20:33Z</time>
      </trkpt>
      <trkpt lat="43.8364" lon="7.27117">
        <ele>874.06829833984</ele>
        <time>2012-03-18T11:20:36Z</time>
      </trkpt>
      <trkpt lat="43.83634" lon="7.27123">
        <ele>875.13598632812</ele>
        <time>2012-03-18T11:20:41Z</time>
      </trkpt>
      <trkpt lat="43.83624" lon="7.27133">
        <ele>876.79455566406</ele>
        <time>2012-03-18T11:20:49Z</time>
      </trkpt>
      <trkpt lat="43.83611" lon="7.27139">
        <ele>878.02319335938</ele>
        <time>2012-03-18T11:20:56Z</time>
      </trkpt>
      <trkpt lat="43.83603" lon="7.27147">
        <ele>879.77410888672</ele>
        <time>2012-03-18T11:21:02Z</time>
      </trkpt>
      <trkpt lat="43.83586" lon="7.2715">
        <ele>880.45385742188</ele>
        <time>2012-03-18T11:21:11Z</time>
      </trkpt>
      <trkpt lat="43.83582" lon="7.27151">
        <ele>880.54656982422</ele>
        <time>2012-03-18T11:21:13Z</time>
      </trkpt>
      <trkpt lat="43.83567" lon="7.27149">
        <ele>880.2890625</ele>
        <time>2012-03-18T11:21:20Z</time>
      </trkpt>
      <trkpt lat="43.83553" lon="7.2715">
        <ele>880.23986816406</ele>
        <time>2012-03-18T11:21:27Z</time>
      </trkpt>
      <trkpt lat="43.83537" lon="7.27149">
        <ele>879.14495849609</ele>
        <time>2012-03-18T11:21:35Z</time>
      </trkpt>
      <trkpt lat="43.83524" lon="7.2715">
        <ele>878.71270751953</ele>
        <time>2012-03-18T11:21:42Z</time>
      </trkpt>
      <trkpt lat="43.83512" lon="7.27153">
        <ele>878.99597167969</ele>
        <time>2012-03-18T11:21:49Z</time>
      </trkpt>
      <trkpt lat="43.83507" lon="7.27157">
        <ele>879.70666503906</ele>
        <time>2012-03-18T11:21:52Z</time>
      </trkpt>
      <trkpt lat="43.83495" lon="7.27163">
        <ele>880.97924804688</ele>
        <time>2012-03-18T11:22:00Z</time>
      </trkpt>
      <trkpt lat="43.83488" lon="7.27167">
        <ele>881.63653564453</ele>
        <time>2012-03-18T11:22:05Z</time>
      </trkpt>
      <trkpt lat="43.83474" lon="7.27172">
        <ele>882.42797851562</ele>
        <time>2012-03-18T11:22:14Z</time>
      </trkpt>
      <trkpt lat="43.83464" lon="7.27176">
        <ele>882.95391845703</ele>
        <time>2012-03-18T11:22:20Z</time>
      </trkpt>
      <trkpt lat="43.83459" lon="7.27181">
        <ele>883.84228515625</ele>
        <time>2012-03-18T11:22:25Z</time>
      </trkpt>
      <trkpt lat="43.83445" lon="7.27187">
        <ele>884.53479003906</ele>
        <time>2012-03-18T11:22:33Z</time>
      </trkpt>
      <trkpt lat="43.83434" lon="7.27194">
        <ele>884.05340576172</ele>
        <time>2012-03-18T11:22:40Z</time>
      </trkpt>
      <trkpt lat="43.83426" lon="7.27202">
        <ele>884.17364501953</ele>
        <time>2012-03-18T11:22:47Z</time>
      </trkpt>
      <trkpt lat="43.83421" lon="7.27208">
        <ele>884.35943603516</ele>
        <time>2012-03-18T11:22:51Z</time>
      </trkpt>
      <trkpt lat="43.83414" lon="7.27219">
        <ele>884.21051025391</ele>
        <time>2012-03-18T11:22:56Z</time>
      </trkpt>
      <trkpt lat="43.83406" lon="7.27228">
        <ele>882.45971679688</ele>
        <time>2012-03-18T11:23:00Z</time>
      </trkpt>
      <trkpt lat="43.83397" lon="7.27243">
        <ele>882.10278320312</ele>
        <time>2012-03-18T11:23:04Z</time>
      </trkpt>
      <trkpt lat="43.83392" lon="7.27253">
        <ele>882.18304443359</ele>
        <time>2012-03-18T11:23:07Z</time>
      </trkpt>
      <trkpt lat="43.83374" lon="7.27273">
        <ele>875.67218017578</ele>
        <time>2012-03-18T11:23:13Z</time>
      </trkpt>
      <trkpt lat="43.83366" lon="7.2729">
        <ele>874.68933105469</ele>
        <time>2012-03-18T11:23:16Z</time>
      </trkpt>
      <trkpt lat="43.8336" lon="7.27312">
        <ele>877.52880859375</ele>
        <time>2012-03-18T11:23:20Z</time>
      </trkpt>
      <trkpt lat="43.83351" lon="7.27326">
        <ele>878.21893310547</ele>
        <time>2012-03-18T11:23:25Z</time>
      </trkpt>
      <trkpt lat="43.83342" lon="7.27336">
        <ele>878.0244140625</ele>
        <time>2012-03-18T11:23:29Z</time>
      </trkpt>
      <trkpt lat="43.83335" lon="7.27356">
        <ele>877.13916015625</ele>
        <time>2012-03-18T11:23:35Z</time>
      </trkpt>
      <trkpt lat="43.83333" lon="7.27376">
        <ele>876.86322021484</ele>
        <time>2012-03-18T11:23:40Z</time>
      </trkpt>
      <trkpt lat="43.83332" lon="7.27388">
        <ele>876.67840576172</ele>
        <time>2012-03-18T11:23:44Z</time>
      </trkpt>
      <trkpt lat="43.83331" lon="7.27392">
        <ele>876.13854980469</ele>
        <time>2012-03-18T11:23:51Z</time>
      </trkpt>
      <trkpt lat="43.83332" lon="7.27396">
        <ele>875.95477294922</ele>
        <time>2012-03-18T11:24:42Z</time>
      </trkpt>
      <trkpt lat="43.83332" lon="7.27396">
        <ele>875.93572998047</ele>
        <time>2012-03-18T11:25:11Z</time>
      </trkpt>
      <trkpt lat="43.83333" lon="7.27397">
        <ele>875.98126220703</ele>
        <time>2012-03-18T11:25:19Z</time>
      </trkpt>
      <trkpt lat="43.83334" lon="7.27398">
        <ele>876.08306884766</ele>
        <time>2012-03-18T11:25:20Z</time>
      </trkpt>
      <trkpt lat="43.83346" lon="7.27397">
        <ele>878.25817871094</ele>
        <time>2012-03-18T11:25:25Z</time>
      </trkpt>
      <trkpt lat="43.83362" lon="7.27394">
        <ele>881.36334228516</ele>
        <time>2012-03-18T11:25:29Z</time>
      </trkpt>
      <trkpt lat="43.83373" lon="7.27394">
        <ele>883.38836669922</ele>
        <time>2012-03-18T11:25:32Z</time>
      </trkpt>
      <trkpt lat="43.83384" lon="7.27395">
        <ele>885.13232421875</ele>
        <time>2012-03-18T11:25:36Z</time>
      </trkpt>
      <trkpt lat="43.83393" lon="7.27395">
        <ele>887.57202148438</ele>
        <time>2012-03-18T11:25:40Z</time>
      </trkpt>
      <trkpt lat="43.83408" lon="7.2739">
        <ele>895.87615966797</ele>
        <time>2012-03-18T11:25:44Z</time>
      </trkpt>
      <trkpt lat="43.83418" lon="7.27394">
        <ele>897.74426269531</ele>
        <time>2012-03-18T11:25:48Z</time>
      </trkpt>
      <trkpt lat="43.83419" lon="7.27398">
        <ele>895.97961425781</ele>
        <time>2012-03-18T11:25:51Z</time>
      </trkpt>
      <trkpt lat="43.83416" lon="7.27399">
        <ele>894.32312011719</ele>
        <time>2012-03-18T11:25:58Z</time>
      </trkpt>
      <trkpt lat="43.83415" lon="7.27401">
        <ele>893.16412353516</ele>
        <time>2012-03-18T11:25:59Z</time>
      </trkpt>
      <trkpt lat="43.83404" lon="7.27409">
        <ele>885.78558349609</ele>
        <time>2012-03-18T11:26:04Z</time>
      </trkpt>
      <trkpt lat="43.83406" lon="7.27418">
        <ele>881.87335205078</ele>
        <time>2012-03-18T11:26:08Z</time>
      </trkpt>
      <trkpt lat="43.83411" lon="7.27428">
        <ele>877.35186767578</ele>
        <time>2012-03-18T11:26:13Z</time>
      </trkpt>
      <trkpt lat="43.83412" lon="7.27431">
        <ele>875.88397216797</ele>
        <time>2012-03-18T11:26:16Z</time>
      </trkpt>
      <trkpt lat="43.83413" lon="7.27432">
        <ele>875.52935791016</ele>
        <time>2012-03-18T11:26:29Z</time>
      </trkpt>
      <trkpt lat="43.83413" lon="7.27433">
        <ele>875.20721435547</ele>
        <time>2012-03-18T11:26:39Z</time>
      </trkpt>
      <trkpt lat="43.83413" lon="7.27432">
        <ele>875.7978515625</ele>
        <time>2012-03-18T11:26:53Z</time>
      </trkpt>
      <trkpt lat="43.83414" lon="7.27431">
        <ele>876.34234619141</ele>
        <time>2012-03-18T11:27:11Z</time>
      </trkpt>
      <trkpt lat="43.8342" lon="7.27434">
        <ele>875.27655029297</ele>
        <time>2012-03-18T11:29:02Z</time>
      </trkpt>
      <trkpt lat="43.8342" lon="7.27435">
        <ele>875.12811279297</ele>
        <time>2012-03-18T11:29:10Z</time>
      </trkpt>
      <trkpt lat="43.83418" lon="7.27435">
        <ele>874.83715820312</ele>
        <time>2012-03-18T11:29:19Z</time>
      </trkpt>
      <trkpt lat="43.83416" lon="7.27434">
        <ele>874.99005126953</ele>
        <time>2012-03-18T11:29:38Z</time>
      </trkpt>
      <trkpt lat="43.8342" lon="7.27432">
        <ele>876.85589599609</ele>
        <time>2012-03-18T11:29:52Z</time>
      </trkpt>
      <trkpt lat="43.83421" lon="7.27433">
        <ele>876.21588134766</ele>
        <time>2012-03-18T11:29:53Z</time>
      </trkpt>
      <trkpt lat="43.83424" lon="7.27437">
        <ele>874.49908447266</ele>
        <time>2012-03-18T11:29:59Z</time>
      </trkpt>
      <trkpt lat="43.83423" lon="7.27441">
        <ele>871.57763671875</ele>
        <time>2012-03-18T11:30:03Z</time>
      </trkpt>
      <trkpt lat="43.8342" lon="7.27445">
        <ele>868.74914550781</ele>
        <time>2012-03-18T11:30:06Z</time>
      </trkpt>
      <trkpt lat="43.83419" lon="7.2746">
        <ele>862.80108642578</ele>
        <time>2012-03-18T11:30:10Z</time>
      </trkpt>
      <trkpt lat="43.83418" lon="7.27474">
        <ele>857.54327392578</ele>
        <time>2012-03-18T11:30:13Z</time>
      </trkpt>
      <trkpt lat="43.8343" lon="7.27497">
        <ele>853.14245605469</ele>
        <time>2012-03-18T11:30:18Z</time>
      </trkpt>
      <trkpt lat="43.83447" lon="7.27502">
        <ele>853.67498779297</ele>
        <time>2012-03-18T11:30:23Z</time>
      </trkpt>
      <trkpt lat="43.83446" lon="7.27509">
        <ele>852.46453857422</ele>
        <time>2012-03-18T11:30:29Z</time>
      </trkpt>
      <trkpt lat="43.83445" lon="7.2751">
        <ele>852.1689453125</ele>
        <time>2012-03-18T11:30:40Z</time>
      </trkpt>
      <trkpt lat="43.83443" lon="7.2751">
        <ele>851.97808837891</ele>
        <time>2012-03-18T11:31:24Z</time>
      </trkpt>
      <trkpt lat="43.83445" lon="7.27514">
        <ele>851.60961914062</ele>
        <time>2012-03-18T11:31:30Z</time>
      </trkpt>
      <trkpt lat="43.83448" lon="7.27515">
        <ele>851.41357421875</ele>
        <time>2012-03-18T11:31:32Z</time>
      </trkpt>
      <trkpt lat="43.83457" lon="7.27527">
        <ele>849.99407958984</ele>
        <time>2012-03-18T11:31:37Z</time>
      </trkpt>
      <trkpt lat="43.8347" lon="7.27537">
        <ele>849.19671630859</ele>
        <time>2012-03-18T11:31:42Z</time>
      </trkpt>
      <trkpt lat="43.83484" lon="7.27545">
        <ele>845.70269775391</ele>
        <time>2012-03-18T11:31:46Z</time>
      </trkpt>
      <trkpt lat="43.83496" lon="7.27549">
        <ele>842.03582763672</ele>
        <time>2012-03-18T11:31:49Z</time>
      </trkpt>
      <trkpt lat="43.8351" lon="7.27567">
        <ele>836.19720458984</ele>
        <time>2012-03-18T11:31:54Z</time>
      </trkpt>
      <trkpt lat="43.83524" lon="7.27587">
        <ele>831.548828125</ele>
        <time>2012-03-18T11:31:59Z</time>
      </trkpt>
      <trkpt lat="43.83536" lon="7.27599">
        <ele>828.52899169922</ele>
        <time>2012-03-18T11:32:03Z</time>
      </trkpt>
      <trkpt lat="43.83551" lon="7.27618">
        <ele>823.09069824219</ele>
        <time>2012-03-18T11:32:08Z</time>
      </trkpt>
      <trkpt lat="43.83562" lon="7.27635">
        <ele>818.57434082031</ele>
        <time>2012-03-18T11:32:12Z</time>
      </trkpt>
      <trkpt lat="43.83568" lon="7.27642">
        <ele>816.70819091797</ele>
        <time>2012-03-18T11:32:14Z</time>
      </trkpt>
      <trkpt lat="43.83576" lon="7.27646">
        <ele>815.68286132812</ele>
        <time>2012-03-18T11:32:16Z</time>
      </trkpt>
      <trkpt lat="43.83581" lon="7.27654">
        <ele>813.76135253906</ele>
        <time>2012-03-18T11:32:20Z</time>
      </trkpt>
      <trkpt lat="43.83583" lon="7.27656">
        <ele>813.25457763672</ele>
        <time>2012-03-18T11:32:54Z</time>
      </trkpt>
      <trkpt lat="43.83585" lon="7.27658">
        <ele>812.82781982422</ele>
        <time>2012-03-18T11:33:02Z</time>
      </trkpt>
      <trkpt lat="43.83586" lon="7.27664">
        <ele>811.57122802734</ele>
        <time>2012-03-18T11:33:05Z</time>
      </trkpt>
      <trkpt lat="43.83578" lon="7.27669">
        <ele>810.61749267578</ele>
        <time>2012-03-18T11:33:09Z</time>
      </trkpt>
      <trkpt lat="43.83569" lon="7.27668">
        <ele>810.80108642578</ele>
        <time>2012-03-18T11:33:13Z</time>
      </trkpt>
      <trkpt lat="43.8357" lon="7.27673">
        <ele>809.72821044922</ele>
        <time>2012-03-18T11:33:17Z</time>
      </trkpt>
      <trkpt lat="43.83575" lon="7.27682">
        <ele>808.07360839844</ele>
        <time>2012-03-18T11:33:20Z</time>
      </trkpt>
      <trkpt lat="43.83574" lon="7.2769">
        <ele>806.45452880859</ele>
        <time>2012-03-18T11:33:22Z</time>
      </trkpt>
      <trkpt lat="43.83572" lon="7.27698">
        <ele>804.77954101562</ele>
        <time>2012-03-18T11:33:24Z</time>
      </trkpt>
      <trkpt lat="43.83578" lon="7.27709">
        <ele>803.02099609375</ele>
        <time>2012-03-18T11:33:29Z</time>
      </trkpt>
      <trkpt lat="43.83577" lon="7.27713">
        <ele>802.17822265625</ele>
        <time>2012-03-18T11:33:32Z</time>
      </trkpt>
      <trkpt lat="43.83572" lon="7.27715">
        <ele>801.27551269531</ele>
        <time>2012-03-18T11:33:36Z</time>
      </trkpt>
      <trkpt lat="43.83568" lon="7.27716">
        <ele>800.79516601562</ele>
        <time>2012-03-18T11:33:54Z</time>
      </trkpt>
      <trkpt lat="43.83567" lon="7.27714">
        <ele>801.12866210938</ele>
        <time>2012-03-18T11:34:21Z</time>
      </trkpt>
      <trkpt lat="43.8357" lon="7.27717">
        <ele>800.73199462891</ele>
        <time>2012-03-18T11:34:26Z</time>
      </trkpt>
      <trkpt lat="43.83576" lon="7.27722">
        <ele>800.33526611328</ele>
        <time>2012-03-18T11:34:32Z</time>
      </trkpt>
      <trkpt lat="43.83575" lon="7.27726">
        <ele>798.58154296875</ele>
        <time>2012-03-18T11:34:36Z</time>
      </trkpt>
      <trkpt lat="43.83566" lon="7.27729">
        <ele>796.2294921875</ele>
        <time>2012-03-18T11:34:40Z</time>
      </trkpt>
      <trkpt lat="43.83559" lon="7.27733">
        <ele>793.89056396484</ele>
        <time>2012-03-18T11:34:43Z</time>
      </trkpt>
      <trkpt lat="43.83546" lon="7.27743">
        <ele>789.11688232422</ele>
        <time>2012-03-18T11:34:48Z</time>
      </trkpt>
      <trkpt lat="43.83544" lon="7.27748">
        <ele>787.25006103516</ele>
        <time>2012-03-18T11:34:51Z</time>
      </trkpt>
      <trkpt lat="43.83548" lon="7.27754">
        <ele>785.22412109375</ele>
        <time>2012-03-18T11:34:55Z</time>
      </trkpt>
      <trkpt lat="43.83541" lon="7.27756">
        <ele>784.13232421875</ele>
        <time>2012-03-18T11:34:59Z</time>
      </trkpt>
      <trkpt lat="43.83537" lon="7.27762">
        <ele>781.67242431641</ele>
        <time>2012-03-18T11:35:02Z</time>
      </trkpt>
      <trkpt lat="43.83533" lon="7.27766">
        <ele>779.86486816406</ele>
        <time>2012-03-18T11:35:05Z</time>
      </trkpt>
      <trkpt lat="43.83525" lon="7.27766">
        <ele>779.79241943359</ele>
        <time>2012-03-18T11:35:09Z</time>
      </trkpt>
      <trkpt lat="43.83523" lon="7.27765">
        <ele>780.02294921875</ele>
        <time>2012-03-18T11:35:10Z</time>
      </trkpt>
      <trkpt lat="43.83505" lon="7.27766">
        <ele>779.79296875</ele>
        <time>2012-03-18T11:35:18Z</time>
      </trkpt>
      <trkpt lat="43.83493" lon="7.27763">
        <ele>781.47473144531</ele>
        <time>2012-03-18T11:35:25Z</time>
      </trkpt>
      <trkpt lat="43.8349" lon="7.27759">
        <ele>782.97222900391</ele>
        <time>2012-03-18T11:35:27Z</time>
      </trkpt>
      <trkpt lat="43.83482" lon="7.27757">
        <ele>784.15686035156</ele>
        <time>2012-03-18T11:35:33Z</time>
      </trkpt>
      <trkpt lat="43.83477" lon="7.27759">
        <ele>784.0966796875</ele>
        <time>2012-03-18T11:35:50Z</time>
      </trkpt>
      <trkpt lat="43.8346" lon="7.27762">
        <ele>784.19897460938</ele>
        <time>2012-03-18T11:35:58Z</time>
      </trkpt>
      <trkpt lat="43.83449" lon="7.27759">
        <ele>785.46856689453</ele>
        <time>2012-03-18T11:36:03Z</time>
      </trkpt>
      <trkpt lat="43.83443" lon="7.2776">
        <ele>785.65484619141</ele>
        <time>2012-03-18T11:36:06Z</time>
      </trkpt>
      <trkpt lat="43.8344" lon="7.27751">
        <ele>788.14837646484</ele>
        <time>2012-03-18T11:36:11Z</time>
      </trkpt>
      <trkpt lat="43.8344" lon="7.27741">
        <ele>790.48986816406</ele>
        <time>2012-03-18T11:36:17Z</time>
      </trkpt>
      <trkpt lat="43.83436" lon="7.27744">
        <ele>790.01959228516</ele>
        <time>2012-03-18T11:36:21Z</time>
      </trkpt>
      <trkpt lat="43.83435" lon="7.27745">
        <ele>789.70367431641</ele>
        <time>2012-03-18T11:36:22Z</time>
      </trkpt>
      <trkpt lat="43.83432" lon="7.27748">
        <ele>789.36822509766</ele>
        <time>2012-03-18T11:36:28Z</time>
      </trkpt>
      <trkpt lat="43.83429" lon="7.27746">
        <ele>789.96398925781</ele>
        <time>2012-03-18T11:36:34Z</time>
      </trkpt>
      <trkpt lat="43.83425" lon="7.27747">
        <ele>789.97009277344</ele>
        <time>2012-03-18T11:36:40Z</time>
      </trkpt>
      <trkpt lat="43.8342" lon="7.27748">
        <ele>790.17523193359</ele>
        <time>2012-03-18T11:36:48Z</time>
      </trkpt>
      <trkpt lat="43.83415" lon="7.2775">
        <ele>789.91436767578</ele>
        <time>2012-03-18T11:36:55Z</time>
      </trkpt>
      <trkpt lat="43.83408" lon="7.27753">
        <ele>789.17791748047</ele>
        <time>2012-03-18T11:37:03Z</time>
      </trkpt>
      <trkpt lat="43.83403" lon="7.27754">
        <ele>788.85003662109</ele>
        <time>2012-03-18T11:37:08Z</time>
      </trkpt>
      <trkpt lat="43.83403" lon="7.27752">
        <ele>789.15734863281</ele>
        <time>2012-03-18T11:37:09Z</time>
      </trkpt>
      <trkpt lat="43.83402" lon="7.27741">
        <ele>790.76440429688</ele>
        <time>2012-03-18T11:37:14Z</time>
      </trkpt>
      <trkpt lat="43.83402" lon="7.27735">
        <ele>791.60632324219</ele>
        <time>2012-03-18T11:37:17Z</time>
      </trkpt>
      <trkpt lat="43.83402" lon="7.27722">
        <ele>793.51354980469</ele>
        <time>2012-03-18T11:37:24Z</time>
      </trkpt>
      <trkpt lat="43.83397" lon="7.27698">
        <ele>796.71234130859</ele>
        <time>2012-03-18T11:37:34Z</time>
      </trkpt>
      <trkpt lat="43.83392" lon="7.27678">
        <ele>798.69805908203</ele>
        <time>2012-03-18T11:37:43Z</time>
      </trkpt>
      <trkpt lat="43.83389" lon="7.27663">
        <ele>800.5693359375</ele>
        <time>2012-03-18T11:37:50Z</time>
      </trkpt>
      <trkpt lat="43.83387" lon="7.27656">
        <ele>802.68804931641</ele>
        <time>2012-03-18T11:37:54Z</time>
      </trkpt>
      <trkpt lat="43.83381" lon="7.27643">
        <ele>806.01629638672</ele>
        <time>2012-03-18T11:38:01Z</time>
      </trkpt>
      <trkpt lat="43.83371" lon="7.27634">
        <ele>807.32568359375</ele>
        <time>2012-03-18T11:38:08Z</time>
      </trkpt>
      <trkpt lat="43.83363" lon="7.27624">
        <ele>808.18664550781</ele>
        <time>2012-03-18T11:38:15Z</time>
      </trkpt>
      <trkpt lat="43.8335" lon="7.2761">
        <ele>809.7587890625</ele>
        <time>2012-03-18T11:38:24Z</time>
      </trkpt>
      <trkpt lat="43.83338" lon="7.27603">
        <ele>809.65405273438</ele>
        <time>2012-03-18T11:38:31Z</time>
      </trkpt>
      <trkpt lat="43.83322" lon="7.276">
        <ele>810.48492431641</ele>
        <time>2012-03-18T11:38:39Z</time>
      </trkpt>
      <trkpt lat="43.83308" lon="7.27609">
        <ele>809.41375732422</ele>
        <time>2012-03-18T11:38:47Z</time>
      </trkpt>
      <trkpt lat="43.83297" lon="7.27613">
        <ele>809.2060546875</ele>
        <time>2012-03-18T11:38:54Z</time>
      </trkpt>
      <trkpt lat="43.83294" lon="7.27611">
        <ele>809.89440917969</ele>
        <time>2012-03-18T11:38:56Z</time>
      </trkpt>
      <trkpt lat="43.83288" lon="7.27612">
        <ele>810.09350585938</ele>
        <time>2012-03-18T11:39:03Z</time>
      </trkpt>
      <trkpt lat="43.83283" lon="7.2761">
        <ele>810.8505859375</ele>
        <time>2012-03-18T11:39:11Z</time>
      </trkpt>
      <trkpt lat="43.8328" lon="7.27608">
        <ele>811.70715332031</ele>
        <time>2012-03-18T11:39:20Z</time>
      </trkpt>
      <trkpt lat="43.83276" lon="7.27605">
        <ele>812.83251953125</ele>
        <time>2012-03-18T11:39:29Z</time>
      </trkpt>
      <trkpt lat="43.8327" lon="7.27602">
        <ele>814.02728271484</ele>
        <time>2012-03-18T11:39:37Z</time>
      </trkpt>
      <trkpt lat="43.83268" lon="7.27602">
        <ele>814.30023193359</ele>
        <time>2012-03-18T11:39:45Z</time>
      </trkpt>
      <trkpt lat="43.83262" lon="7.27602">
        <ele>815.09161376953</ele>
        <time>2012-03-18T11:39:50Z</time>
      </trkpt>
      <trkpt lat="43.83251" lon="7.27603">
        <ele>815.98596191406</ele>
        <time>2012-03-18T11:39:57Z</time>
      </trkpt>
      <trkpt lat="43.8324" lon="7.27603">
        <ele>819.40155029297</ele>
        <time>2012-03-18T11:40:04Z</time>
      </trkpt>
      <trkpt lat="43.83231" lon="7.27602">
        <ele>822.82257080078</ele>
        <time>2012-03-18T11:40:10Z</time>
      </trkpt>
      <trkpt lat="43.83221" lon="7.276">
        <ele>826.875</ele>
        <time>2012-03-18T11:40:17Z</time>
      </trkpt>
      <trkpt lat="43.83211" lon="7.27596">
        <ele>831.20428466797</ele>
        <time>2012-03-18T11:40:24Z</time>
      </trkpt>
      <trkpt lat="43.83205" lon="7.27596">
        <ele>833.40838623047</ele>
        <time>2012-03-18T11:40:28Z</time>
      </trkpt>
      <trkpt lat="43.83203" lon="7.27595">
        <ele>834.42120361328</ele>
        <time>2012-03-18T11:40:34Z</time>
      </trkpt>
      <trkpt lat="43.83199" lon="7.27597">
        <ele>835.35845947266</ele>
        <time>2012-03-18T11:40:40Z</time>
      </trkpt>
      <trkpt lat="43.83195" lon="7.27598">
        <ele>836.51550292969</ele>
        <time>2012-03-18T11:40:48Z</time>
      </trkpt>
      <trkpt lat="43.83191" lon="7.276">
        <ele>837.79150390625</ele>
        <time>2012-03-18T11:40:55Z</time>
      </trkpt>
      <trkpt lat="43.83188" lon="7.27607">
        <ele>837.62872314453</ele>
        <time>2012-03-18T11:41:02Z</time>
      </trkpt>
      <trkpt lat="43.83186" lon="7.27613">
        <ele>837.45263671875</ele>
        <time>2012-03-18T11:41:09Z</time>
      </trkpt>
      <trkpt lat="43.83183" lon="7.2762">
        <ele>837.51788330078</ele>
        <time>2012-03-18T11:41:16Z</time>
      </trkpt>
      <trkpt lat="43.83179" lon="7.27629">
        <ele>837.20544433594</ele>
        <time>2012-03-18T11:41:23Z</time>
      </trkpt>
      <trkpt lat="43.83178" lon="7.27633">
        <ele>837.09045410156</ele>
        <time>2012-03-18T11:41:26Z</time>
      </trkpt>
      <trkpt lat="43.83177" lon="7.27643">
        <ele>835.61114501953</ele>
        <time>2012-03-18T11:41:32Z</time>
      </trkpt>
      <trkpt lat="43.83176" lon="7.27649">
        <ele>834.89019775391</ele>
        <time>2012-03-18T11:41:35Z</time>
      </trkpt>
      <trkpt lat="43.83173" lon="7.27659">
        <ele>834.13708496094</ele>
        <time>2012-03-18T11:41:42Z</time>
      </trkpt>
      <trkpt lat="43.83171" lon="7.27667">
        <ele>833.94689941406</ele>
        <time>2012-03-18T11:41:49Z</time>
      </trkpt>
      <trkpt lat="43.83168" lon="7.27671">
        <ele>834.82580566406</ele>
        <time>2012-03-18T11:41:56Z</time>
      </trkpt>
      <trkpt lat="43.83164" lon="7.27676">
        <ele>835.09582519531</ele>
        <time>2012-03-18T11:42:05Z</time>
      </trkpt>
      <trkpt lat="43.83161" lon="7.27682">
        <ele>834.77996826172</ele>
        <time>2012-03-18T11:42:12Z</time>
      </trkpt>
      <trkpt lat="43.8316" lon="7.27685">
        <ele>834.60144042969</ele>
        <time>2012-03-18T11:42:19Z</time>
      </trkpt>
      <trkpt lat="43.83156" lon="7.27689">
        <ele>834.77996826172</ele>
        <time>2012-03-18T11:42:27Z</time>
      </trkpt>
      <trkpt lat="43.83153" lon="7.27693">
        <ele>834.61517333984</ele>
        <time>2012-03-18T11:42:33Z</time>
      </trkpt>
      <trkpt lat="43.83149" lon="7.277">
        <ele>834.2373046875</ele>
        <time>2012-03-18T11:42:41Z</time>
      </trkpt>
      <trkpt lat="43.83146" lon="7.27703">
        <ele>834.33135986328</ele>
        <time>2012-03-18T11:42:49Z</time>
      </trkpt>
      <trkpt lat="43.83144" lon="7.27704">
        <ele>834.35754394531</ele>
        <time>2012-03-18T11:43:01Z</time>
      </trkpt>
      <trkpt lat="43.83143" lon="7.27705">
        <ele>834.31878662109</ele>
        <time>2012-03-18T11:43:09Z</time>
      </trkpt>
      <trkpt lat="43.83143" lon="7.27707">
        <ele>834.0693359375</ele>
        <time>2012-03-18T11:43:19Z</time>
      </trkpt>
      <trkpt lat="43.83146" lon="7.27713">
        <ele>832.53112792969</ele>
        <time>2012-03-18T11:45:36Z</time>
      </trkpt>
      <trkpt lat="43.83146" lon="7.27713">
        <ele>832.48223876953</ele>
        <time>2012-03-18T11:45:42Z</time>
      </trkpt>
      <trkpt lat="43.83143" lon="7.27716">
        <ele>832.55596923828</ele>
        <time>2012-03-18T11:45:54Z</time>
      </trkpt>
      <trkpt lat="43.83133" lon="7.27722">
        <ele>833.35296630859</ele>
        <time>2012-03-18T11:46:00Z</time>
      </trkpt>
      <trkpt lat="43.83126" lon="7.27728">
        <ele>833.96685791016</ele>
        <time>2012-03-18T11:46:04Z</time>
      </trkpt>
      <trkpt lat="43.83115" lon="7.27741">
        <ele>834.47497558594</ele>
        <time>2012-03-18T11:46:08Z</time>
      </trkpt>
      <trkpt lat="43.83096" lon="7.27759">
        <ele>837.13348388672</ele>
        <time>2012-03-18T11:46:13Z</time>
      </trkpt>
      <trkpt lat="43.83076" lon="7.27761">
        <ele>841.23254394531</ele>
        <time>2012-03-18T11:46:18Z</time>
      </trkpt>
      <trkpt lat="43.83065" lon="7.27758">
        <ele>842.52001953125</ele>
        <time>2012-03-18T11:46:21Z</time>
      </trkpt>
      <trkpt lat="43.83044" lon="7.27761">
        <ele>844.41040039062</ele>
        <time>2012-03-18T11:46:26Z</time>
      </trkpt>
      <trkpt lat="43.8304" lon="7.2776">
        <ele>844.90826416016</ele>
        <time>2012-03-18T11:46:27Z</time>
      </trkpt>
      <trkpt lat="43.8302" lon="7.27764">
        <ele>847.03460693359</ele>
        <time>2012-03-18T11:46:33Z</time>
      </trkpt>
      <trkpt lat="43.83014" lon="7.27769">
        <ele>847.69036865234</ele>
        <time>2012-03-18T11:46:37Z</time>
      </trkpt>
      <trkpt lat="43.83012" lon="7.2777">
        <ele>847.79681396484</ele>
        <time>2012-03-18T11:46:42Z</time>
      </trkpt>
      <trkpt lat="43.83009" lon="7.27774">
        <ele>848.01654052734</ele>
        <time>2012-03-18T11:46:47Z</time>
      </trkpt>
      <trkpt lat="43.83003" lon="7.27777">
        <ele>848.55895996094</ele>
        <time>2012-03-18T11:46:53Z</time>
      </trkpt>
      <trkpt lat="43.82998" lon="7.27781">
        <ele>849.0380859375</ele>
        <time>2012-03-18T11:46:59Z</time>
      </trkpt>
      <trkpt lat="43.82995" lon="7.27782">
        <ele>849.29028320312</ele>
        <time>2012-03-18T11:47:04Z</time>
      </trkpt>
      <trkpt lat="43.82994" lon="7.27783">
        <ele>849.37023925781</ele>
        <time>2012-03-18T11:47:05Z</time>
      </trkpt>
      <trkpt lat="43.82981" lon="7.2779">
        <ele>850.13909912109</ele>
        <time>2012-03-18T11:47:11Z</time>
      </trkpt>
      <trkpt lat="43.82966" lon="7.27802">
        <ele>849.95153808594</ele>
        <time>2012-03-18T11:47:16Z</time>
      </trkpt>
      <trkpt lat="43.82948" lon="7.27808">
        <ele>850.47546386719</ele>
        <time>2012-03-18T11:47:22Z</time>
      </trkpt>
      <trkpt lat="43.82938" lon="7.27818">
        <ele>849.52294921875</ele>
        <time>2012-03-18T11:47:27Z</time>
      </trkpt>
      <trkpt lat="43.82924" lon="7.27829">
        <ele>847.83862304688</ele>
        <time>2012-03-18T11:47:33Z</time>
      </trkpt>
      <trkpt lat="43.82911" lon="7.27829">
        <ele>847.19940185547</ele>
        <time>2012-03-18T11:47:39Z</time>
      </trkpt>
      <trkpt lat="43.82891" lon="7.27837">
        <ele>844.00885009766</ele>
        <time>2012-03-18T11:47:46Z</time>
      </trkpt>
      <trkpt lat="43.82869" lon="7.2784">
        <ele>841.94360351562</ele>
        <time>2012-03-18T11:47:54Z</time>
      </trkpt>
      <trkpt lat="43.82851" lon="7.27842">
        <ele>840.53277587891</ele>
        <time>2012-03-18T11:48:00Z</time>
      </trkpt>
      <trkpt lat="43.82838" lon="7.27847">
        <ele>838.87194824219</ele>
        <time>2012-03-18T11:48:05Z</time>
      </trkpt>
      <trkpt lat="43.82824" lon="7.27848">
        <ele>837.89874267578</ele>
        <time>2012-03-18T11:48:11Z</time>
      </trkpt>
      <trkpt lat="43.82804" lon="7.27848">
        <ele>837.29028320312</ele>
        <time>2012-03-18T11:48:16Z</time>
      </trkpt>
      <trkpt lat="43.82783" lon="7.27851">
        <ele>837.15771484375</ele>
        <time>2012-03-18T11:48:20Z</time>
      </trkpt>
      <trkpt lat="43.82763" lon="7.27857">
        <ele>835.78137207031</ele>
        <time>2012-03-18T11:48:23Z</time>
      </trkpt>
      <trkpt lat="43.82742" lon="7.27857">
        <ele>836.60931396484</ele>
        <time>2012-03-18T11:48:27Z</time>
      </trkpt>
      <trkpt lat="43.82739" lon="7.27848">
        <ele>839.00744628906</ele>
        <time>2012-03-18T11:48:30Z</time>
      </trkpt>
      <trkpt lat="43.82734" lon="7.27834">
        <ele>842.93676757812</ele>
        <time>2012-03-18T11:48:35Z</time>
      </trkpt>
      <trkpt lat="43.82732" lon="7.27828">
        <ele>844.02368164062</ele>
        <time>2012-03-18T11:48:37Z</time>
      </trkpt>
      <trkpt lat="43.8273" lon="7.27813">
        <ele>845.89233398438</ele>
        <time>2012-03-18T11:48:43Z</time>
      </trkpt>
      <trkpt lat="43.82726" lon="7.27792">
        <ele>848.91632080078</ele>
        <time>2012-03-18T11:48:50Z</time>
      </trkpt>
      <trkpt lat="43.82721" lon="7.2777">
        <ele>851.86633300781</ele>
        <time>2012-03-18T11:48:57Z</time>
      </trkpt>
      <trkpt lat="43.82719" lon="7.27748">
        <ele>854.38415527344</ele>
        <time>2012-03-18T11:49:04Z</time>
      </trkpt>
      <trkpt lat="43.82717" lon="7.2773">
        <ele>857.42053222656</ele>
        <time>2012-03-18T11:49:10Z</time>
      </trkpt>
      <trkpt lat="43.82719" lon="7.27716">
        <ele>861.88098144531</ele>
        <time>2012-03-18T11:49:16Z</time>
      </trkpt>
      <trkpt lat="43.82717" lon="7.27706">
        <ele>865.95831298828</ele>
        <time>2012-03-18T11:49:20Z</time>
      </trkpt>
      <trkpt lat="43.82707" lon="7.27698">
        <ele>867.83978271484</ele>
        <time>2012-03-18T11:49:26Z</time>
      </trkpt>
      <trkpt lat="43.82703" lon="7.27698">
        <ele>867.05212402344</ele>
        <time>2012-03-18T11:49:28Z</time>
      </trkpt>
      <trkpt lat="43.82688" lon="7.277">
        <ele>866.41131591797</ele>
        <time>2012-03-18T11:49:34Z</time>
      </trkpt>
      <trkpt lat="43.82675" lon="7.27704">
        <ele>867.41912841797</ele>
        <time>2012-03-18T11:49:40Z</time>
      </trkpt>
      <trkpt lat="43.82667" lon="7.27704">
        <ele>868.87127685547</ele>
        <time>2012-03-18T11:49:44Z</time>
      </trkpt>
      <trkpt lat="43.82658" lon="7.27708">
        <ele>866.23425292969</ele>
        <time>2012-03-18T11:49:50Z</time>
      </trkpt>
      <trkpt lat="43.82655" lon="7.27708">
        <ele>866.13751220703</ele>
        <time>2012-03-18T11:49:52Z</time>
      </trkpt>
      <trkpt lat="43.8265" lon="7.27707">
        <ele>866.40881347656</ele>
        <time>2012-03-18T11:49:58Z</time>
      </trkpt>
      <trkpt lat="43.82645" lon="7.27707">
        <ele>866.27197265625</ele>
        <time>2012-03-18T11:50:04Z</time>
      </trkpt>
      <trkpt lat="43.8264" lon="7.27711">
        <ele>864.42761230469</ele>
        <time>2012-03-18T11:50:12Z</time>
      </trkpt>
      <trkpt lat="43.82635" lon="7.27712">
        <ele>864.41052246094</ele>
        <time>2012-03-18T11:50:18Z</time>
      </trkpt>
      <trkpt lat="43.82628" lon="7.27709">
        <ele>867.02569580078</ele>
        <time>2012-03-18T11:50:24Z</time>
      </trkpt>
      <trkpt lat="43.82626" lon="7.27707">
        <ele>868.34448242188</ele>
        <time>2012-03-18T11:50:26Z</time>
      </trkpt>
      <trkpt lat="43.82623" lon="7.27707">
        <ele>868.70727539062</ele>
        <time>2012-03-18T11:50:28Z</time>
      </trkpt>
      <trkpt lat="43.8262" lon="7.27705">
        <ele>870.04217529297</ele>
        <time>2012-03-18T11:50:33Z</time>
      </trkpt>
      <trkpt lat="43.82618" lon="7.27702">
        <ele>871.47491455078</ele>
        <time>2012-03-18T11:50:39Z</time>
      </trkpt>
      <trkpt lat="43.82616" lon="7.27702">
        <ele>872.18328857422</ele>
        <time>2012-03-18T11:50:46Z</time>
      </trkpt>
      <trkpt lat="43.82611" lon="7.27702">
        <ele>872.86804199219</ele>
        <time>2012-03-18T11:50:54Z</time>
      </trkpt>
      <trkpt lat="43.82611" lon="7.27702">
        <ele>872.70361328125</ele>
        <time>2012-03-18T11:51:07Z</time>
      </trkpt>
      <trkpt lat="43.82608" lon="7.27699">
        <ele>874.62622070312</ele>
        <time>2012-03-18T11:51:18Z</time>
      </trkpt>
      <trkpt lat="43.82606" lon="7.27697">
        <ele>876.3427734375</ele>
        <time>2012-03-18T11:51:25Z</time>
      </trkpt>
      <trkpt lat="43.82596" lon="7.27694">
        <ele>880.46545410156</ele>
        <time>2012-03-18T11:51:32Z</time>
      </trkpt>
      <trkpt lat="43.8259" lon="7.27689">
        <ele>883.67895507812</ele>
        <time>2012-03-18T11:51:37Z</time>
      </trkpt>
      <trkpt lat="43.82587" lon="7.27685">
        <ele>885.61529541016</ele>
        <time>2012-03-18T11:51:40Z</time>
      </trkpt>
      <trkpt lat="43.82584" lon="7.27684">
        <ele>886.89245605469</ele>
        <time>2012-03-18T11:51:43Z</time>
      </trkpt>
      <trkpt lat="43.82578" lon="7.27686">
        <ele>886.89129638672</ele>
        <time>2012-03-18T11:51:49Z</time>
      </trkpt>
      <trkpt lat="43.82574" lon="7.27684">
        <ele>887.63110351562</ele>
        <time>2012-03-18T11:51:56Z</time>
      </trkpt>
      <trkpt lat="43.82568" lon="7.27683">
        <ele>888.0791015625</ele>
        <time>2012-03-18T11:52:04Z</time>
      </trkpt>
      <trkpt lat="43.82563" lon="7.27685">
        <ele>888.01324462891</ele>
        <time>2012-03-18T11:52:12Z</time>
      </trkpt>
      <trkpt lat="43.8256" lon="7.27684">
        <ele>888.29711914062</ele>
        <time>2012-03-18T11:52:18Z</time>
      </trkpt>
      <trkpt lat="43.82558" lon="7.27684">
        <ele>888.58758544922</ele>
        <time>2012-03-18T11:52:25Z</time>
      </trkpt>
      <trkpt lat="43.82555" lon="7.27684">
        <ele>888.83392333984</ele>
        <time>2012-03-18T11:52:32Z</time>
      </trkpt>
      <trkpt lat="43.82553" lon="7.27688">
        <ele>888.14971923828</ele>
        <time>2012-03-18T11:52:38Z</time>
      </trkpt>
      <trkpt lat="43.8255" lon="7.27695">
        <ele>887.41156005859</ele>
        <time>2012-03-18T11:52:47Z</time>
      </trkpt>
      <trkpt lat="43.82548" lon="7.27697">
        <ele>887.26184082031</ele>
        <time>2012-03-18T11:52:54Z</time>
      </trkpt>
      <trkpt lat="43.82545" lon="7.27699">
        <ele>887.16497802734</ele>
        <time>2012-03-18T11:53:01Z</time>
      </trkpt>
      <trkpt lat="43.82541" lon="7.27703">
        <ele>887.05780029297</ele>
        <time>2012-03-18T11:53:09Z</time>
      </trkpt>
      <trkpt lat="43.82536" lon="7.27709">
        <ele>886.08416748047</ele>
        <time>2012-03-18T11:53:17Z</time>
      </trkpt>
      <trkpt lat="43.82531" lon="7.27714">
        <ele>886.12658691406</ele>
        <time>2012-03-18T11:53:27Z</time>
      </trkpt>
      <trkpt lat="43.82528" lon="7.27716">
        <ele>886.20495605469</ele>
        <time>2012-03-18T11:53:32Z</time>
      </trkpt>
      <trkpt lat="43.82525" lon="7.27719">
        <ele>885.84765625</ele>
        <time>2012-03-18T11:53:39Z</time>
      </trkpt>
      <trkpt lat="43.82521" lon="7.27723">
        <ele>885.76336669922</ele>
        <time>2012-03-18T11:53:47Z</time>
      </trkpt>
      <trkpt lat="43.82517" lon="7.27727">
        <ele>885.57965087891</ele>
        <time>2012-03-18T11:53:54Z</time>
      </trkpt>
      <trkpt lat="43.82513" lon="7.27731">
        <ele>885.28686523438</ele>
        <time>2012-03-18T11:54:02Z</time>
      </trkpt>
      <trkpt lat="43.82506" lon="7.27736">
        <ele>885.81121826172</ele>
        <time>2012-03-18T11:54:10Z</time>
      </trkpt>
      <trkpt lat="43.82504" lon="7.27738">
        <ele>885.82147216797</ele>
        <time>2012-03-18T11:54:13Z</time>
      </trkpt>
      <trkpt lat="43.82495" lon="7.2774">
        <ele>887.43731689453</ele>
        <time>2012-03-18T11:54:19Z</time>
      </trkpt>
      <trkpt lat="43.82493" lon="7.27742">
        <ele>887.30645751953</ele>
        <time>2012-03-18T11:54:20Z</time>
      </trkpt>
      <trkpt lat="43.82484" lon="7.2775">
        <ele>886.95776367188</ele>
        <time>2012-03-18T11:54:26Z</time>
      </trkpt>
      <trkpt lat="43.82472" lon="7.2776">
        <ele>887.8115234375</ele>
        <time>2012-03-18T11:54:32Z</time>
      </trkpt>
      <trkpt lat="43.82465" lon="7.27766">
        <ele>888.63177490234</ele>
        <time>2012-03-18T11:54:36Z</time>
      </trkpt>
      <trkpt lat="43.82455" lon="7.27772">
        <ele>890.21789550781</ele>
        <time>2012-03-18T11:54:42Z</time>
      </trkpt>
      <trkpt lat="43.82445" lon="7.27775">
        <ele>892.54907226562</ele>
        <time>2012-03-18T11:54:47Z</time>
      </trkpt>
      <trkpt lat="43.82441" lon="7.27777">
        <ele>893.05218505859</ele>
        <time>2012-03-18T11:54:50Z</time>
      </trkpt>
      <trkpt lat="43.82433" lon="7.27784">
        <ele>892.64831542969</ele>
        <time>2012-03-18T11:54:56Z</time>
      </trkpt>
      <trkpt lat="43.82432" lon="7.27783">
        <ele>893.21136474609</ele>
        <time>2012-03-18T11:54:57Z</time>
      </trkpt>
      <trkpt lat="43.82425" lon="7.27773">
        <ele>896.61730957031</ele>
        <time>2012-03-18T11:55:04Z</time>
      </trkpt>
      <trkpt lat="43.82414" lon="7.27775">
        <ele>897.96313476562</ele>
        <time>2012-03-18T11:55:10Z</time>
      </trkpt>
      <trkpt lat="43.82397" lon="7.27782">
        <ele>897.39971923828</ele>
        <time>2012-03-18T11:55:16Z</time>
      </trkpt>
      <trkpt lat="43.82394" lon="7.27783">
        <ele>897.37658691406</ele>
        <time>2012-03-18T11:55:17Z</time>
      </trkpt>
      <trkpt lat="43.82387" lon="7.27778">
        <ele>897.54913330078</ele>
        <time>2012-03-18T11:55:21Z</time>
      </trkpt>
      <trkpt lat="43.82376" lon="7.27765">
        <ele>892.73077392578</ele>
        <time>2012-03-18T11:55:26Z</time>
      </trkpt>
      <trkpt lat="43.82362" lon="7.27763">
        <ele>888.66052246094</ele>
        <time>2012-03-18T11:55:31Z</time>
      </trkpt>
      <trkpt lat="43.82347" lon="7.27776">
        <ele>887.52172851562</ele>
        <time>2012-03-18T11:55:37Z</time>
      </trkpt>
      <trkpt lat="43.82333" lon="7.27777">
        <ele>884.85260009766</ele>
        <time>2012-03-18T11:55:42Z</time>
      </trkpt>
      <trkpt lat="43.8232" lon="7.27776">
        <ele>881.34271240234</ele>
        <time>2012-03-18T11:55:47Z</time>
      </trkpt>
      <trkpt lat="43.82314" lon="7.27777">
        <ele>880.03173828125</ele>
        <time>2012-03-18T11:55:52Z</time>
      </trkpt>
      <trkpt lat="43.82305" lon="7.27776">
        <ele>877.80291748047</ele>
        <time>2012-03-18T11:55:57Z</time>
      </trkpt>
      <trkpt lat="43.82295" lon="7.27771">
        <ele>876.70581054688</ele>
        <time>2012-03-18T11:56:01Z</time>
      </trkpt>
      <trkpt lat="43.82278" lon="7.27769">
        <ele>875.05560302734</ele>
        <time>2012-03-18T11:56:06Z</time>
      </trkpt>
      <trkpt lat="43.82269" lon="7.27766">
        <ele>874.08288574219</ele>
        <time>2012-03-18T11:56:08Z</time>
      </trkpt>
      <trkpt lat="43.82249" lon="7.27776">
        <ele>873.70349121094</ele>
        <time>2012-03-18T11:56:12Z</time>
      </trkpt>
      <trkpt lat="43.8224" lon="7.27779">
        <ele>872.7314453125</ele>
        <time>2012-03-18T11:56:15Z</time>
      </trkpt>
      <trkpt lat="43.82232" lon="7.27784">
        <ele>872.36639404297</ele>
        <time>2012-03-18T11:56:21Z</time>
      </trkpt>
      <trkpt lat="43.82227" lon="7.27786">
        <ele>872.10321044922</ele>
        <time>2012-03-18T11:56:35Z</time>
      </trkpt>
      <trkpt lat="43.82214" lon="7.27793">
        <ele>871.76977539062</ele>
        <time>2012-03-18T11:56:41Z</time>
      </trkpt>
      <trkpt lat="43.82203" lon="7.27797">
        <ele>871.37152099609</ele>
        <time>2012-03-18T11:56:46Z</time>
      </trkpt>
      <trkpt lat="43.8219" lon="7.27797">
        <ele>870.18603515625</ele>
        <time>2012-03-18T11:56:50Z</time>
      </trkpt>
      <trkpt lat="43.82171" lon="7.27804">
        <ele>869.98864746094</ele>
        <time>2012-03-18T11:56:55Z</time>
      </trkpt>
      <trkpt lat="43.82168" lon="7.27803">
        <ele>869.53546142578</ele>
        <time>2012-03-18T11:56:56Z</time>
      </trkpt>
      <trkpt lat="43.82152" lon="7.27814">
        <ele>869.16955566406</ele>
        <time>2012-03-18T11:57:01Z</time>
      </trkpt>
      <trkpt lat="43.8214" lon="7.27827">
        <ele>869.33892822266</ele>
        <time>2012-03-18T11:57:05Z</time>
      </trkpt>
      <trkpt lat="43.82125" lon="7.27837">
        <ele>869.02276611328</ele>
        <time>2012-03-18T11:57:09Z</time>
      </trkpt>
      <trkpt lat="43.82115" lon="7.27857">
        <ele>870.75311279297</ele>
        <time>2012-03-18T11:57:14Z</time>
      </trkpt>
      <trkpt lat="43.821" lon="7.2787">
        <ele>871.95068359375</ele>
        <time>2012-03-18T11:57:19Z</time>
      </trkpt>
      <trkpt lat="43.82082" lon="7.27881">
        <ele>872.71923828125</ele>
        <time>2012-03-18T11:57:26Z</time>
      </trkpt>
      <trkpt lat="43.8208" lon="7.27883">
        <ele>872.95269775391</ele>
        <time>2012-03-18T11:57:27Z</time>
      </trkpt>
      <trkpt lat="43.82074" lon="7.2789">
        <ele>873.43408203125</ele>
        <time>2012-03-18T11:57:31Z</time>
      </trkpt>
      <trkpt lat="43.82061" lon="7.27908">
        <ele>873.85821533203</ele>
        <time>2012-03-18T11:57:39Z</time>
      </trkpt>
      <trkpt lat="43.82059" lon="7.27911">
        <ele>873.94976806641</ele>
        <time>2012-03-18T11:57:40Z</time>
      </trkpt>
      <trkpt lat="43.82053" lon="7.27919">
        <ele>873.98474121094</ele>
        <time>2012-03-18T11:57:45Z</time>
      </trkpt>
      <trkpt lat="43.82048" lon="7.27921">
        <ele>873.84051513672</ele>
        <time>2012-03-18T11:57:48Z</time>
      </trkpt>
      <trkpt lat="43.82042" lon="7.27924">
        <ele>873.65515136719</ele>
        <time>2012-03-18T11:57:51Z</time>
      </trkpt>
      <trkpt lat="43.8203" lon="7.27931">
        <ele>873.29119873047</ele>
        <time>2012-03-18T11:57:57Z</time>
      </trkpt>
      <trkpt lat="43.82028" lon="7.27932">
        <ele>873.23626708984</ele>
        <time>2012-03-18T11:57:58Z</time>
      </trkpt>
      <trkpt lat="43.82021" lon="7.27939">
        <ele>874.00250244141</ele>
        <time>2012-03-18T11:58:03Z</time>
      </trkpt>
      <trkpt lat="43.82014" lon="7.27942">
        <ele>874.11926269531</ele>
        <time>2012-03-18T11:58:08Z</time>
      </trkpt>
      <trkpt lat="43.82012" lon="7.27942">
        <ele>874.00939941406</ele>
        <time>2012-03-18T11:58:10Z</time>
      </trkpt>
      <trkpt lat="43.82005" lon="7.27952">
        <ele>874.962890625</ele>
        <time>2012-03-18T11:58:16Z</time>
      </trkpt>
      <trkpt lat="43.81999" lon="7.27966">
        <ele>876.22644042969</ele>
        <time>2012-03-18T11:58:24Z</time>
      </trkpt>
      <trkpt lat="43.81993" lon="7.27976">
        <ele>877.13897705078</ele>
        <time>2012-03-18T11:58:30Z</time>
      </trkpt>
      <trkpt lat="43.81985" lon="7.27986">
        <ele>877.67681884766</ele>
        <time>2012-03-18T11:58:37Z</time>
      </trkpt>
      <trkpt lat="43.81982" lon="7.27992">
        <ele>878.00244140625</ele>
        <time>2012-03-18T11:58:40Z</time>
      </trkpt>
      <trkpt lat="43.81978" lon="7.28007">
        <ele>879.34851074219</ele>
        <time>2012-03-18T11:58:47Z</time>
      </trkpt>
      <trkpt lat="43.81974" lon="7.28012">
        <ele>879.82916259766</ele>
        <time>2012-03-18T11:58:51Z</time>
      </trkpt>
      <trkpt lat="43.81972" lon="7.28018">
        <ele>880.6259765625</ele>
        <time>2012-03-18T11:58:59Z</time>
      </trkpt>
      <trkpt lat="43.81971" lon="7.28021">
        <ele>881.03112792969</ele>
        <time>2012-03-18T11:59:06Z</time>
      </trkpt>
      <trkpt lat="43.81969" lon="7.28023">
        <ele>881.29205322266</ele>
        <time>2012-03-18T11:59:12Z</time>
      </trkpt>
      <trkpt lat="43.81965" lon="7.28026">
        <ele>881.80700683594</ele>
        <time>2012-03-18T11:59:19Z</time>
      </trkpt>
      <trkpt lat="43.81963" lon="7.28033">
        <ele>882.6728515625</ele>
        <time>2012-03-18T11:59:27Z</time>
      </trkpt>
      <trkpt lat="43.81961" lon="7.28035">
        <ele>882.95306396484</ele>
        <time>2012-03-18T11:59:32Z</time>
      </trkpt>
      <trkpt lat="43.81956" lon="7.28038">
        <ele>883.26147460938</ele>
        <time>2012-03-18T11:59:36Z</time>
      </trkpt>
      <trkpt lat="43.81948" lon="7.28047">
        <ele>884.16430664062</ele>
        <time>2012-03-18T11:59:44Z</time>
      </trkpt>
      <trkpt lat="43.81947" lon="7.28048">
        <ele>884.30114746094</ele>
        <time>2012-03-18T11:59:45Z</time>
      </trkpt>
      <trkpt lat="43.81936" lon="7.28063">
        <ele>885.55737304688</ele>
        <time>2012-03-18T11:59:53Z</time>
      </trkpt>
      <trkpt lat="43.81925" lon="7.28072">
        <ele>886.15478515625</ele>
        <time>2012-03-18T11:59:59Z</time>
      </trkpt>
      <trkpt lat="43.81912" lon="7.28086">
        <ele>887.64019775391</ele>
        <time>2012-03-18T12:00:06Z</time>
      </trkpt>
      <trkpt lat="43.81895" lon="7.28105">
        <ele>890.32092285156</ele>
        <time>2012-03-18T12:00:14Z</time>
      </trkpt>
      <trkpt lat="43.81878" lon="7.28116">
        <ele>891.72961425781</ele>
        <time>2012-03-18T12:00:21Z</time>
      </trkpt>
      <trkpt lat="43.81866" lon="7.28132">
        <ele>893.31915283203</ele>
        <time>2012-03-18T12:00:27Z</time>
      </trkpt>
      <trkpt lat="43.81852" lon="7.28141">
        <ele>894.71508789062</ele>
        <time>2012-03-18T12:00:33Z</time>
      </trkpt>
      <trkpt lat="43.81839" lon="7.28142">
        <ele>895.72106933594</ele>
        <time>2012-03-18T12:00:38Z</time>
      </trkpt>
      <trkpt lat="43.81821" lon="7.28145">
        <ele>896.56231689453</ele>
        <time>2012-03-18T12:00:43Z</time>
      </trkpt>
      <trkpt lat="43.81812" lon="7.2815">
        <ele>896.87133789062</ele>
        <time>2012-03-18T12:00:47Z</time>
      </trkpt>
      <trkpt lat="43.81798" lon="7.28149">
        <ele>897.27954101562</ele>
        <time>2012-03-18T12:00:54Z</time>
      </trkpt>
      <trkpt lat="43.81796" lon="7.28149">
        <ele>897.36193847656</ele>
        <time>2012-03-18T12:00:55Z</time>
      </trkpt>
      <trkpt lat="43.81794" lon="7.28147">
        <ele>897.40313720703</ele>
        <time>2012-03-18T12:01:02Z</time>
      </trkpt>
      <trkpt lat="43.81793" lon="7.28147">
        <ele>897.4443359375</ele>
        <time>2012-03-18T12:01:11Z</time>
      </trkpt>
      <trkpt lat="43.81789" lon="7.28146">
        <ele>897.59539794922</ele>
        <time>2012-03-18T12:01:15Z</time>
      </trkpt>
      <trkpt lat="43.81777" lon="7.28143">
        <ele>898.03900146484</ele>
        <time>2012-03-18T12:01:21Z</time>
      </trkpt>
      <trkpt lat="43.81769" lon="7.28144">
        <ele>898.58618164062</ele>
        <time>2012-03-18T12:01:25Z</time>
      </trkpt>
      <trkpt lat="43.81767" lon="7.28144">
        <ele>898.71472167969</ele>
        <time>2012-03-18T12:01:27Z</time>
      </trkpt>
      <trkpt lat="43.81758" lon="7.28146">
        <ele>899.2275390625</ele>
        <time>2012-03-18T12:01:33Z</time>
      </trkpt>
      <trkpt lat="43.8175" lon="7.28149">
        <ele>899.61285400391</ele>
        <time>2012-03-18T12:01:38Z</time>
      </trkpt>
      <trkpt lat="43.81748" lon="7.28149">
        <ele>899.6552734375</ele>
        <time>2012-03-18T12:01:40Z</time>
      </trkpt>
      <trkpt lat="43.81747" lon="7.2815">
        <ele>899.64984130859</ele>
        <time>2012-03-18T12:01:49Z</time>
      </trkpt>
      <trkpt lat="43.81746" lon="7.2815">
        <ele>899.64636230469</ele>
        <time>2012-03-18T12:02:14Z</time>
      </trkpt>
      <trkpt lat="43.81745" lon="7.28151">
        <ele>899.64514160156</ele>
        <time>2012-03-18T12:02:18Z</time>
      </trkpt>
      <trkpt lat="43.81734" lon="7.28151">
        <ele>899.80346679688</ele>
        <time>2012-03-18T12:02:24Z</time>
      </trkpt>
      <trkpt lat="43.81723" lon="7.2815">
        <ele>899.98809814453</ele>
        <time>2012-03-18T12:02:29Z</time>
      </trkpt>
      <trkpt lat="43.81716" lon="7.2815">
        <ele>900</ele>
        <time>2012-03-18T12:02:33Z</time>
      </trkpt>
      <trkpt lat="43.81707" lon="7.28154">
        <ele>900</ele>
        <time>2012-03-18T12:02:37Z</time>
      </trkpt>
      <trkpt lat="43.81696" lon="7.28154">
        <ele>900</ele>
        <time>2012-03-18T12:02:41Z</time>
      </trkpt>
      <trkpt lat="43.81682" lon="7.28166">
        <ele>900</ele>
        <time>2012-03-18T12:02:46Z</time>
      </trkpt>
      <trkpt lat="43.8167" lon="7.28172">
        <ele>899.06854248047</ele>
        <time>2012-03-18T12:02:51Z</time>
      </trkpt>
      <trkpt lat="43.81666" lon="7.28172">
        <ele>899.01110839844</ele>
        <time>2012-03-18T12:02:55Z</time>
      </trkpt>
      <trkpt lat="43.81664" lon="7.28171">
        <ele>898.78674316406</ele>
        <time>2012-03-18T12:02:56Z</time>
      </trkpt>
      <trkpt lat="43.81652" lon="7.28179">
        <ele>895.76409912109</ele>
        <time>2012-03-18T12:03:01Z</time>
      </trkpt>
      <trkpt lat="43.81639" lon="7.28181">
        <ele>893.90582275391</ele>
        <time>2012-03-18T12:03:05Z</time>
      </trkpt>
      <trkpt lat="43.81633" lon="7.28179">
        <ele>892.61358642578</ele>
        <time>2012-03-18T12:03:07Z</time>
      </trkpt>
      <trkpt lat="43.81619" lon="7.28185">
        <ele>889.34576416016</ele>
        <time>2012-03-18T12:03:11Z</time>
      </trkpt>
      <trkpt lat="43.81601" lon="7.28192">
        <ele>886.26580810547</ele>
        <time>2012-03-18T12:03:15Z</time>
      </trkpt>
      <trkpt lat="43.81579" lon="7.28203">
        <ele>882.046875</ele>
        <time>2012-03-18T12:03:20Z</time>
      </trkpt>
      <trkpt lat="43.81571" lon="7.2821">
        <ele>881.04235839844</ele>
        <time>2012-03-18T12:03:22Z</time>
      </trkpt>
      <trkpt lat="43.81544" lon="7.28228">
        <ele>880</ele>
        <time>2012-03-18T12:03:28Z</time>
      </trkpt>
      <trkpt lat="43.81532" lon="7.28237">
        <ele>880</ele>
        <time>2012-03-18T12:03:31Z</time>
      </trkpt>
      <trkpt lat="43.81519" lon="7.28251">
        <ele>880</ele>
        <time>2012-03-18T12:03:35Z</time>
      </trkpt>
      <trkpt lat="43.81507" lon="7.28251">
        <ele>880</ele>
        <time>2012-03-18T12:03:38Z</time>
      </trkpt>
      <trkpt lat="43.81495" lon="7.28257">
        <ele>880</ele>
        <time>2012-03-18T12:03:41Z</time>
      </trkpt>
      <trkpt lat="43.81487" lon="7.28256">
        <ele>880</ele>
        <time>2012-03-18T12:03:43Z</time>
      </trkpt>
      <trkpt lat="43.81457" lon="7.28251">
        <ele>880</ele>
        <time>2012-03-18T12:03:50Z</time>
      </trkpt>
      <trkpt lat="43.81454" lon="7.28251">
        <ele>880</ele>
        <time>2012-03-18T12:03:51Z</time>
      </trkpt>
      <trkpt lat="43.81437" lon="7.28256">
        <ele>879.94061279297</ele>
        <time>2012-03-18T12:03:55Z</time>
      </trkpt>
      <trkpt lat="43.81427" lon="7.28258">
        <ele>879.80993652344</ele>
        <time>2012-03-18T12:03:59Z</time>
      </trkpt>
      <trkpt lat="43.81424" lon="7.28259">
        <ele>879.74383544922</ele>
        <time>2012-03-18T12:04:08Z</time>
      </trkpt>
      <trkpt lat="43.81419" lon="7.28259">
        <ele>879.69708251953</ele>
        <time>2012-03-18T12:04:16Z</time>
      </trkpt>
      <trkpt lat="43.81416" lon="7.28258">
        <ele>879.69689941406</ele>
        <time>2012-03-18T12:04:21Z</time>
      </trkpt>
      <trkpt lat="43.8141" lon="7.2826">
        <ele>879.65570068359</ele>
        <time>2012-03-18T12:04:28Z</time>
      </trkpt>
      <trkpt lat="43.81407" lon="7.28262">
        <ele>879.58190917969</ele>
        <time>2012-03-18T12:04:34Z</time>
      </trkpt>
      <trkpt lat="43.81403" lon="7.2826">
        <ele>879.62994384766</ele>
        <time>2012-03-18T12:04:40Z</time>
      </trkpt>
      <trkpt lat="43.81399" lon="7.28259">
        <ele>879.68835449219</ele>
        <time>2012-03-18T12:04:49Z</time>
      </trkpt>
      <trkpt lat="43.81398" lon="7.28255">
        <ele>879.80334472656</ele>
        <time>2012-03-18T12:04:57Z</time>
      </trkpt>
      <trkpt lat="43.81397" lon="7.28252">
        <ele>879.94580078125</ele>
        <time>2012-03-18T12:05:04Z</time>
      </trkpt>
      <trkpt lat="43.81396" lon="7.28248">
        <ele>880.06597900391</ele>
        <time>2012-03-18T12:05:09Z</time>
      </trkpt>
      <trkpt lat="43.81393" lon="7.28246">
        <ele>880.13122558594</ele>
        <time>2012-03-18T12:05:14Z</time>
      </trkpt>
      <trkpt lat="43.81393" lon="7.28243">
        <ele>880.25311279297</ele>
        <time>2012-03-18T12:05:26Z</time>
      </trkpt>
      <trkpt lat="43.81393" lon="7.2824">
        <ele>880.36810302734</ele>
        <time>2012-03-18T12:05:33Z</time>
      </trkpt>
      <trkpt lat="43.81392" lon="7.28234">
        <ele>880.57067871094</ele>
        <time>2012-03-18T12:05:39Z</time>
      </trkpt>
      <trkpt lat="43.81392" lon="7.28231">
        <ele>880.69769287109</ele>
        <time>2012-03-18T12:05:44Z</time>
      </trkpt>
      <trkpt lat="43.81392" lon="7.2823">
        <ele>880.70971679688</ele>
        <time>2012-03-18T12:05:47Z</time>
      </trkpt>
      <trkpt lat="43.81382" lon="7.28224">
        <ele>880.90441894531</ele>
        <time>2012-03-18T12:05:53Z</time>
      </trkpt>
      <trkpt lat="43.81381" lon="7.28223">
        <ele>880.96655273438</ele>
        <time>2012-03-18T12:05:59Z</time>
      </trkpt>
      <trkpt lat="43.81381" lon="7.28223">
        <ele>880.96911621094</ele>
        <time>2012-03-18T12:06:17Z</time>
      </trkpt>
      <trkpt lat="43.81373" lon="7.2822">
        <ele>881</ele>
        <time>2012-03-18T12:06:51Z</time>
      </trkpt>
      <trkpt lat="43.81367" lon="7.28216">
        <ele>881</ele>
        <time>2012-03-18T12:06:53Z</time>
      </trkpt>
      <trkpt lat="43.81361" lon="7.28206">
        <ele>880.86749267578</ele>
        <time>2012-03-18T12:06:57Z</time>
      </trkpt>
      <trkpt lat="43.81346" lon="7.28198">
        <ele>876.74725341797</ele>
        <time>2012-03-18T12:07:02Z</time>
      </trkpt>
      <trkpt lat="43.81342" lon="7.28187">
        <ele>873.99505615234</ele>
        <time>2012-03-18T12:07:05Z</time>
      </trkpt>
      <trkpt lat="43.81336" lon="7.28168">
        <ele>868.17755126953</ele>
        <time>2012-03-18T12:07:12Z</time>
      </trkpt>
      <trkpt lat="43.81332" lon="7.2815">
        <ele>864.38433837891</ele>
        <time>2012-03-18T12:07:17Z</time>
      </trkpt>
      <trkpt lat="43.81332" lon="7.28147">
        <ele>864.02233886719</ele>
        <time>2012-03-18T12:07:18Z</time>
      </trkpt>
      <trkpt lat="43.8133" lon="7.28145">
        <ele>863.41967773438</ele>
        <time>2012-03-18T12:07:25Z</time>
      </trkpt>
      <trkpt lat="43.81325" lon="7.28142">
        <ele>862.4892578125</ele>
        <time>2012-03-18T12:07:30Z</time>
      </trkpt>
      <trkpt lat="43.81321" lon="7.2814">
        <ele>861.74688720703</ele>
        <time>2012-03-18T12:07:35Z</time>
      </trkpt>
      <trkpt lat="43.81316" lon="7.2814">
        <ele>861.32946777344</ele>
        <time>2012-03-18T12:07:38Z</time>
      </trkpt>
      <trkpt lat="43.81311" lon="7.28134">
        <ele>859.93908691406</ele>
        <time>2012-03-18T12:07:42Z</time>
      </trkpt>
      <trkpt lat="43.81314" lon="7.28108">
        <ele>856.60217285156</ele>
        <time>2012-03-18T12:07:48Z</time>
      </trkpt>
      <trkpt lat="43.81313" lon="7.28104">
        <ele>856.07916259766</ele>
        <time>2012-03-18T12:07:49Z</time>
      </trkpt>
      <trkpt lat="43.81316" lon="7.28092">
        <ele>854.1259765625</ele>
        <time>2012-03-18T12:07:54Z</time>
      </trkpt>
      <trkpt lat="43.81324" lon="7.28079">
        <ele>851.45050048828</ele>
        <time>2012-03-18T12:07:59Z</time>
      </trkpt>
      <trkpt lat="43.81326" lon="7.28072">
        <ele>850.14965820312</ele>
        <time>2012-03-18T12:08:01Z</time>
      </trkpt>
      <trkpt lat="43.81334" lon="7.28039">
        <ele>842.53680419922</ele>
        <time>2012-03-18T12:08:09Z</time>
      </trkpt>
      <trkpt lat="43.81342" lon="7.28019">
        <ele>839.44525146484</ele>
        <time>2012-03-18T12:08:17Z</time>
      </trkpt>
      <trkpt lat="43.81342" lon="7.28017">
        <ele>839.19049072266</ele>
        <time>2012-03-18T12:08:18Z</time>
      </trkpt>
      <trkpt lat="43.8134" lon="7.28013">
        <ele>838.24163818359</ele>
        <time>2012-03-18T12:08:22Z</time>
      </trkpt>
      <trkpt lat="43.81336" lon="7.28003">
        <ele>836.51641845703</ele>
        <time>2012-03-18T12:08:28Z</time>
      </trkpt>
      <trkpt lat="43.81333" lon="7.27989">
        <ele>835.28100585938</ele>
        <time>2012-03-18T12:08:37Z</time>
      </trkpt>
      <trkpt lat="43.81333" lon="7.27977">
        <ele>834.51879882812</ele>
        <time>2012-03-18T12:08:44Z</time>
      </trkpt>
      <trkpt lat="43.81335" lon="7.2796">
        <ele>832.67144775391</ele>
        <time>2012-03-18T12:08:53Z</time>
      </trkpt>
      <trkpt lat="43.8134" lon="7.27948">
        <ele>831.36297607422</ele>
        <time>2012-03-18T12:09:00Z</time>
      </trkpt>
      <trkpt lat="43.81341" lon="7.27944">
        <ele>830.98211669922</ele>
        <time>2012-03-18T12:09:05Z</time>
      </trkpt>
      <trkpt lat="43.81343" lon="7.27932">
        <ele>829.70495605469</ele>
        <time>2012-03-18T12:09:15Z</time>
      </trkpt>
      <trkpt lat="43.81341" lon="7.27931">
        <ele>829.55041503906</ele>
        <time>2012-03-18T12:09:21Z</time>
      </trkpt>
      <trkpt lat="43.81339" lon="7.2793">
        <ele>829.49377441406</ele>
        <time>2012-03-18T12:10:54Z</time>
      </trkpt>
      <trkpt lat="43.81341" lon="7.27926">
        <ele>829.05603027344</ele>
        <time>2012-03-18T12:11:05Z</time>
      </trkpt>
      <trkpt lat="43.81341" lon="7.27926">
        <ele>828.98913574219</ele>
        <time>2012-03-18T12:11:23Z</time>
      </trkpt>
      <trkpt lat="43.81342" lon="7.27931">
        <ele>829.53497314453</ele>
        <time>2012-03-18T12:12:00Z</time>
      </trkpt>
      <trkpt lat="43.81343" lon="7.27932">
        <ele>829.60711669922</ele>
        <time>2012-03-18T12:12:13Z</time>
      </trkpt>
      <trkpt lat="43.81347" lon="7.2793">
        <ele>829.40112304688</ele>
        <time>2012-03-18T12:12:20Z</time>
      </trkpt>
      <trkpt lat="43.81349" lon="7.2792">
        <ele>828.36083984375</ele>
        <time>2012-03-18T12:12:25Z</time>
      </trkpt>
      <trkpt lat="43.81356" lon="7.27913">
        <ele>827.6455078125</ele>
        <time>2012-03-18T12:12:30Z</time>
      </trkpt>
      <trkpt lat="43.81363" lon="7.279">
        <ele>825.05383300781</ele>
        <time>2012-03-18T12:12:34Z</time>
      </trkpt>
      <trkpt lat="43.8138" lon="7.27879">
        <ele>813.67785644531</ele>
        <time>2012-03-18T12:12:39Z</time>
      </trkpt>
      <trkpt lat="43.8139" lon="7.27867">
        <ele>807.17364501953</ele>
        <time>2012-03-18T12:12:42Z</time>
      </trkpt>
      <trkpt lat="43.81403" lon="7.2785">
        <ele>802.85083007812</ele>
        <time>2012-03-18T12:12:47Z</time>
      </trkpt>
      <trkpt lat="43.81404" lon="7.27843">
        <ele>802.76989746094</ele>
        <time>2012-03-18T12:12:51Z</time>
      </trkpt>
      <trkpt lat="43.81411" lon="7.27835">
        <ele>801.27423095703</ele>
        <time>2012-03-18T12:12:57Z</time>
      </trkpt>
      <trkpt lat="43.8141" lon="7.27821">
        <ele>801.29412841797</ele>
        <time>2012-03-18T12:13:02Z</time>
      </trkpt>
      <trkpt lat="43.81411" lon="7.27807">
        <ele>801.1005859375</ele>
        <time>2012-03-18T12:13:07Z</time>
      </trkpt>
      <trkpt lat="43.81416" lon="7.27789">
        <ele>800.62762451172</ele>
        <time>2012-03-18T12:13:12Z</time>
      </trkpt>
      <trkpt lat="43.81424" lon="7.27772">
        <ele>799.98291015625</ele>
        <time>2012-03-18T12:13:16Z</time>
      </trkpt>
      <trkpt lat="43.81434" lon="7.27767">
        <ele>798.30401611328</ele>
        <time>2012-03-18T12:13:19Z</time>
      </trkpt>
      <trkpt lat="43.81445" lon="7.27754">
        <ele>796.62164306641</ele>
        <time>2012-03-18T12:13:23Z</time>
      </trkpt>
      <trkpt lat="43.81453" lon="7.27738">
        <ele>794.12530517578</ele>
        <time>2012-03-18T12:13:26Z</time>
      </trkpt>
      <trkpt lat="43.81461" lon="7.27719">
        <ele>792.62945556641</ele>
        <time>2012-03-18T12:13:29Z</time>
      </trkpt>
      <trkpt lat="43.81469" lon="7.27698">
        <ele>790.69689941406</ele>
        <time>2012-03-18T12:13:33Z</time>
      </trkpt>
      <trkpt lat="43.8148" lon="7.27671">
        <ele>787.50769042969</ele>
        <time>2012-03-18T12:13:39Z</time>
      </trkpt>
      <trkpt lat="43.81482" lon="7.27666">
        <ele>787.05810546875</ele>
        <time>2012-03-18T12:13:40Z</time>
      </trkpt>
      <trkpt lat="43.81488" lon="7.27642">
        <ele>786.19189453125</ele>
        <time>2012-03-18T12:13:46Z</time>
      </trkpt>
      <trkpt lat="43.8149" lon="7.27639">
        <ele>785.90484619141</ele>
        <time>2012-03-18T12:13:55Z</time>
      </trkpt>
      <trkpt lat="43.81491" lon="7.27634">
        <ele>785.43804931641</ele>
        <time>2012-03-18T12:14:01Z</time>
      </trkpt>
      <trkpt lat="43.81496" lon="7.27624">
        <ele>784.16711425781</ele>
        <time>2012-03-18T12:14:09Z</time>
      </trkpt>
      <trkpt lat="43.815" lon="7.27613">
        <ele>783.84320068359</ele>
        <time>2012-03-18T12:14:16Z</time>
      </trkpt>
      <trkpt lat="43.815" lon="7.27614">
        <ele>783.63665771484</ele>
        <time>2012-03-18T12:14:23Z</time>
      </trkpt>
      <trkpt lat="43.81501" lon="7.27616">
        <ele>783.18359375</ele>
        <time>2012-03-18T12:14:42Z</time>
      </trkpt>
      <trkpt lat="43.81503" lon="7.27616">
        <ele>782.40728759766</ele>
        <time>2012-03-18T12:15:16Z</time>
      </trkpt>
      <trkpt lat="43.81507" lon="7.2761">
        <ele>781.80853271484</ele>
        <time>2012-03-18T12:15:19Z</time>
      </trkpt>
      <trkpt lat="43.81514" lon="7.27607">
        <ele>779.42535400391</ele>
        <time>2012-03-18T12:15:24Z</time>
      </trkpt>
      <trkpt lat="43.8152" lon="7.27599">
        <ele>778.01342773438</ele>
        <time>2012-03-18T12:15:27Z</time>
      </trkpt>
      <trkpt lat="43.81533" lon="7.27577">
        <ele>774.28637695312</ele>
        <time>2012-03-18T12:15:33Z</time>
      </trkpt>
      <trkpt lat="43.81535" lon="7.27573">
        <ele>773.27185058594</ele>
        <time>2012-03-18T12:15:34Z</time>
      </trkpt>
      <trkpt lat="43.81553" lon="7.27565">
        <ele>762.47283935547</ele>
        <time>2012-03-18T12:15:40Z</time>
      </trkpt>
      <trkpt lat="43.81567" lon="7.27549">
        <ele>760.33898925781</ele>
        <time>2012-03-18T12:15:44Z</time>
      </trkpt>
      <trkpt lat="43.81575" lon="7.27541">
        <ele>759.53900146484</ele>
        <time>2012-03-18T12:15:46Z</time>
      </trkpt>
      <trkpt lat="43.81584" lon="7.27527">
        <ele>759.57989501953</ele>
        <time>2012-03-18T12:15:49Z</time>
      </trkpt>
      <trkpt lat="43.8159" lon="7.27526">
        <ele>754.84448242188</ele>
        <time>2012-03-18T12:15:52Z</time>
      </trkpt>
      <trkpt lat="43.816" lon="7.27515">
        <ele>748.55920410156</ele>
        <time>2012-03-18T12:15:56Z</time>
      </trkpt>
      <trkpt lat="43.81615" lon="7.27495">
        <ele>743.15087890625</ele>
        <time>2012-03-18T12:16:00Z</time>
      </trkpt>
      <trkpt lat="43.81628" lon="7.27485">
        <ele>739.84063720703</ele>
        <time>2012-03-18T12:16:02Z</time>
      </trkpt>
      <trkpt lat="43.81639" lon="7.27473">
        <ele>739.85955810547</ele>
        <time>2012-03-18T12:16:05Z</time>
      </trkpt>
      <trkpt lat="43.81643" lon="7.27463">
        <ele>737.44476318359</ele>
        <time>2012-03-18T12:16:09Z</time>
      </trkpt>
      <trkpt lat="43.8166" lon="7.27449">
        <ele>729.19201660156</ele>
        <time>2012-03-18T12:16:13Z</time>
      </trkpt>
      <trkpt lat="43.81669" lon="7.2744">
        <ele>728.25897216797</ele>
        <time>2012-03-18T12:16:15Z</time>
      </trkpt>
      <trkpt lat="43.81677" lon="7.27429">
        <ele>728.16265869141</ele>
        <time>2012-03-18T12:16:17Z</time>
      </trkpt>
      <trkpt lat="43.81694" lon="7.27405">
        <ele>724.52734375</ele>
        <time>2012-03-18T12:16:22Z</time>
      </trkpt>
      <trkpt lat="43.81696" lon="7.27401">
        <ele>725.00042724609</ele>
        <time>2012-03-18T12:16:23Z</time>
      </trkpt>
      <trkpt lat="43.81702" lon="7.27394">
        <ele>725.50646972656</ele>
        <time>2012-03-18T12:16:25Z</time>
      </trkpt>
      <trkpt lat="43.81707" lon="7.27387">
        <ele>725.98510742188</ele>
        <time>2012-03-18T12:16:27Z</time>
      </trkpt>
      <trkpt lat="43.81721" lon="7.27365">
        <ele>726.4794921875</ele>
        <time>2012-03-18T12:16:33Z</time>
      </trkpt>
      <trkpt lat="43.81731" lon="7.27345">
        <ele>728.13348388672</ele>
        <time>2012-03-18T12:16:39Z</time>
      </trkpt>
      <trkpt lat="43.81733" lon="7.27344">
        <ele>727.70391845703</ele>
        <time>2012-03-18T12:16:40Z</time>
      </trkpt>
      <trkpt lat="43.81734" lon="7.27342">
        <ele>727.81671142578</ele>
        <time>2012-03-18T12:16:45Z</time>
      </trkpt>
      <trkpt lat="43.81739" lon="7.2733">
        <ele>728.34210205078</ele>
        <time>2012-03-18T12:16:50Z</time>
      </trkpt>
      <trkpt lat="43.81746" lon="7.27315">
        <ele>724.85815429688</ele>
        <time>2012-03-18T12:16:54Z</time>
      </trkpt>
      <trkpt lat="43.81757" lon="7.27294">
        <ele>721.90026855469</ele>
        <time>2012-03-18T12:17:00Z</time>
      </trkpt>
      <trkpt lat="43.8177" lon="7.27273">
        <ele>720.54107666016</ele>
        <time>2012-03-18T12:17:04Z</time>
      </trkpt>
      <trkpt lat="43.8178" lon="7.27255">
        <ele>719.88970947266</ele>
        <time>2012-03-18T12:17:08Z</time>
      </trkpt>
      <trkpt lat="43.8179" lon="7.27237">
        <ele>719.38604736328</ele>
        <time>2012-03-18T12:17:12Z</time>
      </trkpt>
      <trkpt lat="43.81802" lon="7.27219">
        <ele>717.03845214844</ele>
        <time>2012-03-18T12:17:16Z</time>
      </trkpt>
      <trkpt lat="43.81813" lon="7.27202">
        <ele>712.49322509766</ele>
        <time>2012-03-18T12:17:19Z</time>
      </trkpt>
      <trkpt lat="43.81841" lon="7.27165">
        <ele>701.87829589844</ele>
        <time>2012-03-18T12:17:25Z</time>
      </trkpt>
      <trkpt lat="43.81856" lon="7.27148">
        <ele>695.27856445312</ele>
        <time>2012-03-18T12:17:28Z</time>
      </trkpt>
      <trkpt lat="43.8188" lon="7.27109">
        <ele>671.99761962891</ele>
        <time>2012-03-18T12:17:34Z</time>
      </trkpt>
      <trkpt lat="43.81894" lon="7.27089">
        <ele>660.98315429688</ele>
        <time>2012-03-18T12:17:37Z</time>
      </trkpt>
      <trkpt lat="43.81899" lon="7.27082">
        <ele>657.09814453125</ele>
        <time>2012-03-18T12:17:38Z</time>
      </trkpt>
      <trkpt lat="43.81916" lon="7.27062">
        <ele>646.30462646484</ele>
        <time>2012-03-18T12:17:41Z</time>
      </trkpt>
      <trkpt lat="43.81932" lon="7.27042">
        <ele>641.17340087891</ele>
        <time>2012-03-18T12:17:44Z</time>
      </trkpt>
      <trkpt lat="43.8195" lon="7.27029">
        <ele>637.72821044922</ele>
        <time>2012-03-18T12:17:48Z</time>
      </trkpt>
      <trkpt lat="43.81949" lon="7.27028">
        <ele>637.81066894531</ele>
        <time>2012-03-18T12:17:52Z</time>
      </trkpt>
      <trkpt lat="43.81947" lon="7.27029">
        <ele>638.51892089844</ele>
        <time>2012-03-18T12:18:17Z</time>
      </trkpt>
      <trkpt lat="43.81942" lon="7.27028">
        <ele>639.18627929688</ele>
        <time>2012-03-18T12:19:28Z</time>
      </trkpt>
      <trkpt lat="43.81942" lon="7.27025">
        <ele>638.71179199219</ele>
        <time>2012-03-18T12:19:54Z</time>
      </trkpt>
      <trkpt lat="43.81943" lon="7.27025">
        <ele>638.72930908203</ele>
        <time>2012-03-18T12:21:21Z</time>
      </trkpt>
      <trkpt lat="43.81946" lon="7.27022">
        <ele>637.76666259766</ele>
        <time>2012-03-18T12:21:33Z</time>
      </trkpt>
      <trkpt lat="43.81948" lon="7.27018">
        <ele>636.90057373047</ele>
        <time>2012-03-18T12:21:37Z</time>
      </trkpt>
      <trkpt lat="43.81955" lon="7.27009">
        <ele>634.12097167969</ele>
        <time>2012-03-18T12:21:42Z</time>
      </trkpt>
      <trkpt lat="43.81967" lon="7.26999">
        <ele>630.9091796875</ele>
        <time>2012-03-18T12:21:47Z</time>
      </trkpt>
      <trkpt lat="43.81973" lon="7.26998">
        <ele>629.68737792969</ele>
        <time>2012-03-18T12:21:50Z</time>
      </trkpt>
      <trkpt lat="43.81977" lon="7.26996">
        <ele>628.79913330078</ele>
        <time>2012-03-18T12:21:53Z</time>
      </trkpt>
      <trkpt lat="43.81981" lon="7.26985">
        <ele>626.93774414062</ele>
        <time>2012-03-18T12:21:57Z</time>
      </trkpt>
      <trkpt lat="43.81989" lon="7.26974">
        <ele>624.68377685547</ele>
        <time>2012-03-18T12:22:01Z</time>
      </trkpt>
      <trkpt lat="43.81996" lon="7.26969">
        <ele>623.43157958984</ele>
        <time>2012-03-18T12:22:05Z</time>
      </trkpt>
      <trkpt lat="43.82004" lon="7.26954">
        <ele>621.98028564453</ele>
        <time>2012-03-18T12:22:09Z</time>
      </trkpt>
      <trkpt lat="43.82012" lon="7.26953">
        <ele>621.32659912109</ele>
        <time>2012-03-18T12:22:12Z</time>
      </trkpt>
      <trkpt lat="43.82016" lon="7.26959">
        <ele>621.03619384766</ele>
        <time>2012-03-18T12:22:15Z</time>
      </trkpt>
      <trkpt lat="43.82022" lon="7.26954">
        <ele>620.44854736328</ele>
        <time>2012-03-18T12:22:18Z</time>
      </trkpt>
      <trkpt lat="43.82034" lon="7.26948">
        <ele>617.31909179688</ele>
        <time>2012-03-18T12:22:22Z</time>
      </trkpt>
      <trkpt lat="43.82038" lon="7.26936">
        <ele>614.24481201172</ele>
        <time>2012-03-18T12:22:26Z</time>
      </trkpt>
      <trkpt lat="43.82047" lon="7.26936">
        <ele>610.6591796875</ele>
        <time>2012-03-18T12:22:30Z</time>
      </trkpt>
      <trkpt lat="43.82049" lon="7.26937">
        <ele>609.95928955078</ele>
        <time>2012-03-18T12:22:31Z</time>
      </trkpt>
      <trkpt lat="43.82054" lon="7.2693">
        <ele>606.96166992188</ele>
        <time>2012-03-18T12:22:35Z</time>
      </trkpt>
      <trkpt lat="43.82055" lon="7.26903">
        <ele>604.77752685547</ele>
        <time>2012-03-18T12:22:41Z</time>
      </trkpt>
      <trkpt lat="43.82051" lon="7.26879">
        <ele>603.90435791016</ele>
        <time>2012-03-18T12:22:45Z</time>
      </trkpt>
      <trkpt lat="43.82045" lon="7.26866">
        <ele>603.23699951172</ele>
        <time>2012-03-18T12:22:49Z</time>
      </trkpt>
      <trkpt lat="43.82049" lon="7.2686">
        <ele>601.76947021484</ele>
        <time>2012-03-18T12:22:53Z</time>
      </trkpt>
      <trkpt lat="43.82048" lon="7.2685">
        <ele>600.12670898438</ele>
        <time>2012-03-18T12:22:56Z</time>
      </trkpt>
      <trkpt lat="43.8204" lon="7.26834">
        <ele>598.33795166016</ele>
        <time>2012-03-18T12:23:00Z</time>
      </trkpt>
      <trkpt lat="43.82037" lon="7.2683">
        <ele>597.84814453125</ele>
        <time>2012-03-18T12:23:01Z</time>
      </trkpt>
      <trkpt lat="43.82032" lon="7.26822">
        <ele>596.54339599609</ele>
        <time>2012-03-18T12:23:03Z</time>
      </trkpt>
      <trkpt lat="43.8204" lon="7.26816">
        <ele>593.58990478516</ele>
        <time>2012-03-18T12:23:07Z</time>
      </trkpt>
      <trkpt lat="43.82053" lon="7.26812">
        <ele>590.38537597656</ele>
        <time>2012-03-18T12:23:10Z</time>
      </trkpt>
      <trkpt lat="43.82059" lon="7.26812">
        <ele>587.97381591797</ele>
        <time>2012-03-18T12:23:15Z</time>
      </trkpt>
      <trkpt lat="43.82057" lon="7.26807">
        <ele>587.78833007812</ele>
        <time>2012-03-18T12:23:17Z</time>
      </trkpt>
      <trkpt lat="43.82043" lon="7.26784">
        <ele>581.42071533203</ele>
        <time>2012-03-18T12:23:22Z</time>
      </trkpt>
      <trkpt lat="43.8204" lon="7.26781">
        <ele>580.52001953125</ele>
        <time>2012-03-18T12:23:23Z</time>
      </trkpt>
      <trkpt lat="43.82045" lon="7.26777">
        <ele>577.69158935547</ele>
        <time>2012-03-18T12:23:27Z</time>
      </trkpt>
      <trkpt lat="43.82054" lon="7.26774">
        <ele>573.74682617188</ele>
        <time>2012-03-18T12:23:29Z</time>
      </trkpt>
      <trkpt lat="43.82065" lon="7.2677">
        <ele>566.58996582031</ele>
        <time>2012-03-18T12:23:32Z</time>
      </trkpt>
      <trkpt lat="43.82076" lon="7.26763">
        <ele>558.03363037109</ele>
        <time>2012-03-18T12:23:36Z</time>
      </trkpt>
      <trkpt lat="43.82082" lon="7.26762">
        <ele>554.44879150391</ele>
        <time>2012-03-18T12:23:39Z</time>
      </trkpt>
      <trkpt lat="43.82078" lon="7.26749">
        <ele>551.07635498047</ele>
        <time>2012-03-18T12:23:42Z</time>
      </trkpt>
      <trkpt lat="43.82076" lon="7.26739">
        <ele>549.36932373047</ele>
        <time>2012-03-18T12:23:45Z</time>
      </trkpt>
      <trkpt lat="43.8207" lon="7.26731">
        <ele>549.34008789062</ele>
        <time>2012-03-18T12:23:48Z</time>
      </trkpt>
      <trkpt lat="43.82066" lon="7.26725">
        <ele>548.98217773438</ele>
        <time>2012-03-18T12:23:51Z</time>
      </trkpt>
      <trkpt lat="43.82066" lon="7.26714">
        <ele>544.42974853516</ele>
        <time>2012-03-18T12:23:55Z</time>
      </trkpt>
      <trkpt lat="43.82066" lon="7.26703">
        <ele>539.30981445312</ele>
        <time>2012-03-18T12:23:59Z</time>
      </trkpt>
      <trkpt lat="43.8207" lon="7.26696">
        <ele>534.90631103516</ele>
        <time>2012-03-18T12:24:02Z</time>
      </trkpt>
      <trkpt lat="43.82081" lon="7.26692">
        <ele>530.56677246094</ele>
        <time>2012-03-18T12:24:05Z</time>
      </trkpt>
      <trkpt lat="43.82096" lon="7.26691">
        <ele>527.53735351562</ele>
        <time>2012-03-18T12:24:08Z</time>
      </trkpt>
      <trkpt lat="43.821" lon="7.26692">
        <ele>527.08129882812</ele>
        <time>2012-03-18T12:24:09Z</time>
      </trkpt>
      <trkpt lat="43.82111" lon="7.26693">
        <ele>525.42810058594</ele>
        <time>2012-03-18T12:24:13Z</time>
      </trkpt>
      <trkpt lat="43.82114" lon="7.26692">
        <ele>524.00183105469</ele>
        <time>2012-03-18T12:24:16Z</time>
      </trkpt>
      <trkpt lat="43.82112" lon="7.26687">
        <ele>523.06494140625</ele>
        <time>2012-03-18T12:24:25Z</time>
      </trkpt>
      <trkpt lat="43.82113" lon="7.26685">
        <ele>522.06463623047</ele>
        <time>2012-03-18T12:24:32Z</time>
      </trkpt>
      <trkpt lat="43.82111" lon="7.26682">
        <ele>521.40289306641</ele>
        <time>2012-03-18T12:25:23Z</time>
      </trkpt>
      <trkpt lat="43.82112" lon="7.26681">
        <ele>520.60321044922</ele>
        <time>2012-03-18T12:25:26Z</time>
      </trkpt>
      <trkpt lat="43.82124" lon="7.26682">
        <ele>516.61413574219</ele>
        <time>2012-03-18T12:25:32Z</time>
      </trkpt>
      <trkpt lat="43.82127" lon="7.26677">
        <ele>513.39385986328</ele>
        <time>2012-03-18T12:25:36Z</time>
      </trkpt>
      <trkpt lat="43.82127" lon="7.26676">
        <ele>513.18395996094</ele>
        <time>2012-03-18T12:25:40Z</time>
      </trkpt>
      <trkpt lat="43.82126" lon="7.26675">
        <ele>512.73004150391</ele>
        <time>2012-03-18T12:25:46Z</time>
      </trkpt>
      <trkpt lat="43.82125" lon="7.26675">
        <ele>513.26263427734</ele>
        <time>2012-03-18T12:29:54Z</time>
      </trkpt>
      <trkpt lat="43.82125" lon="7.26673">
        <ele>512.59552001953</ele>
        <time>2012-03-18T12:30:02Z</time>
      </trkpt>
      <trkpt lat="43.82123" lon="7.26667">
        <ele>511.06958007812</ele>
        <time>2012-03-18T12:30:39Z</time>
      </trkpt>
      <trkpt lat="43.82111" lon="7.26658">
        <ele>513.45916748047</ele>
        <time>2012-03-18T12:30:44Z</time>
      </trkpt>
      <trkpt lat="43.82092" lon="7.26645">
        <ele>513.16369628906</ele>
        <time>2012-03-18T12:30:49Z</time>
      </trkpt>
      <trkpt lat="43.82074" lon="7.26634">
        <ele>512.33544921875</ele>
        <time>2012-03-18T12:30:54Z</time>
      </trkpt>
      <trkpt lat="43.82048" lon="7.26625">
        <ele>510.75686645508</ele>
        <time>2012-03-18T12:30:59Z</time>
      </trkpt>
      <trkpt lat="43.82036" lon="7.26621">
        <ele>508.78573608398</ele>
        <time>2012-03-18T12:31:01Z</time>
      </trkpt>
      <trkpt lat="43.82026" lon="7.26618">
        <ele>506.7922668457</ele>
        <time>2012-03-18T12:31:03Z</time>
      </trkpt>
      <trkpt lat="43.81997" lon="7.26617">
        <ele>506.0188293457</ele>
        <time>2012-03-18T12:31:08Z</time>
      </trkpt>
      <trkpt lat="43.81979" lon="7.2662">
        <ele>504.72793579102</ele>
        <time>2012-03-18T12:31:12Z</time>
      </trkpt>
      <trkpt lat="43.81969" lon="7.26621">
        <ele>503.68423461914</ele>
        <time>2012-03-18T12:31:14Z</time>
      </trkpt>
      <trkpt lat="43.81957" lon="7.26626">
        <ele>504.19921875</ele>
        <time>2012-03-18T12:31:16Z</time>
      </trkpt>
      <trkpt lat="43.81937" lon="7.26633">
        <ele>504.24176025391</ele>
        <time>2012-03-18T12:31:20Z</time>
      </trkpt>
      <trkpt lat="43.81913" lon="7.26637">
        <ele>502.52188110352</ele>
        <time>2012-03-18T12:31:25Z</time>
      </trkpt>
      <trkpt lat="43.81907" lon="7.26638">
        <ele>501.12322998047</ele>
        <time>2012-03-18T12:31:28Z</time>
      </trkpt>
      <trkpt lat="43.81902" lon="7.26637">
        <ele>499.56127929688</ele>
        <time>2012-03-18T12:31:31Z</time>
      </trkpt>
      <trkpt lat="43.81893" lon="7.2664">
        <ele>498.39178466797</ele>
        <time>2012-03-18T12:31:35Z</time>
      </trkpt>
      <trkpt lat="43.81885" lon="7.26646">
        <ele>499.07574462891</ele>
        <time>2012-03-18T12:31:40Z</time>
      </trkpt>
      <trkpt lat="43.81884" lon="7.26649">
        <ele>499.68734741211</ele>
        <time>2012-03-18T12:31:55Z</time>
      </trkpt>
      <trkpt lat="43.81879" lon="7.26653">
        <ele>500.93374633789</ele>
        <time>2012-03-18T12:32:16Z</time>
      </trkpt>
      <trkpt lat="43.81877" lon="7.26655">
        <ele>501.60882568359</ele>
        <time>2012-03-18T12:32:26Z</time>
      </trkpt>
      <trkpt lat="43.81876" lon="7.26656">
        <ele>501.71383666992</ele>
        <time>2012-03-18T12:33:04Z</time>
      </trkpt>
      <trkpt lat="43.81862" lon="7.26666">
        <ele>504.71453857422</ele>
        <time>2012-03-18T12:33:09Z</time>
      </trkpt>
      <trkpt lat="43.81846" lon="7.26673">
        <ele>505.36831665039</ele>
        <time>2012-03-18T12:33:13Z</time>
      </trkpt>
      <trkpt lat="43.81831" lon="7.26687">
        <ele>508.10189819336</ele>
        <time>2012-03-18T12:33:16Z</time>
      </trkpt>
      <trkpt lat="43.81801" lon="7.26718">
        <ele>516.70806884766</ele>
        <time>2012-03-18T12:33:22Z</time>
      </trkpt>
      <trkpt lat="43.81784" lon="7.26729">
        <ele>516.67138671875</ele>
        <time>2012-03-18T12:33:25Z</time>
      </trkpt>
      <trkpt lat="43.81758" lon="7.26745">
        <ele>514.79681396484</ele>
        <time>2012-03-18T12:33:30Z</time>
      </trkpt>
      <trkpt lat="43.81738" lon="7.26766">
        <ele>519.65692138672</ele>
        <time>2012-03-18T12:33:34Z</time>
      </trkpt>
      <trkpt lat="43.81725" lon="7.2677">
        <ele>517.54028320312</ele>
        <time>2012-03-18T12:33:37Z</time>
      </trkpt>
      <trkpt lat="43.81705" lon="7.26768">
        <ele>513.22741699219</ele>
        <time>2012-03-18T12:33:42Z</time>
      </trkpt>
      <trkpt lat="43.81687" lon="7.2677">
        <ele>511.02185058594</ele>
        <time>2012-03-18T12:33:45Z</time>
      </trkpt>
      <trkpt lat="43.81643" lon="7.26791">
        <ele>510.7707824707</ele>
        <time>2012-03-18T12:33:52Z</time>
      </trkpt>
      <trkpt lat="43.81633" lon="7.26795">
        <ele>510.00518798828</ele>
        <time>2012-03-18T12:33:54Z</time>
      </trkpt>
      <trkpt lat="43.81615" lon="7.26802">
        <ele>507.8108215332</ele>
        <time>2012-03-18T12:33:58Z</time>
      </trkpt>
      <trkpt lat="43.81606" lon="7.26797">
        <ele>504.22338867188</ele>
        <time>2012-03-18T12:34:01Z</time>
      </trkpt>
      <trkpt lat="43.81598" lon="7.26797">
        <ele>503.22045898438</ele>
        <time>2012-03-18T12:34:03Z</time>
      </trkpt>
      <trkpt lat="43.81574" lon="7.26784">
        <ele>497.55847167969</ele>
        <time>2012-03-18T12:34:08Z</time>
      </trkpt>
      <trkpt lat="43.81555" lon="7.26785">
        <ele>496.98510742188</ele>
        <time>2012-03-18T12:34:11Z</time>
      </trkpt>
      <trkpt lat="43.8155" lon="7.26788">
        <ele>497.69488525391</ele>
        <time>2012-03-18T12:34:12Z</time>
      </trkpt>
      <trkpt lat="43.81544" lon="7.26792">
        <ele>499.01754760742</ele>
        <time>2012-03-18T12:34:19Z</time>
      </trkpt>
      <trkpt lat="43.81543" lon="7.26793">
        <ele>499.23815917969</ele>
        <time>2012-03-18T12:34:25Z</time>
      </trkpt>
      <trkpt lat="43.81541" lon="7.26794">
        <ele>499.34802246094</ele>
        <time>2012-03-18T12:34:34Z</time>
      </trkpt>
      <trkpt lat="43.81526" lon="7.26799">
        <ele>500.5910949707</ele>
        <time>2012-03-18T12:34:40Z</time>
      </trkpt>
      <trkpt lat="43.81516" lon="7.26805">
        <ele>501.66467285156</ele>
        <time>2012-03-18T12:34:44Z</time>
      </trkpt>
      <trkpt lat="43.81511" lon="7.26793">
        <ele>497.27182006836</ele>
        <time>2012-03-18T12:34:48Z</time>
      </trkpt>
      <trkpt lat="43.81506" lon="7.26782">
        <ele>493.71701049805</ele>
        <time>2012-03-18T12:34:51Z</time>
      </trkpt>
      <trkpt lat="43.81491" lon="7.26766">
        <ele>488.24551391602</ele>
        <time>2012-03-18T12:34:57Z</time>
      </trkpt>
    </trkseg>
  </trk>
</gpx>